     2              OBSERVATION DATA    GPS                 RINEX VERSION / TYPE
ASRINEXO V2.9.5 UX USGS 26-APR-99 13:36                     PGM / RUN BY / DATE
                                                            COMMENT
BIT 2 OF LLI (+4) FLAGS DATA COLLECTED UNDER "AS" CONDITION COMMENT
BIT 2 OF LLI (+4) FLAGS DATA COLLECTED UNDER "AS" CONDITION COMMENT
BIT 2 OF LLI (+4) FLAGS DATA COLLECTED UNDER "AS" CONDITION COMMENT
BIT 2 OF LLI (+4) FLAGS DATA COLLECTED UNDER "AS" CONDITION COMMENT
BIT 2 OF LLI (+4) FLAGS DATA COLLECTED UNDER "AS" CONDITION COMMENT
BIT 2 OF LLI (+4) FLAGS DATA COLLECTED UNDER "AS" CONDITION COMMENT
Original Marker Name: 1pdi 1_PDI_1986_USGS                  COMMENT
Campaign Name: USGS Yucca Profile                           COMMENT
4-Character Station Name: 1PDI                              COMMENT
6-Character Antenna Code: DMRCHT                            COMMENT
Vertical Measurement Point: BCR                             COMMENT
Vertical Offset to Rinex Ref. Point: 0.0348                 COMMENT
Radial Measurement Point: ECF                               COMMENT
Radial Offset to Rinex Ref. Point: 0.1897                   COMMENT
Antenna Height from Field Measurement: 1.4320 m             COMMENT
Additional Antenna Identification Info.:                    COMMENT
Turborogue and Ashtech Choke Ring                           COMMENT
Original XYZ: -2258226.8437 -4596728.0391 3790538.1135      COMMENT
New XYZ position is based on association with SCEC monument COMMENT
E1G0H9Q6+0011. Position of that monument is believed to be  COMMENT
valid to within 1 m horizontally; vertical accuracy         COMMENT
should be no worse than 3-times this value.                 COMMENT
                                                            COMMENT
Revised Rinex header created by UCSD GPS archive for        COMMENT
GSAC on 08-Aug-2000 (2000:221) 00:39:24 GMT                 COMMENT
For assistance contact dagnew@ucsd.edu                      COMMENT
or anderson@python.ucsd.edu                                 COMMENT
                                                            COMMENT
1PDI 1989                                                   MARKER NAME
CHS US GEOLOGICAL SURVEY                                    OBSERVER / AGENCY
LP03450 ASHTECH Z-XII3 CB00                                 REC # / TYPE / VERS
CR14333 DORNE-MARGOL. TYPE T                                ANT # / TYPE
 -2258194.7363 -4596712.5674  3790512.5940                  APPROX POSITION XYZ
        1.3846        0.0000        0.0000                  ANTENNA: DELTA H/E/N
     1     1     0                                          WAVELENGTH FACT L1/2
     5    C1    L1    L2    P1    P2                        # / TYPES OF OBSERV
    30                                                      INTERVAL
  1999     4    22     0     1    0.000000                  TIME OF FIRST OBS
  1999     4    22    23    30    0.000000                  TIME OF LAST OBS
                                                            END OF HEADER
 99  4 22  0  1  0.0000000  0  7 30 23 10 06 17 22 26
  23794434.863    -4882679.134 9  -3790137.39349  23794436.045    23794442.9384
  21978053.717   -14352278.438 9 -10857304.43949  21978052.811    21978059.0204
  24263286.610    -3277679.376 9  -2529644.62849  24263285.547    24263292.7114
  20282279.348   -29453309.272 9 -22934906.89449  20282278.871    20282283.6824
  21192659.431   -24274114.718 9 -18326958.70649  21192658.688    21192663.9474
  23355524.631   -10554326.513 9  -8200156.43349  23355523.368    23355530.5674
  22076967.729   -16794768.047 9 -13064068.59649  22076967.683    22076973.8494
 99  4 22  0  1 30.0000000  0  7 30 23 10 06 17 22 26
  23814207.209    -4778774.947 9  -3709173.19149  23814207.327    23814214.3604
  21964290.701   -14424603.078 9 -10913661.24449  21964289.938    21964295.9514
  24283049.118    -3173827.285 9  -2448721.00549  24283049.035    24283056.8684
  20286056.457   -29433460.416 9 -22919440.25849  20286056.166    20286060.7824
  21185695.404   -24310710.753 9 -18355475.08049  21185694.719    21185699.9364
  23351325.648   -10576391.855 9  -8217350.18549  23351324.984    23351331.5684
  22067614.812   -16843917.595 9 -13102366.89749  22067614.728    22067620.3984
 99  4 22  0  2  0.0000000  0  7 30 23 10 06 17 22 26
  23833986.662    -4674833.889 9  -3628180.26149  23833988.533    23833993.9574
  21950594.012   -14496579.451 9 -10969746.67549  21950593.410    21950599.3464
  24302818.489    -3069939.410 9  -2367769.47549  24302817.440    24302824.8254
  20289926.293   -29413124.405 9 -22903594.01949  20289925.947    20289930.8644
  21178771.782   -24347094.753 9 -18383826.23649  21178771.192    21178776.4004
  23347228.983   -10597919.578 9  -8234125.02449  23347228.860    23347234.9584
  22058359.767   -16892552.561 9 -13140264.22149  22058359.955    22058365.4124
 99  4 22  0  2 30.0000000  0  7 30 23 10 06 17 22 26
  23853775.707    -4570843.029 9  -3547148.52749  23853776.664    23853783.7474
  21936964.167   -14568204.593 9 -11025558.42549  21936963.316    21936969.7554
  24322594.463    -2966016.118 9  -2286790.38549  24322594.059    24322601.2934
  20293894.280   -29392272.453 9 -22887345.75549  20293893.970    20293898.5604
  21171888.691   -24383265.659 9 -18412011.34349  21171887.687    21171893.2934
  23343234.247   -10618913.194 9  -8250483.66149  23343234.275    23343239.9494
  22049201.777   -16940677.911 9 -13177764.45949  22049201.775    22049207.0954
 99  4 22  0  3  0.0000000  0  7 30 23 10 06 17 22 26
  23873575.348    -4466795.827 9  -3466072.89149  23873575.827    23873583.9184
  21923407.463   -14639445.292 9 -11081070.60249  21923406.611    21923412.6644
  24342382.562    -2862030.200 9  -2205762.49149  24342381.560    24342388.9844
  20297963.043   -29370891.068 9 -22870684.94449  20297962.663    20297967.2954
  21165044.038   -24419234.263 9 -18440038.81349  21165043.275    21165048.7314
  23339342.312   -10639366.439 9  -8266421.24149  23339341.230    23339347.3524
  22040140.199   -16988296.916 9 -13214870.12549  22040139.049    22040146.3684
 99  4 22  0  3 30.0000000  0  7 30 23 10 06 17 22 26
  23893387.864    -4362680.208 9  -3384943.94749  23893387.762    23893395.6564
  21909925.126   -14710295.355 9 -11136278.40149  21909924.285    21909930.3264
  24362186.536    -2757960.283 9  -2124669.14349  24362185.010    24362191.8924
  20302132.466   -29348980.599 9 -22853611.86549  20302132.146    20302136.7064
  21158236.640   -24455007.516 9 -18467914.06249  21158235.798    21158241.0884
  23335554.015   -10659274.191 9  -8281933.75449  23335553.263    23335559.2054
  22031172.963   -17035419.439 9 -13251588.92449  22031173.306    22031178.1324
 99  4 22  0  4  0.0000000  0  7 30 23 10 06 17 22 26
  23913212.979    -4258498.802 9  -3303763.73349  23913212.917    23913219.5554
  21896513.631   -14780773.014 9 -11191196.00349  21896513.009    21896518.8404
  24382007.234    -2653802.146 9  -2043507.04549  24382006.958    24382013.9514
  20306400.016   -29326554.342 9 -22836136.86349  20306399.692    20306404.3854
  21151468.542   -24490573.973 9 -18495628.17049  21151468.013    21151473.2194
  23331871.034   -10678629.351 9  -8297015.68049  23331870.072    23331875.3734
  22022298.297   -17082056.312 9 -13287929.30649  22022298.760    22022304.0214
 99  4 22  0  4 30.0000000  0  7 30 23 10 06 17 22 26
  23933046.272    -4154274.208 9  -3222549.87649  23933046.527    23933053.4724
  21883171.061   -14850888.562 9 -11245831.45849  21883170.566    21883176.3714
  24401847.114    -2549543.344 9  -1962266.47549  24401845.544    24401853.7274
  20310762.218   -29303630.793 9 -22818274.37249  20310762.092    20310766.6684
  21144737.187   -24525947.432 9 -18523191.89149  21144736.504    21144741.9424
  23328294.109   -10697426.275 9  -8311662.61149  23328293.129    23328298.4714
  22013515.777   -17128208.733 9 -13323892.19449  22013516.040    22013521.7304
 99  4 22  0  5  0.0000000  0  7 30 23 10 06 17 22 26
  23952884.062    -4050026.816 9  -3141318.25449  23952884.903    23952890.9274
  21869895.041   -14920654.755 9 -11300194.67549  21869894.317    21869900.4134
  24421703.987    -2445194.661 9  -1880955.86349  24421701.698    24421710.2124
  20315212.317   -29280245.431 9 -22800052.01649  20315212.061    20315216.6664
  21138042.188   -24561129.958 9 -18550606.83149  21138041.448    21138046.7164
  23324821.283   -10715675.504 9  -8325882.77549  23324821.232    23324825.7064
  22004825.777   -17173874.779 9 -13359476.08949  22004825.776    22004831.3814
 99  4 22  0  5 30.0000000  0  7 30 23 10 06 17 22 26
  23972721.784    -3945779.823 9  -3060086.94749  23972722.170    23972729.1454
  21856679.847   -14990101.052 9 -11354308.62849  21856679.196    21856685.1564
  24441572.326    -2340786.186 9  -1799598.67149  24441570.383    24441578.8564
  20319746.751   -29256416.880 9 -22781484.32449  20319746.392    20319750.9584
  21131385.273   -24596112.146 9 -18577865.66649  21131384.377    21131389.9894
  23321449.627   -10733393.333 9  -8339688.84149  23321448.477    23321455.0134
  21996228.764   -17219052.249 9 -13394679.27349  21996228.928    21996234.2174
 99  4 22  0  6  0.0000000  0  7 30 23 10 06 17 22 26
  23992555.924    -3841551.212 9  -2978869.95049  23992555.749    23992563.0384
  21843524.273   -15059234.092 9 -11408178.49149  21843523.613    21843529.2364
  24461450.707    -2236324.407 9  -1718199.93249  24461450.370    24461456.5354
  20324365.911   -29232143.258 9 -22762569.82449  20324365.654    20324370.3514
  21124764.797   -24630902.897 9 -18604975.33349  21124764.000    21124769.3564
  23318176.517   -10750592.321 9  -8353090.63449  23318175.883    23318181.4464
  21987728.794   -17263720.093 9 -13429485.34949  21987728.822    21987734.5004
 99  4 22  0  6 30.0000000  0  7 30 23 10 06 17 22 26
  24012385.518    -3737346.896 9  -2897671.88649  24012385.701    24012392.8144
  21830433.544   -15128026.294 9 -11461782.75449  21830432.756    21830438.7174
  24481335.503    -2131829.769 9  -1636775.60649  24481334.915    24481341.4374
  20329072.820   -29207408.321 9 -22743295.85949  20329072.726    20329077.2964
  21118176.953   -24665522.137 9 -18631951.35349  21118176.421    21118181.4624
  23314997.827   -10767296.617 9  -8366106.94849  23314996.973    23315002.8944
  21979329.476   -17307858.668 9 -13463879.01149  21979329.627    21979335.1444
 99  4 22  0  7  0.0000000  0  7 30 23 10 06 17 22 26
  24032212.025    -3633158.482 9  -2816486.20849  24032212.715    24032218.7114
  21817411.842   -15196455.320 9 -11515104.02749  21817411.151    21817416.8734
  24501223.807    -2027316.020 9  -1555336.38449  24501221.737    24501230.2144
  20333869.301   -29182202.990 9 -22723655.34849  20333869.225    20333873.6984
  21111623.527   -24699960.696 9 -18658786.58549  21111622.838    21111628.1704
  23311912.022   -10783513.233 9  -8378743.25249  23311910.730    23311917.3144
  21971032.301   -17351461.137 9 -13497854.93949  21971032.241    21971038.1714
 99  4 22  0  7 30.0000000  0  7 30 23 10 06 17 22 26
  24052037.848    -3528973.636 9  -2735303.34349  24052038.380    24052046.5554
  21804462.377   -15264505.140 9 -11568129.81949  21804461.735    21804467.5624
  24521118.053    -1922770.691 9  -1473872.57349  24521117.524    24521125.0134
  20338758.108   -29156512.212 9 -22703636.57149  20338757.851    20338762.4554
  21105102.967   -24734226.580 9 -18685487.26949  21105102.352    21105107.3024
  23308921.566   -10799228.080 9  -8390988.57149  23308921.140    23308927.2774
  21962840.479   -17394509.795 9 -13531399.31649  21962839.992    21962845.3704
 99  4 22  0  8  0.0000000  0  7 30 23 10 06 17 22 26
  24071862.883    -3424792.458 9  -2654123.28849  24071863.266    24071871.6244
  21791586.771   -15332166.907 9 -11620853.22749  21791586.219    21791591.8494
  24541018.540    -1818193.878 9  -1392384.19449  24541017.987    24541024.6184
  20343738.727   -29130338.753 9 -22683241.67649  20343738.423    20343743.0404
  21098611.291   -24768340.516 9 -18712069.54549  21098610.526    21098615.8944
  23306027.686   -10814436.143 9  -8402838.98649  23306027.003    23306033.1414
  21954753.904   -17437004.755 9 -13564512.23549  21954753.390    21954758.8314
 99  4 22  0  8 30.0000000  0  7 30 23 10 06 17 22 26
  24091688.145    -3320610.555 9  -2572942.71749  24091688.241    24091695.6464
  21778784.172   -15399444.889 9 -11673277.57849  21778783.192    21778788.9124
  24560923.387    -1713593.781 9  -1310877.67049  24560922.047    24560929.8984
  20348810.813   -29103684.796 9 -22662472.36849  20348810.642    20348815.2014
  21092149.108   -24802299.571 9 -18738531.14449  21092148.170    21092153.5264
  23303234.221   -10829116.295 9  -8414278.04549  23303232.638    23303239.4734
  21946767.683   -17478972.269 9 -13597214.15949  21946767.879    21946772.7054
 99  4 22  0  9  0.0000000  0  7 30 23 10 06 17 22 26
  24111513.172    -3216429.539 9  -2491762.81449  24111513.876    24111521.3974
  21766049.415   -15466366.133 9 -11725423.95949  21766048.668    21766054.3244
  24580833.840    -1608963.691 9  -1229347.80049  24580833.033    24580840.5144
  20353972.737   -29076558.961 9 -22641335.37049  20353972.258    20353976.8674
  21085718.483   -24836092.689 9 -18764863.43649  21085717.352    21085722.7994
  23300544.554   -10843250.661 9  -8425291.83349  23300542.930    23300550.0644
  21938878.706   -17520428.894 9 -13629517.99049  21938878.301    21938883.6614
 99  4 22  0  9 30.0000000  0  7 30 23 10 06 17 22 26
  24131336.719    -3112256.843 9  -2410589.39949  24131336.543    24131345.5694
  21753379.323   -15532947.831 9 -11777305.76149  21753378.539    21753383.9644
  24600747.913    -1504314.904 9  -1147803.34649  24600747.077    24600754.0704
  20359225.138   -29048957.330 9 -22619827.62049  20359224.862    20359229.2334
  21079318.995   -24869722.170 9 -18791068.22249  21079318.312    21079323.6044
  23297960.642   -10856828.772 9  -8435872.17049  23297959.408    23297965.2424
  21931085.627   -17561381.613 9 -13661429.16649  21931085.495    21931091.2144
 99  4 22  0 10  0.0000000  0  7 30 23 10 06 17 22 26
  24151156.722    -3008102.617 9  -2329430.38249  24151156.902    24151165.5504
  21740774.048   -15599188.942 9 -11828922.16349  21740773.346    21740779.1554
  24620664.900    -1399650.795 9  -1066246.94749  24620663.429    24620671.2254
  20364570.715   -29020866.196 9 -22597938.43249  20364570.401    20364575.0494
  21072953.514   -24903172.830 9 -18817133.66649  21072952.728    21072957.9564
  23295482.829   -10869849.128 9  -8446017.88549  23295481.923    23295487.8154
  21923385.266   -17601847.394 9 -13692960.91249  21923385.236    21923390.6174
 99  4 22  0 10 30.0000000  0  7 30 23 10 06 17 22 26
  24170974.745    -2903958.610 9  -2248279.32649  24170975.042    24170983.2834
  21728235.189   -15665080.944 9 -11880266.53649  21728234.646    21728240.0764
  24640585.997    -1294965.082 9   -984673.72349  24640584.848    24640592.4034
  20370014.633   -28992258.341 9 -22575646.61349  20370014.452    20370018.9894
  21066627.195   -24936417.839 9 -18843038.86349  21066626.538    21066631.7574
  23293110.271   -10882316.611 9  -8455732.80049  23293109.336    23293115.4174
  21915777.542   -17641826.148 9 -13724113.14449  21915777.103    21915782.5194
 99  4 22  0 11  0.0000000  0  7 30 23 10 06 17 22 26
  24190792.487    -2799815.192 9  -2167128.72149  24190791.863    24190799.1354
  21715767.034   -15730601.450 9 -11931321.43449  21715766.248    21715772.1234
  24660512.929    -1190248.715 9   -903076.61849  24660511.453    24660518.4584
  20375560.770   -28963113.403 9 -22552936.28249  20375560.523    20375565.2344
  21060343.969   -24969436.370 9 -18868767.58649  21060343.098    21060348.3264
  23290840.701   -10894243.104 9  -8465026.16649  23290839.937    23290846.5464
  21908268.995   -17681283.736 9 -13754859.28349  21908268.891    21908274.0264
 99  4 22  0 11 30.0000000  0  7 30 23 10 06 17 22 26
  24210612.238    -2695661.478 9  -2085970.10949  24210611.922    24210621.0244
  21703374.149   -15795726.251 9 -11982067.99049  21703373.457    21703378.9084
  24680448.302    -1085488.468 9   -821445.31149  24680447.442    24680454.2904
  20381212.180   -28933415.006 9 -22529794.69249  20381211.791    20381216.3174
  21054105.942   -25002217.279 9 -18894311.14749  21054105.196    21054110.5434
  23288673.197   -10905633.238 9  -8473901.60349  23288671.778    23288678.2884
  21900864.688   -17720193.302 9 -13785178.39349  21900864.677    21900869.7334
 99  4 22  0 12  0.0000000  0  7 30 23 10 06 17 22 26
  24230433.711    -2591499.498 9  -2004805.03249  24230434.949    24230441.3354
  21691059.559   -15860439.925 9 -12032494.18649  21691058.583    21691064.5204
  24700394.639     -980669.169 9   -739768.01949  24700394.553    24700400.8624
  20386967.192   -28903172.250 9 -22506228.92449  20386966.877    20386971.5704
  21047914.466   -25034753.878 9 -18919664.33249  21047913.673    21047918.8014
  23286606.345   -10916495.068 9  -8482365.35449  23286605.279    23286611.6654
  21893567.246   -17758541.698 9 -13815060.21649  21893566.979    21893572.2184
 99  4 22  0 12 30.0000000  0  7 30 23 10 06 17 22 26
  24250259.404    -2487315.876 9  -1923623.10349  24250259.325    24250267.2734
  21678824.298   -15924736.414 9 -12082595.30749  21678823.183    21678828.9104
  24720350.698     -875799.491 9   -658051.43749  24720348.799    24720357.1024
  20392824.735   -28872390.654 9 -22482243.28349  20392824.401    20392828.9964
  21041768.572   -25067050.865 9 -18944830.81049  21041767.687    21041772.9844
  23284639.447   -10926830.824 9  -8490419.20649  23284638.820    23284645.1124
  21886379.896   -17796311.129 9 -13844490.90949  21886379.365    21886385.1254
 99  4 22  0 13  0.0000000  0  7 30 23 10 06 17 22 26
  24270087.323    -2383119.481 9  -1842431.22749  24270088.947    24270095.7814
  21666666.956   -15988623.410 9 -12132377.33849  21666666.029    21666671.7584
  24740316.259     -770879.946 9   -576295.99749  24740315.156    24740323.1744
  20398778.746   -28841102.190 9 -22457862.68149  20398778.430    20398782.8444
  21035664.308   -25099128.962 9 -18969826.72449  21035663.433    21035668.7454
  23282774.717   -10936629.545 9  -8498054.56449  23282774.321    23282780.2274
  21879303.196   -17833499.150 9 -13873468.56349  21879302.494    21879308.0854
 99  4 22  0 13 30.0000000  0  6 30 23 06 17 22 26
  24289919.312    -2278902.171 9  -1761223.04649  24289919.439    24289927.7444
  21654591.054   -16052082.545 9 -12181825.97749  21654590.269    21654595.8154
  20404829.437   -28809305.603 9 -22433086.13949  20404829.171    20404833.6634
  21029603.784   -25130977.036 9 -18994643.39849  21029603.009    21029608.1314
  23281019.136   -10945856.092 9  -8505244.09349  23281018.406    23281025.1234
  21872339.398   -17870094.042 9 -13901984.03049  21872339.514    21872344.4234
 99  4 22  0 14  0.0000000  0  6 30 23 06 17 22 26
  24309745.031    -2174717.728 9  -1680040.47749  24309744.864    24309754.1334
  21642585.032   -16115174.657 9 -12230988.62549  21642584.211    21642589.9144
  20410968.677   -28777043.690 9 -22407946.99849  20410968.560    20410973.0064
  21023577.310   -25162646.150 9 -19019320.62149  21023576.581    21023581.9354
  23279363.546   -10954556.411 9  -8512023.56449  23279362.623    23279368.2834
  21865477.592   -17906152.881 9 -13930081.79149  21865477.265    21865482.6314
 99  4 22  0 14 30.0000000  0  7 30 23 06 21 17 22 26
  24329560.938    -2070584.801 9  -1598898.05649  24329561.565    24329569.2694
  21630644.114   -16177924.042 9 -12279884.21349  21630643.267    21630648.9304
  20417196.632   -28744315.731 9 -22382444.69549  20417196.299    20417200.8284
  24965056.605    -4245140.889 9  -2711376.69849  24965055.232    24965064.7284
  21017581.126   -25194156.385 9 -19043874.04349  21017580.312    21017585.5374
  23277806.009   -10962741.205 9  -8518401.31249  23277805.501    23277811.1484
  21858714.572   -17941692.317 9 -13957774.82449  21858714.097    21858719.7024
 99  4 22  0 15  0.0000000  0  7 30 23 06 21 17 22 26
  24349364.962    -1966514.626 9  -1517804.54049  24349366.304    24349374.5544
  21618768.954   -16240328.140 9 -12328510.74449  21618768.098    21618773.6464
  20423511.806   -28711129.372 9 -22356585.19049  20423511.607    20423516.1724
  24947135.519    -4339316.548 9  -2784760.17549  24947135.887    24947145.1284
  21011617.074   -25225497.698 9 -19068295.83949  21011616.301    21011621.6484
  23276349.808   -10970393.435 9  -8524364.10349  23276349.049    23276354.8084
  21852052.794   -17976699.869 9 -13985053.40549  21852052.619    21852058.2504
 99  4 22  0 15 30.0000000  0  7 30 23 06 21 17 22 26
  24369155.998    -1862512.120 9  -1436763.75149  24369156.444    24369164.6664
  21606960.298   -16302382.999 9 -12376865.14149  21606959.243    21606965.1954
  20429917.172   -28677468.982 9 -22330356.32349  20429916.733    20429921.5314
  24929233.978    -4433389.959 9  -2858064.00749  24929235.789    24929242.1474
  21005686.669   -25256662.176 9 -19092579.83849  21005685.866    21005691.2264
  23274994.978   -10977512.734 9  -8529911.60349  23274993.867    23275000.0784
  21845494.078   -18011165.946 9 -14011910.06549  21845493.789    21845499.3804
 99  4 22  0 16  0.0000000  0  7 30 23 06 21 17 22 26
  24388935.372    -1758571.016 9  -1355770.81449  24388935.431    24388944.8364
  21595217.052   -16364093.754 9 -12424951.40449  21595216.343    21595221.9274
  20436413.740   -28643329.120 9 -22303753.84549  20436413.325    20436418.0834
  24911351.194    -4527363.371 9  -2931289.85749  24911349.811    24911360.2984
  20999789.241   -25287653.462 9 -19116728.88149  20999788.499    20999793.9094
  23273740.489   -10984104.995 9  -8535048.44249  23273739.925    23273746.0034
  21839038.863   -18045088.324 9 -14038343.05949  21839038.268    21839043.7414
 99  4 22  0 16 30.0000000  0  7 30 23 06 21 17 22 26
  24408702.036    -1654697.085 9  -1274830.22549  24408703.266    24408710.6564
  21583541.778   -16425447.636 9 -12472759.59149  21583540.896    21583546.7864
  20442997.308   -28608732.251 9 -22276795.25649  20442997.038    20443001.7494
  24893484.857    -4621250.702 9  -3004448.64849  24893483.440    24893492.7294
  20993924.121   -25318474.988 9 -19140745.64649  20993923.329    20993928.8764
  23272588.236   -10990160.301 9  -8539766.86549  23272587.343    23272593.4444
  21832688.116   -18078461.767 9 -14064348.30949  21832688.005    21832693.1134
 99  4 22  0 17  0.0000000  0  7 30 23 06 21 17 22 26
  24428455.615    -1550891.615 9  -1193942.96149  24428456.382    24428464.4624
  21571935.129   -16486440.831 9 -12520286.71749  21571934.341    21571939.9654
  20449665.251   -28573692.074 9 -22249491.24049  20449664.872    20449669.5564
  24875635.567    -4715047.940 9  -3077537.19849  24875635.086    24875644.1834
  20988090.910   -25349128.602 9 -19164631.56749  20988089.908    20988095.4634
  23271536.543   -10995687.634 9  -8544073.88749  23271535.911    23271541.4674
  21826439.803   -18111296.652 9 -14089933.90949  21826439.790    21826445.0544
 99  4 22  0 17 30.0000000  0  7 30 23 06 21 17 22 26
  24448198.719    -1447141.802 9  -1113099.10049  24448198.974    24448207.8684
  21560397.729   -16547070.156 9 -12567530.31149  21560396.888    21560402.4014
  20456420.285   -28538193.894 9 -22221830.33749  20456420.095    20456424.8044
  24857809.364    -4808724.090 9  -3150531.41649  24857807.298    24857817.5844
  20982290.186   -25379611.330 9 -19188384.33349  20982289.373    20982294.7124
  23270581.860   -11000704.422 9  -8547983.07749  23270581.252    23270586.6364
  21820291.654   -18143605.679 9 -14115109.75049  21820291.377    21820296.6304
 99  4 22  0 18  0.0000000  0  7 30 23 06 21 17 22 26
  24467933.242    -1343436.936 9  -1032290.26149  24467933.442    24467942.8054
  21548933.621   -16607314.147 9 -12614473.64649  21548932.884    21548938.3564
  20463263.941   -28502230.209 9 -22193806.70149  20463263.697    20463268.4744
  24840009.933    -4902259.655 9  -3223416.08549  24840010.269    24840017.8464
  20976524.510   -25409909.942 9 -19211993.63049  20976523.765    20976529.0684
  23269724.885   -11005207.804 9  -8551492.22949  23269724.595    23269729.5064
  21814244.262   -18175384.964 9 -14139872.80549  21814244.233    21814249.3074
 99  4 22  0 18 30.0000000  0  7 30 23 06 21 17 22 26
  24487659.772    -1239773.033 9   -951513.34549  24487660.985    24487669.0584
  21537544.009   -16667166.816 9 -12661112.05449  21537543.229    21537548.7594
  20470198.593   -28465788.591 9 -22165410.65249  20470198.347    20470203.0234
  24822239.559    -4995642.331 9  -3296181.61849  24822237.612    24822249.1464
  20970795.333   -25440016.956 9 -19235453.63349  20970794.581    20970799.7624
  23268966.802   -11009191.741 9  -8554596.59949  23268965.251    23268972.4294
  21808300.396   -18206620.001 9 -14164211.77049  21808300.578    21808305.4304
 99  4 22  0 19  0.0000000  0  7 30 23 06 21 17 22 26
  24507380.859    -1136138.001 9   -870758.94149  24507382.652    24507388.9874
  21526227.746   -16726634.091 9 -12707450.15749  21526226.813    21526232.2454
  20477228.268   -28428847.403 9 -22136625.32149  20477228.090    20477232.9914
  24804497.439    -5088877.512 9  -3368832.20449  24804495.115    24804505.3354
  20965104.007   -25469924.951 9 -19258758.55249  20965103.381    20965108.4484
  23268306.799   -11012659.826 9  -8557299.02149  23268306.547    23268311.8904
  21802460.264   -18237310.051 9 -14188126.07949  21802460.141    21802465.3724
 99  4 22  0 19 30.0000000  0  7 30 23 06 21 17 22 26
  24527096.646    -1032531.236 9   -790026.56449  24527095.685    24527104.6894
  21514984.929   -16785715.398 9 -12753487.50949  21514984.386    21514989.6044
  20484356.463   -28391388.698 9 -22107436.73749  20484356.045    20484360.7594
  24786781.167    -5181976.479 9  -3441376.66749  24786779.719    24786789.3874
  20959451.610   -25499628.646 9 -19281904.27849  20959450.944    20959456.0364
  23267746.533   -11015603.840 9  -8559593.05749  23267745.905    23267751.6624
  21796727.483   -18267436.069 9 -14211600.87449  21796727.689    21796732.4484
 99  4 22  0 20  0.0000000  0  7 30 23 06 21 17 22 26
  24546805.472     -928962.505 9   -709323.79949  24546805.810    24546815.0494
  21503815.176   -16844413.162 9 -12799225.99349  21503814.389    21503819.9024
  20491585.642   -28353399.166 9 -22077834.52749  20491585.241    20491589.8774
  24769087.806    -5274955.215 9  -3513827.44549  24769086.718    24769096.7584
  20953838.265   -25529127.042 9 -19304890.03649  20953837.570    20953842.8194
  23267287.496   -11018016.116 9  -8561472.75349  23267286.233    23267292.6404
  21791105.024   -18296982.290 9 -14234623.89249  21791104.872    21791109.7264
 99  4 22  0 20 30.0000000  0  7 30 23 06 21 17 22 26
  24566507.216     -825430.686 9   -628649.82849  24566508.470    24566517.0004
  21492716.022   -16902739.438 9 -12844675.00249  21492715.353    21492720.7644
  20498917.120   -28314872.004 9 -22047813.38049  20498916.785    20498921.6104
  24751416.830    -5367816.783 9  -3586186.92449  24751415.212    24751425.0294
  20948264.035   -25558419.952 9 -19327715.67149  20948263.469    20948268.4034
  23266931.140   -11019888.758 9  -8562931.96249  23266930.589    23266936.5624
  21785592.868   -18325948.970 9 -14257195.30449  21785592.528    21785598.0084
 99  4 22  0 21  0.0000000  0  7 30 23 06 21 17 22 26
  24586199.155     -721949.351 9   -548015.16049  24586198.569    24586208.3984
  21481690.263   -16960680.010 9 -12889823.47049  21481689.526    21481694.7234
  20506350.598   -28275808.854 9 -22017374.57849  20506350.559    20506355.1484
  24733769.810    -5460552.263 9  -3658448.14949  24733767.749    24733777.3634
  20942730.170   -25587500.720 9 -19350376.00349  20942729.360    20942734.5214
  23266678.091   -11021219.041 9  -8563968.54649  23266677.414    23266683.3844
  21780190.776   -18354336.918 9 -14279315.74649  21780190.388    21780195.5584
 99  4 22  0 21 30.0000000  0  7 30 23 06 21 17 22 26
  24605877.518     -618538.493 9   -467435.42349  24605878.085    24605885.8374
  21470739.312   -17018227.508 9 -12934665.64349  21470738.407    21470743.9994
  20513885.953   -28236210.361 9 -21986518.62449  20513885.573    20513890.3744
  24716150.629    -5553141.180 9  -3730595.18349  24716150.265    24716159.2094
  20937236.684   -25616368.951 9 -19372870.71949  20937235.753    20937240.9424
  23266528.854   -11022002.978 9  -8564579.40949  23266527.248    23266533.5184
  21774899.865   -18382140.490 9 -14300980.84249  21774899.441    21774904.4174
 99  4 22  0 22  0.0000000  0  7 30 23 06 21 17 22 26
  24625543.319     -515194.920 9   -386908.08549  24625544.590    24625552.1874
  21459863.877   -17075377.986 9 -12979198.45449  21459863.196    21459868.5544
  20521520.630   -28196089.883 9 -21955255.93349  20521520.267    20521525.0474
  24698562.146    -5645568.692 9  -3802616.43649  24698561.142    24698570.4624
  20931783.225   -25645026.944 9 -19395201.61649  20931782.349    20931787.7284
  23266483.762   -11022239.784 9  -8564763.93949  23266482.309    23266489.8954
  21769721.143   -18409354.720 9 -14322186.70549  21769721.066    21769726.3824
 99  4 22  0 22 30.0000000  0  7 30 23 06 21 17 22 26
  24645194.058     -411930.217 9   -306442.20849  24645194.247    24645203.0364
  21449063.409   -17132134.655 9 -13023424.40049  21449062.543    21449067.8144
  20529248.529   -28155479.407 9 -21923611.42949  20529248.137    20529253.0024
  24681004.783    -5737832.912 9  -3874510.46249  24681003.407    24681012.7474
  20926367.051   -25673489.172 9 -19417379.97049  20926366.178    20926371.4994
  23266543.453   -11021926.242 9  -8564519.62849  23266542.658    23266548.5334
  21764653.424   -18435985.556 9 -14342937.98849  21764653.194    21764658.6384
 99  4 22  0 23  0.0000000  0  7 30 23 06 21 17 22 26
  24664826.454     -308762.357 9   -226051.78149  24664826.966    24664833.8414
  21438337.373   -17188500.328 9 -13067345.66949  21438336.748    21438342.0264
  20537067.833   -28114388.727 9 -21891592.74249  20537067.504    20537072.2464
  24663476.959    -5829941.751 9  -3946283.42149  24663476.131    24663485.5574
  20920985.863   -25701767.569 9 -19439415.07449  20920985.173    20920990.3334
  23266703.435   -11021085.785 9  -8563864.72749  23266702.807    23266708.3414
  21759696.168   -18462035.867 9 -14363236.90349  21759696.156    21759700.8704
 99  4 22  0 23 30.0000000  0  7 30 23 06 21 17 22 26
  24684441.408     -205686.657 9   -145733.16849  24684441.847    24684449.3074
  21427683.606   -17244486.266 9 -13110971.04549  21427682.754    21427688.1274
  20544977.029   -28072825.552 9 -21859205.87349  20544976.779    20544981.5114
  24645976.780    -5921904.911 9  -4017942.86549  24645975.776    24645984.6174
  20915639.286   -25729864.017 9 -19461308.40449  20915638.495    20915643.6874
  23266961.594   -11019729.363 9  -8562807.77949  23266961.618    23266966.8434
  21754850.150   -18487501.933 9 -14383080.57549  21754849.951    21754854.8734
 99  4 22  0 24  0.0000000  0  7 30 23 06 21 17 22 26
  24704039.405     -102699.485 9    -65483.55949  24704040.509    24704048.3854
  21417101.099   -17300097.420 9 -13154304.38749  21417100.200    21417105.8414
  20552970.978   -28030817.043 9 -21826471.99249  20552970.654    20552975.5894
  24628501.437    -6013737.647 9  -4089500.69549  24628500.484    24628508.6274
  20910326.669   -25757782.036 9 -19483062.70549  20910325.663    20910331.1904
  23267315.679   -11017868.640 9  -8561357.86549  23267313.904    23267321.1984
  21750115.196   -18512384.230 9 -14402469.35549  21750115.388    21750120.4214
 99  4 22  0 24 30.0000000  0  7 30 23 06 21 17 22 26
  24723617.452         183.617 9     14684.99049  24723618.425    24723625.2904
  21406590.214   -17355332.021 9 -13197344.30049  21406589.596    21406594.8644
  20561050.745   -27988357.672 9 -21793386.78449  20561050.661    20561055.1764
  24611047.948    -6105455.975 9  -4160969.35449  24611047.466    24611055.4484
  20905048.431   -25785519.047 9 -19504675.95149  20905047.607    20905052.8954
  23267764.288   -11015511.130 9  -8559520.84649  23267763.323    23267770.2884
  21745488.038   -18536699.955 9 -14421416.63749  21745487.852    21745492.7564
 99  4 22  0 25  0.0000000  0  7 30 23 06 21 17 22 26
  24743178.673      102977.871 9     94784.26249  24743178.564    24743187.5114
  21396154.710   -17410170.859 9 -13240075.83649  21396153.881    21396159.3944
  20569221.097   -27945422.468 9 -21759930.80449  20569220.875    20569225.5954
  24593616.449    -6197058.410 9  -4232347.69749  24593615.974    24593624.7374
  20899808.282   -25813056.238 9 -19526133.50049  20899807.235    20899812.7264
  23268307.187   -11012658.272 9  -8557297.83949  23268306.906    23268312.2254
  21740970.133   -18560441.414 9 -14439916.45549  21740969.860    21740975.1984
 99  4 22  0 25 30.0000000  0  7 30 23 06 21 17 22 26
  24762725.573      205696.934 9    174824.92749  24762725.122    24762733.9984
  21385797.126   -17464600.312 9 -13282488.36849  21385796.501    21385801.7674
  20577482.044   -27902011.036 9 -21726103.73349  20577481.626    20577486.4484
  24576209.507    -6288532.259 9  -4303625.86249  24576208.585    24576216.5584
  20894607.581   -25840386.038 9 -19547429.44149  20894606.885    20894611.9604
  23268949.068   -11009284.690 9  -8554669.06249  23268948.072    23268953.9724
  21736563.530   -18583598.263 9 -14457960.73149  21736563.150    21736568.4564
 99  4 22  0 26  0.0000000  0  7 30 23 06 21 17 22 26
  24782256.657      308333.383 9    254801.25649  24782256.391    24782264.8304
  21375520.528   -17518603.778 9 -13324568.96349  21375519.856    21375525.2264
  20585835.714   -27858112.215 9 -21691896.87849  20585835.253    20585840.0474
  24558829.517    -6379863.805 9  -4374793.14249  24558828.237    24558835.9164
  20889446.637   -25867507.106 9 -19568562.73849  20889445.808    20889450.9674
  23269691.809   -11005381.523 9  -8551627.64149  23269690.958    23269697.0654
  21732267.098   -18606176.075 9 -14475553.80449  21732266.915    21732272.3724
 99  4 22  0 26 30.0000000  0  6 23 06 21 17 22 26
  21365327.731   -17572167.189 9 -13366306.66149  21365327.122    21365332.4914
  20594289.736   -27813686.155 9 -21657279.18549  20594289.640    20594294.0654
  24541481.390    -6471028.235 9  -4445830.22549  24541478.978    24541487.8774
  20884327.480   -25894408.473 9 -19589524.84149  20884326.642    20884331.8834
  23270538.562   -11000932.012 9  -8548160.49349  23270536.373    23270543.8114
  21728082.877   -18628164.317 9 -14492687.47549  21728082.352    21728087.5504
 99  4 22  0 27  0.0000000  0  6 23 06 21 17 22 26
  21355219.358   -17625287.028 9 -13407698.71649  21355218.600    21355223.7714
  20602845.853   -27768723.511 9 -21622243.38349  20602845.537    20602850.3724
  24524171.655    -6561990.753 9  -4516709.98049  24524169.591    24524178.1314
  20879252.100   -25921079.750 9 -19610307.65249  20879251.215    20879256.6284
  23271491.246   -10995925.407 9  -8544259.24649  23271490.702    23271496.6944
  21724015.415   -18649538.502 9 -14509342.66749  21724015.187    21724020.5114
 99  4 22  0 27 30.0000000  0  6 23 06 21 17 22 26
  21345187.770   -17678003.396 9 -13448776.37849  21345186.855    21345192.4374
  20611498.661   -27723252.668 9 -21586811.57649  20611498.297    20611503.0844
  24506898.720    -6652759.884 9  -4587439.01949  24506897.858    24506906.3844
  20874216.448   -25947542.202 9 -19630927.74449  20874215.631    20874221.0164
  23272543.688   -10990395.267 9  -8539950.04649  23272542.554    23272548.6304
  21720061.137   -18670318.330 9 -14525534.72949  21720061.165    21720066.3234
 99  4 22  0 28  0.0000000  0  6 23 06 21 17 22 26
  21335230.792   -17730327.291 9 -13489548.22249  21335230.058    21335235.5084
  20620247.974   -27677274.823 9 -21550984.70449  20620247.680    20620252.4264
  24489660.173    -6743348.200 9  -4658027.16349  24489657.963    24489668.0744
  20869222.020   -25973788.141 9 -19651379.12549  20869221.299    20869226.4074
  23273693.025   -10984354.913 9  -8535243.27249  23273691.359    23273698.6514
  21716219.978   -18690503.692 9 -14541263.56349  21716219.864    21716225.1234
 99  4 22  0 28 30.0000000  0  6 23 06 21 17 22 26
  21325345.367   -17782275.518 9 -13530027.33049  21325344.731    21325350.0974
  20629091.879   -27630799.952 9 -21514770.54649  20629091.707    20629096.3234
  24472455.166    -6833760.748 9  -4728478.35049  24472454.402    24472462.5994
  20864267.971   -25999821.909 9 -19671665.17749  20864267.138    20864272.5054
  23274939.137   -10977807.005 9  -8530141.01449  23274938.465    23274944.8124
  21712494.780   -18710079.692 9 -14556517.56649  21712494.793    21712499.5774
 99  4 22  0 29  0.0000000  0  6 23 06 21 17 22 26
  21315530.519   -17833852.964 9 -13570217.52749  21315529.646    21315535.1584
  20638025.622   -27583853.023 9 -21478188.55249  20638025.432    20638030.1274
  24455280.050    -6924015.771 9  -4798806.80049  24455278.513    24455288.6654
  20859352.407   -26025653.444 9 -19691793.64449  20859351.711    20859356.8954
  23276278.552   -10970767.711 9  -8524655.84649  23276277.339    23276284.0484
  21708885.033   -18729048.808 9 -14571298.68649  21708885.112    21708889.9804
 99  4 22  0 29 30.0000000  0  6 23 06 21 17 22 26
  21305786.575   -17885057.633 9 -13610117.24749  21305785.941    21305791.3764
  20647047.136   -27536444.877 9 -21441247.17149  20647046.847    20647051.6034
  24438130.824    -7014134.464 9  -4869029.01849  24438129.785    24438138.7434
  20854474.698   -26051285.740 9 -19711766.86149  20854474.028    20854479.2424
  23277711.603   -10963237.119 9  -8518787.83649  23277710.766    23277717.8484
  21705389.716   -18747416.500 9 -14585611.15949  21705389.561    21705395.0674
 99  4 22  0 30  0.0000000  0  6 23 06 21 17 22 26
  21296114.348   -17935885.543 9 -13649723.38749  21296113.677    21296119.1404
  20656155.207   -27488581.674 9 -21403951.19849  20656154.902    20656159.6854
  24421006.118    -7104124.755 9  -4939151.17349  24421005.999    24421013.8914
  20849633.383   -26076726.915 9 -19731591.15249  20849632.710    20849638.0314
  23279241.071   -10955199.921 9  -8512525.08449  23279240.277    23279247.1254
  21702008.824   -18765183.531 9 -14599455.58249  21702009.072    21702013.9704
 99  4 22  0 30 30.0000000  0  6 23 06 21 17 22 26
  21286513.503   -17986338.223 9 -13689037.14249  21286512.884    21286518.1994
  20665349.094   -27440267.482 9 -21366303.79249  20665348.847    20665353.6154
  24403907.377    -7193978.654 9  -5009167.06149  24403907.157    24403914.2714
  20844824.144   -26101999.562 9 -19751284.12449  20844823.529    20844828.6914
  23280866.559   -10946658.011 9  -8505869.04949  23280865.812    23280873.0094
  21698740.627   -18782358.191 9 -14612838.41349  21698740.195    21698745.6174
 99  4 22  0 31  0.0000000  0  6 23 06 21 17 22 26
  21276985.343   -18036409.084 9 -13728053.37349  21276984.550    21276989.9624
  20674629.852   -27391496.685 9 -21328300.58949  20674629.462    20674634.5344
  24386833.814    -7283700.008 9  -5079079.65649  24386832.987    24386840.6294
  20840048.405   -26127096.394 9 -19770840.09549  20840047.805    20840052.9064
  23282589.037   -10937606.432 9  -8498815.88249  23282588.359    23282594.5354
  21695581.820   -18798957.557 9 -14625772.97549  21695581.701    21695587.0554
 99  4 22  0 31 30.0000000  0  6 23 06 21 17 22 26
  21267530.164   -18086096.126 9 -13766770.52949  21267529.456    21267534.7104
  20683999.586   -27342258.403 9 -21289933.12449  20683999.445    20684004.1434
  24369786.628    -7373282.473 9  -5148884.00949  24369785.888    24369793.8154
  20835309.219   -26152001.124 9 -19790246.37449  20835308.446    20835313.7484
  23284410.864   -10928032.999 9  -8491356.06049  23284409.749    23284415.9814
  21692532.965   -18814979.412 9 -14638257.52449  21692533.022    21692537.9154
 99  4 22  0 32  0.0000000  0  6 23 06 21 17 22 26
  21258148.070   -18135399.209 9 -13805188.49549  21258147.331    21258152.5964
  20693460.437   -27292541.421 9 -21251192.64949  20693460.176    20693465.3024
  24352768.934    -7462710.670 9  -5218568.16449  24352768.139    24352776.5994
  20830606.642   -26176713.282 9 -19809502.59749  20830605.932    20830611.1044
  23286331.824   -10917938.095 9  -8483489.90949  23286332.078    23286337.0034
  21689595.728   -18830414.847 9 -14650285.12849  21689595.565    21689601.2044
 99  4 22  0 32 30.0000000  0  6 23 06 21 17 22 26
  21248840.645   -18184310.038 9 -13843300.80549  21248839.764    21248845.2994
  20703014.470   -27242334.850 9 -21212070.68849  20703014.381    20703018.9864
  24335779.966    -7551987.605 9  -5288134.45649  24335779.081    24335787.0084
  20825941.451   -26201228.915 9 -19828605.68549  20825940.621    20825946.0464
  23288349.994   -10907332.693 9  -8475225.97449  23288349.021    23288355.1904
  21686770.116   -18845263.521 9 -14661855.51849  21686769.992    21686775.1264
 99  4 22  0 33  0.0000000  0  6 23 06 21 17 22 26
  21239608.828   -18232823.477 9 -13881103.46249  21239608.045    21239613.4894
  20712663.369   -27191629.690 9 -21172560.19449  20712663.022    20712668.0884
  24318820.985    -7641107.124 9  -5357578.07549  24318820.301    24318827.6304
  20821317.494   -26225528.073 9 -19847540.08449  20821316.622    20821321.8344
  23290465.312   -10896216.357 9  -8466563.89349  23290464.447    23290471.1084
  21684060.342   -18859503.824 9 -14672951.84249  21684060.108    21684065.3974
 99  4 22  0 33 30.0000000  0  6 23 06 21 17 22 26
  21230451.648   -18280944.620 9 -13918600.43649  21230450.915    21230456.1984
  20722406.690   -27140428.273 9 -21132663.01449  20722406.546    20722411.5004
  24301893.275    -7730062.703 9  -5426893.97349  24301892.070    24301899.9474
  20816732.507   -26249622.231 9 -19866314.74949  20816731.717    20816737.0444
  23292676.276   -10884597.763 9  -8457510.44749  23292675.656    23292681.4074
  21681469.023   -18873121.162 9 -14683562.74649  21681468.821    21681473.8474
 99  4 22  0 34  0.0000000  0  6 23 06 21 17 22 26
  21221368.624   -18328676.095 9 -13955793.76849  21221367.743    21221373.0954
  20732242.027   -27088743.397 9 -21092389.10649  20732241.748    20732246.6514
  24284998.047    -7818846.659 9  -5496076.12149  24284996.817    24285004.1814
  20812182.567   -26273532.260 9 -19884945.93249  20812181.766    20812187.1484
  23294982.655   -10872477.521 9  -8448066.10549  23294981.450    23294987.6834
  21678994.222   -18886126.223 9 -14693696.54349  21678994.245    21678999.1134
 99  4 22  0 34 30.0000000  0  6 23 06 21 17 22 26
  21212360.551   -18376013.709 9 -13992680.19849  21212359.819    21212365.1234
  20742167.501   -27036584.712 9 -21051745.99949  20742167.306    20742172.1694
  24268134.376    -7907465.127 9  -5565129.33449  24268133.940    24268141.9274
  20807666.927   -26297262.104 9 -19903436.70949  20807666.053    20807671.2624
  23297384.394   -10859856.369 9  -8438231.46149  23297383.957    23297389.3374
  21676633.488   -18898531.795 9 -14703363.21249  21676633.229    21676638.3094
 99  4 22  0 35  0.0000000  0  6 23 06 21 17 22 26
  21203425.668   -18422966.648 9 -14029266.87749  21203424.984    21203429.9914
  20752181.954   -26983958.556 9 -21010738.63849  20752181.873    20752186.6834
  24251303.560    -7995910.735 9  -5634047.83249  24251303.112    24251310.9834
  20803186.394   -26320807.212 9 -19921783.53549  20803185.474    20803190.6694
  23299881.381   -10846735.239 9  -8428007.21449  23299880.898    23299886.4514
  21674385.217   -18910346.461 9 -14712569.41849  21674385.175    21674390.2824
 99  4 22  0 35 30.0000000  0  6 23 06 21 17 22 26
  21194567.331   -18469517.463 9 -14065540.22149  21194566.657    21194571.8834
  20762286.516   -26930858.750 9 -20969362.21349  20762286.438    20762291.1954
  24234505.244    -8084186.406 9  -5702833.92449  24234503.882    24234512.1364
  20798743.447   -26344154.935 9 -19939976.56349  20798742.370    20798747.8534
  23302475.423   -10833103.716 9  -8417385.25649  23302474.882    23302481.2874
  21672246.692   -18921584.355 9 -14721326.21249  21672246.546    21672251.7494
 99  4 22  0 36  0.0000000  0  6 23 06 21 17 22 26
  21185789.487   -18515645.115 9 -14101483.82049  21185788.614    21185793.9214
  20772484.106   -26877270.329 9 -20927605.02349  20772483.999    20772488.7114
  24217741.633    -8172279.825 9  -5771478.02149  24217740.807    24217749.1434
  20794341.702   -26367286.101 9 -19958000.83749  20794340.787    20794346.0744
  23305169.299   -10818947.015 9  -8406354.07349  23305168.578    23305174.4554
  21670218.831   -18932240.489 9 -14729629.67749  21670218.660    21670223.9894
 99  4 22  0 36 30.0000000  0  6 23 06 21 17 22 26
  21177093.977   -18561339.916 9 -14137090.14449  21177093.373    21177098.4584
  20782779.000   -26823170.418 9 -20885449.28649  20782778.692    20782783.6934
  24201012.097    -8260193.877 9  -5839982.34449  24201011.039    24201019.4484
  20789985.546   -26390177.736 9 -19975838.47649  20789984.863    20789990.1834
  23307962.851   -10804267.059 9  -8394915.15949  23307961.924    23307968.1284
  21668307.099   -18942286.764 9 -14737457.92849  21668307.153    21668312.3044
 99  4 22  0 37  0.0000000  0  6 23 06 21 17 22 26
  21168482.829   -18606591.752 9 -14172351.28749  21168482.105    21168487.4754
  20793174.530   -26768541.564 9 -20842881.38049  20793174.385    20793179.2654
  24184317.396    -8347924.525 9  -5908343.75249  24184316.586    24184323.7234
  20785677.157   -26412818.526 9 -19993480.63949  20785676.336    20785681.6844
  23310856.099   -10789062.617 9  -8383067.53949  23310855.820    23310861.1644
  21666514.484   -18951707.025 9 -14744798.37849  21666514.064    21666519.2674
 99  4 22  0 37 30.0000000  0  6 23 06 21 17 22 26
  21159959.023   -18651384.743 9 -14207254.89349  21159958.436    21159963.5434
  20803671.156   -26713381.714 9 -20799899.69449  20803671.018    20803675.7824
  24167660.563    -8435455.760 9  -5976549.78849  24167658.138    24167667.6614
  20781415.498   -26435213.620 9 -20010931.35949  20781414.696    20781419.9594
  23313850.667   -10773325.968 9  -8370805.23449  23313850.627    23313856.3004
  21664845.269   -18960478.848 9 -14751633.55049  21664845.510    21664850.1804
 99  4 22  0 38  0.0000000  0  6 23 06 21 17 22 26
  21151516.316   -18695751.416 9 -14241826.30249  21151515.471    21151520.8654
  20814264.438   -26657713.679 9 -20756522.03049  20814264.245    20814269.0034
  24151041.888    -8522786.782 9  -6044599.79749  24151040.163    24151048.8974
  20777196.586   -26457384.255 9 -20028207.17249  20777195.957    20777201.0864
  23316943.012   -10757075.310 9  -8358142.39649  23316941.667    23316947.9074
  21663301.726   -18968590.080 9 -14757953.97749  21663301.488    21663307.0804
 99  4 22  0 38 30.0000000  0  6 23 06 21 17 22 26
  21143149.361   -18739719.975 9 -14276087.49649  21143148.683    21143154.0874
  20824949.302   -26601564.595 9 -20712769.51449  20824948.938    20824953.5684
  24134457.411    -8609938.217 9  -6112509.88549  24134455.734    24134464.5094
  20773018.299   -26479341.434 9 -20045316.66149  20773017.299    20773022.6394
  23320129.133   -10740332.367 9  -8345095.95849  23320128.191    23320134.9394
  21661880.427   -18976059.040 9 -14763773.93249  21661880.442    21661885.1864
 99  4 22  0 39  0.0000000  0  6 23 06 21 17 22 26
  21134855.676   -18783303.808 9 -14310048.89849  21134854.954    21134860.1144
  20835719.756   -26544965.551 9 -20668666.38349  20835719.641    20835724.2564
  24117908.108    -8696904.517 9  -6180275.70049  24117906.471    24117915.0504
  20768877.651   -26501100.663 9 -20062271.89849  20768877.076    20768882.2264
  23323408.189   -10723100.601 9  -8331668.61449  23323407.471    23323414.0764
  21660577.461   -18982905.758 9 -14769109.01849  21660577.065    21660582.1904
 99  4 22  0 39 30.0000000  0  6 23 06 21 17 22 26
  21126629.957   -18826530.308 9 -14343731.86249  21126629.219    21126634.3924
  20846568.689   -26487954.319 9 -20624242.07649  20846568.621    20846573.3684
  24101391.217    -8783700.379 9  -6247908.72349  24101390.964    24101398.7324
  20764774.174   -26522664.821 9 -20079075.13749  20764773.426    20764778.6164
  23326777.693   -10705394.272 9  -8317871.48849  23326776.689    23326783.2614
  21659391.613   -18989137.221 9 -14773964.69649  21659391.595    21659396.2294
 99  4 22  0 40  0.0000000  0  6 23 06 21 17 22 26
  21118468.341   -18869419.668 9 -14377152.11549  21118467.699    21118472.9454
  20857494.417   -26430539.652 9 -20579503.40749  20857494.227    20857498.8754
  24084901.026    -8870356.819 9  -6315433.10849  24084899.981    24084907.9824
  20760707.638   -26544034.547 9 -20095726.86749  20760706.952    20760712.2054
  23330235.363   -10687224.031 9  -8303712.87749  23330234.555    23330239.5624
  21658318.892   -18994774.413 9 -14778357.30449  21658318.908    21658324.0444
 99  4 22  0 40 30.0000000  0  6 23 06 21 17 22 26
  21110374.938   -18911950.771 9 -14410293.21449  21110374.412    21110379.6624
  20868500.160   -26372704.216 9 -20534436.87649  20868499.908    20868504.8074
  24068438.681    -8956866.591 9  -6382843.21049  24068437.088    24068445.7024
  20756678.825   -26565206.115 9 -20112224.19649  20756677.921    20756683.4374
  23333782.569   -10668583.433 9  -8289187.74649  23333781.699    23333787.8184
  21657356.756   -18999830.630 9 -14782297.21549  21657356.604    21657361.7654
 99  4 22  0 41  0.0000000  0  6 23 06 21 17 22 26
  21102352.498   -18954109.065 9 -14443143.80949  21102351.666    21102356.9004
  20879588.700   -26314433.540 9 -20489031.17949  20879588.272    20879592.9584
  24052007.067    -9043214.479 9  -6450127.15949  24052006.512    24052013.8354
  20752687.286   -26586181.780 9 -20128568.87049  20752686.544    20752691.9334
  23337420.372   -10649466.309 9  -8274291.29949  23337419.830    23337425.7734
  21656507.932   -19004291.161 9 -14785772.93549  21656508.011    21656512.5224
 99  4 22  0 41 30.0000000  0  6 23 06 21 17 22 26
  21094402.661   -18995885.525 9 -14475696.87349  21094402.069    21094407.0554
  20890763.864   -26255707.630 9 -20443270.75549  20890763.485    20890768.7594
  24035604.370    -9129411.267 9  -6517293.38149  24035603.758    24035611.8364
  20748732.405   -26606964.898 9 -20144763.50749  20748731.472    20748736.7774
  23341149.461   -10629869.696 9  -8259021.21149  23341148.529    23341154.9434
  21655773.852   -19008149.095 9 -14788779.11649  21655773.910    21655778.9294
 99  4 22  0 42  0.0000000  0  6 23 06 21 17 22 26
  21086530.270   -19037255.143 9 -14507932.92249  21086529.519    21086534.7324
  20902031.483   -26196496.122 9 -20397131.96649  20902031.185    20902036.0684
  24019233.827    -9215438.497 9  -6584327.46949  24019233.261    24019240.5854
  20744811.516   -26627569.202 9 -20160818.81049  20744810.816    20744815.9484
  23344972.377   -10609780.341 9  -8243367.18449  23344970.373    23344977.7344
  21655154.204   -19011405.530 9 -14791316.59649  21655154.179    21655158.9544
 99  4 22  0 42 30.0000000  0  6 23 06 21 17 22 26
  21078737.243   -19078207.650 9 -14539843.94649  21078736.594    21078741.7604
  20913390.427   -26136804.620 9 -20350619.14849  20913390.111    20913395.0294
  24002899.499    -9301275.969 9  -6651213.69449  24002898.679    24002906.5804
  20740923.702   -26647999.587 9 -20176738.59149  20740922.868    20740928.1794
  23348887.766   -10589204.709 9  -8227334.23649  23348887.072    23348892.5154
  21654652.412   -19014042.687 9 -14793371.50949  21654652.566    21654656.8694
 99  4 22  0 43  0.0000000  0  6 23 06 21 17 22 26
  21071023.535   -19118743.530 9 -14571430.33049  21071022.934    21071028.0014
  20924838.003   -26076647.271 9 -20303743.32849  20924837.656    20924842.7814
  23986598.797    -9386936.702 9  -6717962.21249  23986598.423    23986605.3034
  20737069.500   -26668253.409 9 -20192520.79049  20737068.736    20737074.2364
  23352895.036   -10568146.634 9  -8210925.37649  23352893.978    23352901.0914
  21654270.909   -19016047.490 9 -14794933.69149  21654270.690    21654275.1544
 99  4 22  0 43 30.0000000  0  6 23 06 21 17 22 26
  21063386.206   -19158877.948 9 -14602703.88349  21063385.692    21063390.5214
  20936373.479   -26016027.995 9 -20256507.56549  20936373.370    20936378.3094
  23970330.898    -9472424.884 9  -6784576.27249  23970330.216    23970337.8924
  20733249.633   -26688327.055 9 -20208162.59149  20733248.930    20733254.0154
  23356992.539   -10546614.239 9  -8194146.90649  23356990.732    23356998.0594
  21654008.994   -19017423.745 9 -14796006.08849  21654008.852    21654014.0394
 99  4 22  0 44  0.0000000  0  6 23 06 21 17 22 26
  21055823.602   -19198619.645 9 -14633671.42249  21055823.097    21055828.0724
  20947996.194   -25954950.386 9 -20208914.65349  20947995.994    20948000.8904
  23954098.731    -9557724.949 9  -6851043.73749  23954096.844    23954105.4564
  20729465.610   -26708212.416 9 -20223657.68149  20729464.890    20729469.9844
  23361177.673   -10524621.568 9  -8177009.79749  23361177.633    23361183.0434
  21653866.030   -19018174.821 9 -14796591.34049  21653865.821    21653870.7714
 99  4 22  0 44 30.0000000  0  6 23 06 21 17 22 26
  21048331.422   -19237991.438 9 -14664350.72449  21048330.864    21048335.7544
  20959703.301   -25893429.284 9 -20160976.15549  20959702.860    20959707.9404
  23937900.750    -9642845.011 9  -6917370.95649  23937899.867    23937906.9194
  20725719.778   -26727897.084 9 -20238996.37849  20725718.953    20725724.2854
  23365448.475   -10502179.024 9  -8159522.10749  23365447.217    23365453.7634
  21653841.645   -19018302.924 9 -14796691.15449  21653841.927    21653846.8244
 99  4 22  0 45  0.0000000  0  6 23 06 21 17 22 26
  21040910.430   -19276989.276 9 -14694738.63049  21040909.681    21040914.8104
  20971497.661   -25831449.731 9 -20112680.42249  20971497.384    20971502.6274
  23921735.461    -9727792.952 9  -6983564.04349  23921734.458    23921742.5554
  20722014.836   -26747366.754 9 -20254167.54549  20722013.848    20722019.2984
  23369806.040   -10479279.793 9  -8141678.57349  23369804.701    23369810.9214
  21653932.056   -19017828.115 9 -14796321.16749  21653932.165    21653936.9434
 99  4 22  0 45 30.0000000  0  6 23 06 21 17 22 26
  21033561.527   -19315607.718 9 -14724830.91149  21033560.749    21033565.8674
  20983383.102   -25768991.424 9 -20064011.65549  20983382.746    20983387.8654
  23905607.488    -9812545.906 9  -7049605.20549  23905606.793    23905613.7774
  20718353.875   -26766605.214 9 -20269158.55649  20718353.143    20718358.3174
  23374251.429   -10455918.567 9  -8123475.05849  23374250.293    23374257.0064
  21654136.143   -19016755.578 9 -14795485.42349  21654136.024    21654141.5444
 99  4 22  0 46  0.0000000  0  6 23 06 21 17 22 26
  21026290.223   -19353818.315 9 -14754605.38849  21026289.433    21026294.5444
  20995359.422   -25706055.602 9 -20014970.80249  20995359.065    20995364.2874
  23889517.588    -9897098.581 9  -7115490.29549  23889515.882    23889523.7454
  20714738.853   -26785602.310 9 -20283961.48649  20714737.945    20714743.1874
  23378788.324   -10432077.471 9  -8104897.61449  23378787.532    23378793.9754
  21654456.194   -19015073.548 9 -14794174.74649  21654456.442    21654461.2064
 99  4 22  0 46 30.0000000  0  6 23 06 21 17 22 26
  21019100.350   -19391601.387 9 -14784046.72649  21019099.690    21019104.6944
  21007426.789   -25642641.160 9 -19965556.99549  21007426.371    21007431.6614
  23873464.160    -9981459.587 9  -7181226.02449  23873464.095    23873471.4544
  20711171.889   -26804346.807 9 -20298567.58449  20711171.075    20711176.3224
  23383420.726   -10407734.505 9  -8085929.10949  23383419.745    23383425.2824
  21654893.452   -19012775.781 9 -14792384.27349  21654893.329    21654898.4714
 99  4 22  0 47  0.0000000  0  6 23 06 21 17 22 26
  21011994.732   -19428941.622 9 -14813143.00349  21011993.949    21011999.1914
  21019586.699   -25578740.301 9 -19915764.14449  21019586.313    21019591.3524
  23857450.159   -10065613.772 9  -7246800.61649  23857449.242    23857456.3874
  20707654.413   -26822831.385 9 -20312971.14849  20707653.670    20707658.7974
  23388150.314   -10382880.692 9  -8066562.52749  23388149.241    23388156.2524
  21655451.122   -19009845.146 9 -14790100.66649  21655451.243    21655456.3104
 99  4 22  0 47 30.0000000  0  6 23 06 21 17 22 26
  21004971.616   -19465848.135 9 -14841901.31049  21004970.981    21004976.0004
  21031835.626   -25514372.055 9 -19865607.10049  21031835.173    21031840.6744
  23841476.973   -10149553.216 9  -7312207.87249  23841476.779    23841483.5714
  20704182.275   -26841077.488 9 -20327188.88749  20704181.264    20704186.5674
  23392975.385   -10357524.455 9  -8046804.45049  23392974.311    23392980.8774
  21656131.598   -19006269.308 9 -14787314.29549  21656131.592    21656136.6844
 99  4 22  0 48  0.0000000  0  6 23 06 21 17 22 26
  20998029.403   -19502329.648 9 -14870328.45149  20998028.597    20998033.8304
  21044169.638   -25449556.055 9 -19815101.15249  21044169.055    21044174.4724
  23825541.835   -10233292.427 9  -7377459.10049  23825540.082    23825547.3494
  20700753.341   -26859096.543 9 -20341229.70549  20700752.537    20700757.8804
  23397895.672   -10331668.250 9  -8026656.78149  23397894.715    23397900.1004
  21656934.507   -19002049.780 9 -14784026.35349  21656934.346    21656939.4464
 99  4 22  0 48 30.0000000  0  6 23 06 21 17 22 26
  20991164.108   -19538407.032 9 -14898440.68849  20991163.380    20991168.4274
  21056588.144   -25384296.486 9 -19764249.56549  21056587.868    21056592.8234
  23809645.130   -10316829.832 9  -7442553.09049  23809644.006    23809650.9384
  20697366.209   -26876896.220 9 -20355099.57949  20697365.362    20697370.5314
  23402905.591   -10305341.229 9  -8006142.24649  23402904.906    23402910.5064
  21657856.515   -18997204.579 9 -14780250.86949  21657855.758    21657861.1234
 99  4 22  0 49  0.0000000  0  6 23 06 21 17 22 26
  20984373.970   -19574089.043 9 -14926244.83849  20984373.051    20984378.5144
  21069090.112   -25318598.273 9 -19713056.18049  21069089.723    21069094.7924
  23793789.253   -10400152.303 9  -7507479.59949  23793788.163    23793796.0014
  20694019.435   -26894483.676 9 -20368804.08449  20694018.659    20694023.8504
  23408001.598   -10278561.577 9  -7985275.01649  23407999.729    23408006.7024
  21658898.127   -18991730.657 9 -14775985.47149  21658897.417    21658902.9984
 99  4 22  0 49 30.0000000  0  6 23 06 21 17 22 26
  20977659.206   -19609375.184 9 -14953740.52349  20977658.449    20977663.6454
  21081675.058   -25252464.120 9 -19661523.10549  21081674.980    21081680.2444
  23777972.611   -10483268.800 9  -7572245.58449  23777971.293    23777978.8404
  20690711.720   -26911865.891 9 -20382348.66449  20690710.749    20690716.1674
  23413183.028   -10251332.854 9  -7964057.85249  23413181.462    23413188.4714
  21660056.455   -18985643.302 9 -14771242.07849  21660055.995    21660061.6224
 99  4 22  0 50  0.0000000  0  6 23 06 21 17 22 26
  20971019.075   -19644269.211 9 -14980930.66449  20971018.496    20971023.3474
  21094344.240   -25185887.380 9 -19609645.15849  21094344.209    21094349.2914
  23762196.111   -10566174.291 9  -7636847.17149  23762195.045    23762203.0794
  20687444.048   -26929037.294 9 -20395728.97549  20687443.251    20687448.3694
  23418450.586   -10223651.781 9  -7942488.20349  23418448.935    23418456.2064
  21661331.586   -18978942.766 9 -14766020.88149  21661331.432    21661336.7674
 99  4 22  0 50 30.0000000  0  6 23 06 21 17 22 26
  20964454.587   -19678765.984 9 -15007811.25449  20964453.881    20964459.0364
  21107098.665   -25118862.698 9 -19557418.16149  21107098.340    21107103.6624
  23746459.655   -10648869.910 9  -7701285.22549  23746458.909    23746465.4954
  20684214.211   -26946010.192 9 -20408954.60549  20684213.437    20684218.5784
  23423801.499   -10195532.798 9  -7920577.31849  23423800.530    23423806.0974
  21662724.446   -18971623.547 9 -14760317.58949  21662724.208    21662729.2954
 99  4 22  0 51  0.0000000  0  6 23 06 21 17 22 26
  20957965.573   -19712866.001 9 -15034382.68649  20957964.843    20957970.0784
  21119939.339   -25051384.609 9 -19504837.87049  21119938.811    21119943.8934
  23730760.692   -10731367.795 9  -7765569.19149  23730759.677    23730767.0524
  20681019.529   -26962798.358 9 -20422036.29049  20681018.879    20681023.9784
  23429239.036   -10166958.795 9  -7898311.88449  23429238.556    23429244.8984
  21664236.223   -18963679.306 9 -14754127.27049  21664236.451    21664241.2224
 99  4 22  0 51 30.0000000  0  6 23 06 21 17 22 26
  20951551.125   -19746574.341 9 -15060648.91749  20951550.453    20951555.5134
  21132866.388   -24983452.613 9 -19451903.88549  21132866.101    21132871.3644
  23715097.185   -10813679.823 9  -7829708.34849  23715096.241    23715103.3504
  20677858.087   -26979412.091 9 -20434982.05449  20677857.087    20677862.4914
  23434764.297   -10137923.326 9  -7875686.87049  23434763.371    23434769.1194
  21665865.163   -18955119.076 9 -14747456.97049  21665864.744    21665869.9404
 99  4 22  0 52  0.0000000  0  6 23 06 21 17 22 26
  20945210.100   -19779896.597 9 -15086614.30049  20945209.303    20945214.4514
  21145877.482   -24915078.984 9 -19398625.78049  21145877.304    21145882.3854
  23699466.453   -10895819.363 9  -7893713.09649  23699465.362    23699472.4414
  20674729.612   -26995852.079 9 -20447792.43449  20674728.723    20674733.9174
  23440375.842   -10108434.369 9  -7852708.48049  23440374.976    23440380.6694
  21667611.379   -18945942.280 9 -14740306.22149  21667611.365    21667616.3064
 99  4 22  0 52 30.0000000  0  6 23 06 21 17 22 26
  20938944.505   -19812822.284 9 -15112270.66949  20938943.821    20938948.8984
  21158973.357   -24846259.944 9 -19345000.60649  21158973.228    21158978.2974
  23683866.086   -10977799.678 9  -7957593.78349  23683864.552    23683871.3084
  20671636.910   -27012104.311 9 -20460456.51049  20671636.184    20671641.5294
  23446075.175   -10078484.400 9  -7829370.86249  23446074.001    23446080.3724
  21669475.308   -18936147.308 9 -14732673.77849  21669475.294    21669480.3944
 99  4 22  0 53  0.0000000  0  6 23 06 21 17 22 26
  20932753.018   -19845358.927 9 -15137623.88649  20932752.267    20932757.3924
  21172153.591   -24776997.776 9 -19291030.11549  21172153.453    21172158.7124
  23668298.485   -11059607.805 9  -8021340.29149  23668297.139    23668304.6214
  20668583.360   -27028150.938 9 -20472960.37649  20668582.528    20668587.8384
  23451863.812   -10048064.883 9  -7805667.36649  23451863.353    23451869.1224
  21671455.617   -18925740.887 9 -14724564.88449  21671456.023    21671460.4864
 99  4 22  0 53 30.0000000  0  6 23 06 21 17 22 26
  20926635.494   -19877506.663 9 -15162674.05749  20926634.792    20926640.0794
  21185414.833   -24707309.758 9 -19236727.79549  21185414.473    21185419.4154
  23652765.790   -11141232.113 9  -8084943.55449  23652765.611    23652772.4974
  20665574.932   -27043960.261 9 -20485279.32849  20665574.231    20665579.4124
  23457737.895   -10017196.500 9  -7781614.10949  23457736.287    23457743.1754
  21673552.958   -18914719.499 9 -14715976.79349  21673552.742    21673557.8764
 99  4 22  0 54  0.0000000  0  6 23 06 21 17 22 26
  20920592.964   -19909260.236 9 -15187417.08649  20920592.385    20920597.4434
  21198757.811   -24637191.847 9 -19182090.50649  21198757.875    21198762.7564
  23637270.181   -11222661.653 9  -8148395.06349  23637268.739    23637276.5684
  20662615.675   -27059511.260 9 -20497396.98849  20662614.799    20662620.1834
  23463695.251    -9985890.445 9  -7757219.79449  23463694.003    23463700.4464
  21675769.161   -18903073.196 9 -14706901.75449  21675768.658    21675774.2784
 99  4 22  0 54 30.0000000  0  6 23 06 21 17 22 26
  20914624.669   -19940623.897 9 -15211856.29049  20914623.907    20914629.0934
  21212184.951   -24566632.095 9 -19127108.91349  21212184.710    21212189.6174
  23621817.542   -11303865.117 9  -8211670.41849  23621816.627    23621824.0314
  20659706.847   -27074797.249 9 -20509308.14449  20659706.153    20659711.4774
  23469736.204    -9954145.114 9  -7732483.20549  23469735.480    23469740.7484
  21678104.060   -18890803.256 9 -14697340.76149  21678104.041    21678108.7514
 99  4 22  0 55  0.0000000  0  6 23 06 21 17 22 26
  20908727.864   -19971611.731 9 -15236002.64349  20908727.199    20908732.2604
  21225691.932   -24495652.720 9 -19071800.34549  21225691.350    21225696.5394
  23606410.061   -11384831.774 9  -8274761.24949  23606409.423    23606416.2044
  20656847.428   -27089823.758 9 -20521017.11049  20656846.553    20656851.8404
  23475856.429    -9921983.310 9  -7707422.07749  23475855.294    23475861.2984
  21680557.736   -18877908.874 9 -14687293.19249  21680557.572    21680562.7394
 99  4 22  0 55 30.0000000  0  6 23 06 21 17 22 26
  20902902.609   -20002223.706 9 -15259856.12149  20902902.082    20902907.1394
  21239277.181   -24424261.702 9 -19016171.02249  21239276.985    21239282.0814
  23591045.944   -11465570.810 9  -8337674.71849  23591046.169    23591052.3714
  20654033.015   -27104613.569 9 -20532541.64449  20654032.341    20654037.5654
  23482056.002    -9889404.664 9  -7682036.13949  23482055.811    23482062.0664
  21683129.478   -18864393.907 9 -14676762.04949  21683129.372    21683134.8604
 99  4 22  0 56  0.0000000  0  7 03 23 06 21 17 22 26
  24630905.505    -5056137.551 9  -3910657.19149  24630905.419    24630911.7904
  20897149.329   -20032457.520 9 -15283414.92449  20897148.585    20897153.6844
  21252942.999   -24352447.589 9 -18960212.00649  21252942.904    21252947.9394
  23575725.664   -11546079.102 9  -8400408.37449  23575725.695    23575732.4094
  20651257.654   -27119198.231 9 -20543906.31449  20651256.952    20651262.1554
  23488336.744    -9856399.477 9  -7656317.83849  23488335.714    23488341.1764
  21685817.995   -18850265.807 9 -14665753.14849  21685817.611    21685823.5914
 99  4 22  0 56 30.0000000  0  7 03 23 06 21 17 22 26
  24611124.843    -5160085.641 9  -3991655.62149  24611124.393    24611130.9214
  20891468.162   -20062312.431 9 -15306678.47849  20891467.548    20891472.4574
  21266687.513   -24280219.764 9 -18903930.61549  21266687.309    21266692.3524
  23560448.418   -11626361.725 9  -8462966.18049  23560447.701    23560454.4054
  20648519.263   -27133588.701 9 -20555119.66649  20648518.468    20648523.7054
  23494699.790    -9822961.144 9  -7630262.03149  23494698.629    23494705.5714
  21688624.092   -18835519.683 9 -14654262.65449  21688624.238    21688629.2444
 99  4 22  0 57  0.0000000  0  7 03 23 06 21 17 22 26
  24591360.799    -5263946.555 9  -4072586.15549  24591360.605    24591366.7974
  20885860.985   -20091778.308 9 -15329638.88949  20885860.260    20885865.3344
  21280509.322   -24207585.933 9 -18847332.87449  21280509.090    21280514.2504
  23545207.223   -11706454.404 9  -8525375.97749  23545206.643    23545213.3324
  20645816.479   -27147792.047 9 -20566187.20949  20645815.629    20645820.7284
  23501142.776    -9789103.319 9  -7603879.31549  23501141.528    23501147.9704
  21691548.269   -18820153.380 9 -14642288.91749  21691548.204    21691552.9914
 99  4 22  0 57 30.0000000  0  7 03 23 06 21 17 22 26
  24571615.378    -5367709.983 9  -4153440.71449  24571614.865    24571621.6904
  20880331.173   -20120837.461 9 -15352282.37249  20880330.378    20880335.6904
  21294412.458   -24134524.227 9 -18790401.71849  21294412.025    21294417.2404
  23530001.436   -11786361.032 9  -8587640.80349  23529999.910    23530007.5214
  20643148.768   -27161811.006 9 -20577111.07249  20643147.926    20643153.1554
  23507667.233    -9754817.137 9  -7577162.83949  23507666.421    23507672.9284
  21694588.531   -18804176.896 9 -14629839.70849  21694588.099    21694593.1174
 99  4 22  0 58  0.0000000  0  7 03 23 06 21 17 22 26
  24551889.485    -5471370.972 9  -4234215.44849  24551889.001    24551896.0754
  20874879.849   -20149484.340 9 -15374604.60149  20874879.162    20874884.3024
  21308397.536   -24061032.391 9 -18733135.39649  21308397.313    21308402.3544
  23514830.002   -11866087.221 9  -8649765.02949  23514829.542    23514836.2714
  20640521.327   -27175618.308 9 -20587870.00549  20640520.455    20640525.6694
  23514272.933    -9720104.050 9  -7550113.72449  23514272.048    23514278.5024
  21697745.857   -18787584.734 9 -14616910.75449  21697745.753    21697750.4194
 99  4 22  0 58 30.0000000  0  7 03 23 06 21 17 22 26
  24532188.802    -5574898.922 9  -4314886.51349  24532188.499    24532194.4944
  20869510.758   -20177699.113 9 -15396590.12549  20869509.999    20869515.0604
  21322466.139   -23987101.758 9 -18675527.15249  21322465.884    21322471.1734
  23499693.504   -11945629.662 9  -8711746.05949  23499692.631    23499700.2644
  20637940.785   -27189179.025 9 -20598436.79549  20637940.051    20637945.2614
  23520961.875    -9684953.312 9  -7522723.57149  23520960.568    23520966.6704
  21701025.053   -18770352.753 9 -14603483.23549  21701025.213    21701030.1504
 99  4 22  0 59  0.0000000  0  7 03 23 06 21 17 22 26
  24512518.550    -5678266.363 9  -4395432.52049  24512517.647    24512524.8424
  20864224.282   -20205479.654 9 -15418237.28949  20864223.579    20864228.6184
  21336621.262   -23912716.470 9 -18617564.63749  21336621.065    21336626.2424
  23484595.038   -12024972.021 9  -8773571.19349  23484594.484    23484601.7984
  20635408.362   -27202487.104 9 -20608806.72849  20635407.405    20635412.6894
  23527735.571    -9649356.753 9  -7494986.03049  23527734.288    23527741.0724
  21704424.791   -18752486.926 9 -14589561.81849  21704424.590    21704429.4564
 99  4 22  0 59 30.0000000  0  7 03 23 06 21 17 22 26
  24492880.397    -5781464.918 9  -4475846.94049  24492880.252    24492886.4374
  20859017.308   -20232842.334 9 -15439558.84649  20859016.753    20859021.5474
  21350861.845   -23837881.800 9 -18559251.93949  21350861.926    21350866.8914
  23469537.816   -12104098.062 9  -8835227.77049  23469536.868    23469543.9354
  20632924.367   -27215540.406 9 -20618978.13049  20632923.534    20632928.7784
  23534596.857    -9613300.375 9  -7466890.17749  23534595.219    23534601.7434
  21707942.443   -18734001.543 9 -14575157.62549  21707942.414    21707946.9464
 99  4 22  1  0  0.0000000  0  7 03 23 06 21 17 22 26
  24473271.277    -5884511.715 9  -4556143.08949  24473270.318    24473276.7714
  20853885.420   -20259810.756 9 -15460573.19149  20853884.726    20853889.7084
  21365185.597   -23762610.405 9 -18500598.93549  21365185.560    21365190.3134
  23454521.656   -12183008.035 9  -8896715.98849  23454520.803    23454527.0824
  20630488.350   -27228341.624 9 -20628953.10949  20630487.571    20630492.6224
  23541544.783    -9576789.198 9  -7438439.95449  23541544.168    23541550.0764
  21711578.127   -18714895.935 9 -14560270.14549  21711577.698    21711582.9654
 99  4 22  1  0 30.0000000  0  7 03 23 06 21 17 22 26
  24453688.410    -5987420.384 9  -4636331.63949  24453687.424    24453696.0164
  20848825.161   -20286402.571 9 -15481294.07249  20848824.439    20848829.4754
  21379591.457   -23686906.953 9 -18441609.27349  21379591.067    21379596.5054
  23439545.416   -12261708.470 9  -8958040.93249  23439544.581    23439551.3454
  20628096.273   -27240912.077 9 -20638748.26449  20628095.587    20628100.6814
  23548574.702    -9539846.521 9  -7409653.49149  23548574.181    23548579.4984
  21715329.508   -18695182.010 9 -14544908.65149  21715329.330    21715334.4494
 99  4 22  1  1  0.0000000  0  7 03 23 06 21 17 22 26
  24434125.965    -6090221.942 9  -4716436.69049  24434125.367    24434131.8754
  20843835.192   -20312624.882 9 -15501727.03049  20843834.574    20843839.4514
  21394078.721   -23610776.150 9 -18382286.61749  21394078.478    21394083.4224
  23424609.807   -12340195.100 9  -9019199.26449  23424609.101    23424616.7054
  20625747.732   -27253253.729 9 -20648365.13849  20625746.803    20625752.1844
  23555686.092    -9502476.505 9  -7380534.02949  23555684.629    23555692.0724
  21719193.789   -18674875.048 9 -14529085.04749  21719193.265    21719198.4114
 99  4 22  1  1 30.0000000  0  7 03 23 06 21 17 22 26
  24414580.829    -6192932.162 9  -4796470.58649  24414579.738    24414586.7454
  20838916.324   -20338473.705 9 -15521868.95649  20838915.489    20838920.4394
  21408645.832   -23534225.541 9 -18322636.83649  21408645.843    21408650.6364
  23409715.415   -12418465.213 9  -9080188.89249  23409714.242    23409721.5124
  20623443.040   -27265364.900 9 -20657802.40949  20623442.388    20623447.6124
  23562876.387    -9464691.090 9  -7351090.88649  23562875.900    23562882.3774
  21723174.065   -18653958.301 9 -14512786.28249  21723173.700    21723179.0464
 99  4 22  1  2  0.0000000  0  7 03 23 06 21 17 22 26
  24395053.573    -6295548.805 9  -4876431.52249  24395052.816    24395059.0634
  20834070.941   -20363936.308 9 -15541709.93449  20834070.153    20834075.1594
  21423292.641   -23457255.981 9 -18262660.59549  21423292.473    21423297.8324
  23394861.772   -12496521.576 9  -9141011.95949  23394861.085    23394867.3244
  20621180.011   -27277257.246 9 -20667069.17449  20621179.015    20621184.5354
  23570143.303    -9426503.021 9  -7321333.99249  23570142.150    23570148.9024
  21727273.684   -18632414.604 9 -14495998.99149  21727273.512    21727278.8684
 99  4 22  1  2 30.0000000  0  7 03 23 06 21 17 22 26
  24375544.842    -6398067.668 9  -4956316.32049  24375543.972    24375550.5674
  20829299.373   -20389011.003 9 -15561248.64749  20829298.747    20829303.6924
  21438017.889   -23379874.629 9 -18202363.47749  21438017.499    21438023.0314
  23380049.503   -12574360.419 9  -9201665.52849  23380049.389    23380055.7674
  20618957.658   -27288935.703 9 -20676169.26949  20618956.863    20618961.9434
  23577486.627    -9387914.060 9  -7291264.71949  23577486.316    23577492.6804
  21731492.252   -18610246.225 9 -14478724.93149  21731491.891    21731497.4764
 99  4 22  1  3  0.0000000  0  7 03 23 06 21 17 22 26
  24356056.572    -6500478.492 9  -5036116.89449  24356055.873    24356062.5034
  20824602.449   -20413693.538 9 -15580481.78249  20824601.478    20824606.7974
  21452819.860   -23302089.819 9 -18141751.97949  21452819.542    21452824.9674
  23365281.531   -12651966.174 9  -9262137.46849  23365280.893    23365287.5714
  20616774.120   -27300410.424 9 -20685110.61149  20616773.355    20616778.6474
  23584908.100    -9348914.123 9  -7260875.19049  23584907.918    23584913.8764
  21735828.559   -18587458.758 9 -14460968.46849  21735828.479    21735833.2424
 99  4 22  1  3 30.0000000  0  7 03 23 06 21 17 22 26
  24336594.044    -6602753.843 9  -5115811.90249  24336593.257    24336599.7434
  20819977.173   -20437999.591 9 -15599421.54849  20819976.310    20819981.3714
  21467696.886   -23223910.559 9 -18080833.11549  21467696.443    21467702.2064
  23350556.248   -12729348.453 9  -9322435.28149  23350555.447    23350562.0874
  20614626.672   -27311695.388 9 -20693904.08449  20614625.732    20614631.0184
  23592406.528    -9309509.773 9  -7230170.53549  23592405.158    23592411.8664
  21740282.284   -18564054.335 9 -14442731.25549  21740282.436    21740287.1894
 99  4 22  1  4  0.0000000  0  7 03 23 06 21 17 22 26
  24317160.144    -6704879.789 9  -5195390.49849  24317159.691    24317165.7904
  20815421.240   -20461941.144 9 -15618077.29549  20815420.484    20815425.4474
  21482644.949   -23145358.263 9 -18019623.57049  21482644.814    21482650.1034
  23335870.773   -12806521.076 9  -9382569.71549  23335869.933    23335876.8694
  20612516.016   -27322786.937 9 -20702546.85049  20612515.193    20612520.2794
  23599980.659    -9269708.266 9  -7199156.41249  23599980.074    23599986.1684
  21744848.213   -18540060.433 9 -14424034.71249  21744848.125    21744852.8944
 99  4 22  1  4 30.0000000  0  7 03 23 06 21 17 22 26
  24297755.878    -6806849.999 9  -5274847.74949  24297755.414    24297761.8714
  20810933.034   -20485526.683 9 -15636455.62649  20810932.231    20810937.2644
  21497662.371   -23066441.407 9 -17958129.97549  21497662.108    21497667.6234
  23321226.414   -12883477.150 9  -9442535.41349  23321225.072    23321232.2704
  20610446.352   -27333663.065 9 -20711021.75449  20610445.545    20610450.5864
  23607629.348    -9229514.675 9  -7167836.77149  23607628.589    23607634.6654
  21749524.810   -18515484.486 9 -14404884.63049  21749524.767    21749530.1524
 99  4 22  1  5  0.0000000  0  7 03 23 06 21 17 22 26
  24278382.914    -6908655.280 9  -5354176.45849  24278382.166    24278388.8324
  20806514.599   -20508745.650 9 -15654548.32149  20806513.830    20806518.8404
  21512748.148   -22987165.403 9 -17896356.52549  21512747.875    21512753.4734
  23306621.909   -12960223.784 9  -9502337.92049  23306621.462    23306628.7124
  20608420.676   -27344308.068 9 -20719316.56249  20608419.848    20608425.1644
  23615352.115    -9188931.353 9  -7136213.42649  23615350.973    23615357.3704
  21754312.753   -18490323.967 9 -14385279.03849  21754312.303    21754317.5374
 99  4 22  1  5 30.0000000  0  7 03 23 06 21 17 22 26
  24259042.395    -7010290.067 9  -5433372.32549  24259041.535    24259048.4664
  20802167.819   -20531588.177 9 -15672347.68149  20802167.079    20802172.0944
  21527902.355   -22907529.718 9 -17834302.78049  21527902.084    21527907.3894
  23292054.971   -13036773.091 9  -9561986.65149  23292054.096    23292060.4724
  20606443.444   -27354698.602 9 -20727413.08249  20606442.687    20606447.9774
  23623149.894    -9147953.707 9  -7104282.83849  23623149.204    23623156.1764
  21759215.444   -18464559.977 9 -14365203.19649  21759215.319    21759220.4734
 99  4 22  1  6  0.0000000  0  7 03 23 06 21 17 22 26
  24239733.703    -7111757.418 9  -5512437.72749  24239732.862    24239740.0394
  20797896.855   -20554032.117 9 -15689836.45649  20797896.176    20797901.1044
  21543127.547   -22827520.981 9 -17771958.34949  21543127.343    21543132.7964
  23277527.773   -13113113.862 9  -9621472.89949  23277526.873    23277534.2534
  20604517.589   -27364819.308 9 -20735299.34549  20604516.850    20604522.0324
  23631022.401    -9106583.309 9  -7072046.20049  23631021.544    23631028.7404
  21764235.879   -18438177.415 9 -14344645.36549  21764235.763    21764241.2944
 99  4 22  1  6 30.0000000  0  7 03 23 06 21 17 22 26
  24220455.259    -7213065.479 9  -5591379.01049  24220455.068    24220460.6994
  20793700.089   -20576086.272 9 -15707021.50249  20793699.351    20793704.3554
  21558426.207   -22747126.194 9 -17709313.10149  21558426.142    21558431.2814
  23263038.544   -13189255.245 9  -9680803.77349  23263037.184    23263045.3244
  20602640.419   -27374683.911 9 -20742986.04849  20602639.489    20602644.8124
  23638968.416    -9064826.834 9  -7039508.71449  23638966.914    23638974.4624
  21769375.001   -18411171.356 9 -14323601.68449  21769374.955    21769379.7234
 99  4 22  1  7  0.0000000  0  7 03 23 06 21 17 22 26
  24201210.901    -7314194.929 9  -5670181.12949  24201209.921    24201216.8574
  20789582.045   -20597726.624 9 -15723884.10549  20789581.252    20789586.2074
  21573804.559   -22666312.480 9 -17646341.40849  21573804.296    21573809.7984
  23248589.609   -13265184.486 9  -9739969.34149  23248589.197    23248594.7124
  20600811.974   -27384292.326 9 -20750473.12349  20600811.025    20600816.3594
  23646990.168    -9022672.138 9  -7006660.94149  23646989.360    23646995.7844
  21774637.256   -18383518.219 9 -14302053.78149  21774637.122    21774642.6704
 99  4 22  1  7 30.0000000  0  7 03 23 06 21 17 22 26
  24181999.409    -7415151.711 9  -5748848.71549  24181998.501    24182005.3664
  20785540.673   -20618964.052 9 -15740432.74449  20785539.840    20785544.9104
  21589264.920   -22585067.736 9 -17583033.85849  21589264.623    21589269.9144
  23234184.432   -13340884.048 9  -9798955.94649  23234183.839    23234191.0234
  20599030.703   -27393652.922 9 -20757767.09749  20599029.838    20599034.9104
  23655085.477    -8980131.227 9  -6973512.21249  23655083.876    23655090.8494
  21780024.244   -18355209.422 9 -14279994.98949  21780024.363    21780029.0064
 99  4 22  1  8  0.0000000  0  7 03 23 06 21 17 22 26
  24162814.167    -7515970.367 9  -5827408.67349  24162813.462    24162819.9024
  20781569.725   -20639831.608 9 -15756693.16949  20781568.969    20781573.8984
  21604803.377   -22503412.641 9 -17519406.55949  21604803.106    21604808.4724
  23219821.471   -13416361.666 9  -9857769.60549  23219821.112    23219826.6284
  20597291.631   -27402791.767 9 -20764888.27149  20597290.862    20597296.1464
  23663248.516    -8937234.272 9  -6940086.05449  23663247.585    23663254.2444
  21785528.023   -18326286.930 9 -14257457.98849  21785527.533    21785532.6614
 99  4 22  1  8 30.0000000  0  7 03 23 06 21 17 22 26
  24143653.733    -7616658.766 9  -5905867.12849  24143652.437    24143660.3764
  20777668.861   -20660330.532 9 -15772666.34649  20777668.190    20777673.1054
  21620418.082   -22421356.949 9 -17455467.10049  21620417.736    21620423.6064
  23205501.575   -13491612.609 9  -9916406.65349  23205500.147    23205507.7824
  20595592.416   -27411721.238 9 -20771846.29949  20595591.579    20595597.0164
  23671479.903    -8893978.215 9  -6906380.07249  23671479.316    23671485.5264
  21791146.238   -18296762.804 9 -14234452.18249  21791145.824    21791151.0604
 99  4 22  1  9  0.0000000  0  7 03 23 06 21 17 22 26
  24124516.719    -7717224.214 9  -5984229.78749  24124515.905    24124522.6074
  20773839.329   -20680454.728 9 -15788347.53149  20773838.791    20773843.6904
  21636107.203   -22338910.207 9 -17391222.93449  21636107.105    21636112.3254
  23191226.198   -13566629.732 9  -9974861.48549  23191224.839    23191231.3604
  20593934.154   -27420435.266 9 -20778636.45149  20593933.277    20593938.4324
  23679779.319    -8850364.263 9  -6872395.22049  23679778.890    23679785.6314
  21796879.896   -18266632.267 9 -14210973.85249  21796879.924    21796884.9094
 99  4 22  1  9 30.0000000  0  7 03 23 06 21 17 22 26
  24105405.494    -7817653.973 9  -6062486.69249  24105405.395    24105411.6804
  20770082.103   -20700199.330 9 -15803732.92149  20770081.402    20770086.2244
  21651869.601   -22256078.299 9 -17326678.63749  21651869.443    21651874.9994
  23176996.406   -13641408.135 9 -10033130.29649  23176996.030    23177001.7764
  20592319.515   -27428920.302 9 -20785248.16249  20592318.654    20592323.9184
  23688149.954    -8806376.402 9  -6838119.00849  23688149.695    23688155.6244
  21802726.546   -18235907.585 9 -14187032.54549  21802726.147    21802731.8594
 99  4 22  1 10  0.0000000  0  7 03 23 06 21 17 22 26
  24086325.210    -7917921.254 9  -6140616.99149  24086323.815    24086331.8714
  20766402.030   -20719538.151 9 -15818802.12549  20766401.389    20766406.1684
  21667707.693   -22172848.880 9 -17261824.60349  21667707.268    21667712.8424
  23162809.923   -13715958.478 9 -10091221.41649  23162808.052    23162815.6554
  20590750.360   -27437166.426 9 -20791673.70949  20590749.541    20590754.9354
  23696596.003    -8761992.916 9  -6803534.51549  23696594.909    23696601.6674
  21808684.803   -18204596.867 9 -14162634.59649  21808684.702    21808689.5124
 99  4 22  1 10 30.0000000  0  7 03 23 06 21 17 22 26
  24067280.138    -8018003.261 9  -6218602.90449  24067279.229    24067286.1644
  20762801.385   -20738459.745 9 -15833546.21749  20762800.732    20762805.6544
  21683623.540   -22089210.495 9 -17196651.88549  21683623.160    21683628.4564
  23148666.460   -13790282.215 9 -10149135.95849  23148665.193    23148672.5314
  20589226.799   -27445172.903 9 -20797912.52349  20589225.995    20589231.2614
  23705117.986    -8717209.807 9  -6768638.63049  23705116.629    23705123.3134
  21814757.178   -18172686.310 9 -14137769.23949  21814757.178    21814761.9674
 99  4 22  1 11  0.0000000  0  7 03 23 06 21 17 22 26
  24048273.726    -8117882.833 9  -6296431.09149  24048272.867    24048279.7864
  20759278.214   -20756973.924 9 -15847972.83849  20759277.511    20759282.3964
  21699617.558   -22005161.762 9 -17131159.41649  21699617.148    21699623.0604
  23134565.069   -13864384.948 9 -10206878.28749  23134563.945    23134570.7044
  20587750.447   -27452931.278 9 -20803958.00649  20587749.548    20587754.7164
  23713718.144    -8672016.385 9  -6733423.01849  23713717.225    23713724.4744
  21820942.402   -18140182.710 9 -14112441.75949  21820941.986    21820946.9954
 99  4 22  1 11 30.0000000  0  7 03 23 06 21 17 22 26
  24029306.341    -8217556.936 9  -6374099.13849  24029306.018    24029311.5244
  20755832.741   -20775080.104 9 -15862081.54449  20755832.086    20755836.9864
  21715688.824   -21920706.562 9 -17065350.21849  21715688.452    21715694.3814
  23120506.431   -13938263.643 9 -10264446.03949  23120505.927    23120511.7164
  20586319.615   -27460450.162 9 -20809816.87449  20586318.818    20586323.9504
  23722398.676    -8626400.425 9  -6697878.15649  23722397.176    23722403.6594
  21827237.395   -18107102.161 9 -14086664.71649  21827237.058    21827242.7564
 99  4 22  1 12  0.0000000  0  7 03 23 06 21 17 22 26
  24010375.083    -8317041.110 9  -6451619.18049  24010374.873    24010380.9974
  20752463.619   -20792784.810 9 -15875877.41049  20752462.899    20752467.8884
  21731835.990   -21835852.835 9 -16999230.48249  21731835.423    21731841.1174
  23106491.735   -14011911.543 9 -10321833.94049  23106491.019    23106497.1844
  20584934.024   -27467731.402 9 -20815490.56549  20584933.207    20584938.4604
  23731157.298    -8580373.394 9  -6662012.99849  23731157.292    23731162.1144
  21833645.020   -18073430.001 9 -14060426.67049  21833645.152    21833649.8294
 99  4 22  1 12 30.0000000  0  7 03 23 06 21 17 22 26
  23991477.433    -8416348.672 9  -6529001.61249  23991476.526    23991482.6874
  20749165.739   -20810115.308 9 -15889381.68349  20749165.032    20749170.0534
  21748054.352   -21750625.141 9 -16932819.33549  21748053.836    21748059.5374
  23092523.491   -14085314.809 9 -10379031.21949  23092522.220    23092528.9714
  20583593.862   -27474774.027 9 -20820978.32049  20583593.195    20583598.2694
  23739992.793    -8533942.351 9  -6625833.00449  23739991.906    23739998.5434
  21840166.008   -18039162.223 9 -14033724.51349  21840165.548    21840171.1734
 99  4 22  1 13  0.0000000  0  7 03 23 06 21 17 22 26
  23972612.222    -8515485.856 9  -6606251.30049  23972611.366    23972617.1364
  20745935.994   -20827087.741 9 -15902606.94949  20745935.158    20745940.1244
  21764340.380   -21665041.462 9 -16866130.80249  21764339.761    21764345.6994
  23078600.504   -14158480.325 9 -10436043.26949  23078599.348    23078606.0834
  20582299.391   -27481576.731 9 -20826279.12549  20582298.511    20582303.8924
  23748902.788    -8487120.252 9  -6589348.28649  23748901.797    23748909.1414
  21846798.627   -18004307.302 9 -14006564.83849  21846798.456    21846803.5384
 99  4 22  1 13 30.0000000  0  7 03 23 06 21 17 22 26
  23953780.038    -8614449.235 9  -6683365.55049  23953779.424    23953786.4034
  20742773.786   -20843705.413 9 -15915555.77949  20742773.067    20742777.9864
  21780692.376   -21579111.359 9 -16799172.32149  21780691.851    21780697.9434
  23064722.309   -14231410.352 9 -10492871.80249  23064721.086    23064727.6754
  20581050.398   -27488140.127 9 -20831393.45749  20581049.636    20581054.8294
  23757880.814    -8439940.434 9  -6552584.82749  23757879.922    23757887.0644
  21853543.203   -17968864.626 9 -13978947.17149  21853543.637    21853548.4104
 99  4 22  1 14  0.0000000  0  7 03 23 06 21 17 22 26
  23934984.396    -8713220.780 9  -6760330.32049  23934983.696    23934990.0554
  20739677.989   -20859973.938 9 -15928232.54149  20739677.290    20739682.2344
  21797110.372   -21492834.236 9 -16731943.44149  21797110.015    21797115.8664
  23050887.626   -14304111.527 9 -10549522.01349  23050886.473    23050893.7624
  20579848.190   -27494457.922 9 -20836316.41149  20579847.558    20579852.7864
  23766922.687    -8392425.409 9  -6515560.16849  23766922.292    23766927.8314
  21860401.050   -17932826.629 9 -13950865.61749  21860401.089    21860406.5014
 99  4 22  1 14 30.0000000  0  7 03 23 06 21 17 22 26
  23916228.638    -8811783.013 9  -6837131.99749  23916228.200    23916234.2274
  20736647.552   -20875898.641 9 -15940641.39149  20736646.718    20736651.7474
  21813594.896   -21406207.958 9 -16664442.47749  21813594.703    21813600.1714
  23037093.608   -14376599.038 9 -10606005.73049  23037092.842    23037099.3174
  20578692.864   -27500529.139 9 -20841047.22249  20578692.038    20578697.3254
  23776026.091    -8344586.730 9  -6478283.31049  23776024.651    23776030.9124
  21867369.541   -17896207.017 9 -13922330.85749  21867369.555    21867375.1114
 99  4 22  1 15  0.0000000  0  7 03 23 06 21 17 22 26
  23897514.138    -8910128.750 9  -6913764.97149  23897513.476    23897519.2494
  20733685.728   -20891463.059 9 -15952769.50049  20733684.949    20733689.9094
  21830147.963   -21319221.301 9 -16596660.69649  21830147.923    21830153.4624
  23023338.297   -14448883.513 9 -10662331.23949  23023337.705    23023343.7874
  20577582.606   -27506363.536 9 -20845593.49949  20577581.697    20577586.7624
  23785187.940    -8296440.666 9  -6440766.92049  23785187.178    23785193.9144
  21874449.146   -17859003.885 9 -13893341.40049  21874448.914    21874453.9734
 99  4 22  1 15 30.0000000  0  7 03 23 06 21 17 22 26
  23878839.767    -9008262.729 9  -6990232.95749  23878839.284    23878845.2714
  20730793.884   -20906659.902 9 -15964611.19349  20730793.240    20730798.0714
  21846769.511   -21231874.632 9 -16528598.40749  21846769.226    21846774.8304
  23009623.816   -14520953.791 9 -10718489.85549  23009623.939    23009629.4494
  20576515.686   -27511970.223 9 -20849962.34549  20576514.855    20576520.1214
  23794409.281    -8247981.821 9  -6403006.81249  23794407.954    23794414.8574
  21881641.895   -17821205.504 9 -13863888.12349  21881641.715    21881646.8644
 99  4 22  1 16  0.0000000  0  7 03 23 06 21 17 22 26
  23860201.824    -9106205.661 9  -7066552.06949  23860200.797    23860206.9794
  20727970.543   -20921496.745 9 -15976172.35949  20727969.765    20727974.8434
  21863459.418   -21144168.859 9 -16460256.29149  21863459.482    21863464.9044
  22995948.348   -14592819.015 9 -10774488.68549  22995947.347    22995953.7354
  20575491.558   -27517352.017 9 -20854155.94849  20575490.734    20575496.1024
  23803692.867    -8199196.567 9  -6364992.35349  23803692.976    23803698.5344
  21888949.969   -17782801.051 9 -13833962.58349  21888950.025    21888955.0414
 99  4 22  1 16 30.0000000  0  7 03 23 06 21 17 22 26
  23841595.361    -9203982.984 9  -7142742.14249  23841594.058    23841600.8224
  20725213.590   -20935984.525 9 -15987461.53049  20725212.844    20725217.8084
  21880216.589   -21056109.551 9 -16391638.68949  21880216.202    21880222.1724
  22982312.335   -14664476.348 9 -10830325.52549  22982311.797    22982317.8454
  20574510.305   -27522508.353 9 -20858173.87049  20574509.453    20574514.6924
  23813037.982    -8150088.012 9  -6326725.96949  23813037.147    23813043.7074
  21896372.701   -17743794.284 9 -13803567.70049  21896372.077    21896377.7774
 99  4 22  1 17  0.0000000  0  7 03 23 06 21 17 22 26
  23823018.002    -9301607.776 9  -7218813.35049  23823016.879    23823023.2154
  20722522.185   -20950127.738 9 -15998482.20849  20722521.517    20722526.4604
  21897038.718   -20967709.087 9 -16322755.25149  21897038.366    21897043.7894
  22968717.665   -14735916.944 9 -10885993.48149  22968717.048    22968723.8824
  20573570.940   -27527444.683 9 -20862020.36149  20573570.054    20573575.3564
  23822446.216    -8100647.577 9  -6288200.99149  23822444.995    23822451.7294
  21903910.669   -17704181.814 9 -13772700.84449  21903909.879    21903915.6344
 99  4 22  1 17 30.0000000  0  7 03 23 06 21 17 22 26
  23804468.953    -9399083.446 9  -7294768.36949  23804467.940    23804474.4884
  20719895.184   -20963932.808 9 -16009239.39849  20719894.406    20719899.2954
  21913923.097   -20878981.231 9 -16253616.70949  21913922.947    21913928.3894
  22955165.065   -14807136.488 9 -10941489.17649  22955164.091    22955170.6914
  20572676.259   -27532146.160 9 -20865683.85049  20572675.413    20572680.5954
  23831919.341    -8050866.003 9  -6249410.18649  23831918.556    23831925.9534
  21911563.723   -17663964.711 9 -13741362.84949  21911563.160    21911568.6844
 99  4 22  1 18  0.0000000  0  7 03 23 06 21 17 22 26
  23785952.136    -9496389.451 9  -7370591.17349  23785950.779    23785957.5264
  20717334.212   -20977390.681 9 -16019726.04449  20717333.309    20717338.2734
  21930871.074   -20789918.911 9 -16184217.54149  21930870.424    21930876.5604
  22941653.392   -14878140.116 9 -10996816.63249  22941652.325    22941658.1424
  20571829.900   -27536593.709 9 -20869149.47049  20571829.099    20571834.2094
  23841456.936    -8000746.005 9  -6210355.65649  23841455.704    23841462.5794
  21919328.007   -17623163.356 9 -13709569.59049  21919328.055    21919333.2374
 99  4 22  1 18 30.0000000  0  7 03 23 06 21 17 22 26
  23767473.758    -9593493.800 9  -7446256.85549  23767473.520    23767479.7344
  20714842.041   -20990486.848 9 -16029930.84849  20714841.374    20714846.1434
  21947881.428   -20700528.698 9 -16114562.88349  21947880.948    21947886.8344
  22928185.317   -14948914.557 9 -11051965.49049  22928184.358    22928190.3054
  20571031.459   -27540789.633 9 -20872419.02349  20571030.812    20571035.8354
  23851058.212    -7950290.620 9  -6171039.79949  23851057.726    23851063.5454
  21927198.714   -17581802.554 9 -13677340.40849  21927198.806    21927203.5884
 99  4 22  1 19  0.0000000  0  7 03 23 06 21 17 22 26
  23749040.189    -9690363.073 9  -7521739.33849  23749038.952    23749044.9414
  20712422.040   -21003204.213 9 -16039840.47249  20712421.299    20712426.3514
  21964955.075   -20610806.017 9 -16044649.15349  21964954.998    21964960.8074
  22914762.107   -15019453.924 9 -11106931.17649  22914760.971    22914767.7284
  20570281.175   -27544732.535 9 -20875491.40949  20570280.491    20570285.6894
  23860724.584    -7899493.958 9  -6131458.00749  23860724.354    23860730.3924
  21935172.416   -17539900.589 9 -13644689.52449  21935172.596    21935177.5854
 99  4 22  1 19 30.0000000  0  7 03 23 06 21 17 22 26
  23730659.735    -9786952.912 9  -7597004.09949  23730659.306    23730664.7254
  20710080.399   -21015509.835 9 -16049429.26449  20710079.680    20710084.6654
  21982098.663   -20520715.665 9 -15974448.93549  21982098.570    21982104.4044
  22901387.346   -15089738.753 9 -11161698.53149  22901387.200    22901392.6034
  20569583.385   -27548399.657 9 -20878348.90849  20569582.514    20569587.7064
  23870459.336    -7848337.478 9  -6091595.85749  23870458.855    23870464.8024
  21943250.249   -17497451.411 9 -13611612.24449  21943250.474    21943255.1724
 99  4 22  1 20  0.0000000  0  7 03 23 06 21 17 22 26
  23712335.770    -9883245.928 9  -7672037.55549  23712335.182    23712341.1914
  20707817.855   -21027399.532 9 -16058693.95649  20707817.296    20707822.0214
  21999315.962   -20430238.477 9 -15903947.27149  21999315.591    21999321.8334
  22888061.407   -15159767.149 9 -11216266.05949  22888059.926    22888066.6794
  20568937.279   -27551794.978 9 -20880994.61149  20568936.312    20568941.3894
  23880263.035    -7796818.997 9  -6051451.61749  23880261.709    23880268.9844
  21951430.515   -17454463.463 9 -13578115.14849  21951430.611    21951435.2364
 99  4 22  1 20 30.0000000  0  7 03 23 06 21 17 22 26
  23694063.967    -9979264.500 9  -7746857.14349  23694063.581    23694069.4884
  20705630.242   -21038895.600 9 -16067651.92649  20705629.681    20705634.5904
  22016604.578   -20339386.810 9 -15833153.82549  22016604.352    22016610.3274
  22874781.978   -15229550.366 9 -11270642.53649  22874781.278    22874787.2194
  20568339.671   -27554935.301 9 -20883441.61549  20568338.765    20568344.1084
  23890132.164    -7744956.668 9  -6011039.46149  23890130.667    23890137.9764
  21959715.252   -17410926.582 9 -13544190.31049  21959715.345    21959719.9854
 99  4 22  1 21  0.0000000  0  7 03 23 06 21 17 22 26
  23675839.506   -10075034.550 9  -7821483.10549  23675838.718    23675845.6274
  20703515.562   -21050008.227 9 -16076311.10749  20703514.855    20703519.7784
  22033965.527   -20248154.607 9 -15762063.86249  22033965.363    22033971.4314
  22861546.924   -15299100.978 9 -11324837.76449  22861545.292    22861552.4594
  20567791.812   -27557814.223 9 -20885684.93349  20567791.075    20567796.3954
  23900065.492    -7692756.596 9  -5970364.14149  23900064.859    23900071.3544
  21968108.892   -17366817.990 9 -13509819.98449  21968108.545    21968113.6904
 99  4 22  1 21 30.0000000  0  7 03 23 06 21 17 22 26
  23657660.532   -10170564.969 9  -7895922.33249  23657659.333    23657666.5034
  20701473.689   -21060738.381 9 -16084672.26249  20701472.879    20701477.7484
  22051399.053   -20156541.087 9 -15690676.76249  22051399.434    22051404.3434
  22848356.057   -15368419.023 9 -11378851.77549  22848354.933    22848361.1604
  20567295.233   -27560423.771 9 -20887718.34349  20567294.498    20567299.6344
  23910063.525    -7640215.954 9  -5929423.46549  23910062.818    23910069.2734
  21976619.218   -17322095.644 9 -13474971.41249  21976619.113    21976624.1844
 99  4 22  1 22  0.0000000  0  7 03 23 06 21 17 22 26
  23639520.880   -10265888.500 9  -7970200.36849  23639520.361    23639526.2814
  20699500.732   -21071106.360 9 -16092751.20049  20699499.914    20699504.9084
  22068898.463   -20064581.215 9 -15619019.78349  22068898.320    22068904.1194
  22835206.353   -15437520.668 9 -11432697.16349  22835206.276    22835212.0964
  20566849.368   -27562766.924 9 -20889544.17749  20566848.557    20566853.6974
  23920120.791    -7587364.843 9  -5888240.85549  23920120.465    23920126.8814
  21985247.105   -17276755.901 9 -13439641.74949  21985247.110    21985252.3334
 99  4 22  1 22 30.0000000  0  7 03 23 06 21 17 22 26
  23621417.064   -10361024.480 9  -8044332.22849  23621416.374    23621423.1334
  20697594.570   -21081122.996 9 -16100556.36449  20697593.864    20697598.7814
  22086457.096   -19972310.166 9 -15547120.32249  22086456.624    22086462.7584
  22822096.806   -15506411.590 9 -11486378.34449  22822095.812    22822102.0784
  20566451.920   -27564855.555 9 -20891171.67749  20566451.092    20566456.3194
  23930231.589    -7534232.559 9  -5846839.13749  23930231.116    23930238.0454
  21993991.497   -17230804.027 9 -13403835.09949  21993991.307    21993996.3374
 99  4 22  1 23  0.0000000  0  7 03 23 06 21 17 22 26
  23603352.971   -10455951.548 9  -8118301.31349  23603352.529    23603358.6814
  20695758.504   -21090771.421 9 -16108074.60849  20695757.695    20695762.6974
  22104074.102   -19879732.599 9 -15474982.02049  22104073.808    22104079.6744
  22809031.492   -15575070.386 9 -11539878.65549  22809030.916    22809037.0474
  20566104.077   -27566683.294 9 -20892595.88749  20566103.303    20566108.5464
  23940399.548    -7480800.020 9  -5805203.46249  23940398.397    23940405.7764
  22002849.671   -17184253.760 9 -13367562.17749  22002849.634    22002854.8494
 99  4 22  1 23 30.0000000  0  7 03 23 06 21 17 22 26
  23585332.242   -10550650.439 9  -8192092.60749  23585331.585    23585337.8074
  20693994.781   -21100039.819 9 -16115296.73249  20693993.926    20693998.9764
  22121748.383   -19786853.609 9 -15402608.83049  22121748.043    22121754.1934
  22796014.673   -15643474.295 9 -11593180.34949  22796014.587    22796019.7284
  20565807.286   -27568243.198 9 -20893811.39649  20565806.568    20565811.5394
  23950626.767    -7427055.549 9  -5763324.71349  23950626.386    23950633.3714
  22011820.075   -17137114.207 9 -13330830.07749  22011820.054    22011824.5204
 99  4 22  1 24  0.0000000  0  7 03 23 06 21 17 22 26
  23567360.425   -10645092.751 9  -8265683.98049  23567360.136    23567365.0744
  20692304.991   -21108919.626 9 -16122216.05749  20692304.326    20692309.1474
  22139482.909   -19693658.377 9 -15329989.22449  22139483.015    22139488.3784
  22783050.214   -15711603.027 9 -11646267.62049  22783049.043    22783055.6114
  20565563.060   -27569526.619 9 -20894811.46249  20565562.118    20565567.5154
  23960916.711    -7372981.708 9  -5721189.32849  23960915.863    23960923.2074
  22020899.132   -17089403.608 9 -13293652.98849  22020898.939    22020904.3374
 99  4 22  1 24 30.0000000  0  7 03 23 06 21 17 22 26
  23549440.084   -10739263.910 9  -8339064.07349  23549440.701    23549445.1074
  20690687.991   -21117416.999 9 -16128837.37949  20690687.335    20690692.2834
  22157279.711   -19600136.016 9 -15257114.72049  22157279.265    22157285.0544
  22770138.238   -15779455.667 9 -11699139.75649  22770137.222    22770143.1474
  20565367.895   -27570552.077 9 -20895610.51949  20565366.953    20565372.1734
  23971273.276    -7318558.172 9  -5678781.48049  23971271.624    23971279.0434
  22030084.329   -17041135.489 9 -13256041.47849  22030084.490    22030089.3334
 99  4 22  1 25  0.0000000  0  7 03 23 06 21 17 22 26
  23531569.544   -10833174.639 9  -8412241.22349  23531569.144    23531575.1224
  20689138.282   -21125560.957 9 -16135183.31549  20689137.738    20689142.4924
  22175139.702   -19506281.458 9 -15183981.36449  22175139.460    22175145.3534
  22757275.938   -15847047.101 9 -11751808.35649  22757275.376    22757281.1604
  20565220.051   -27571328.710 9 -20896215.68549  20565219.095    20565224.1804
  23981696.691    -7263782.957 9  -5636099.57749  23981695.947    23981703.4544
  22039373.333   -16992321.690 9 -13218004.75249  22039373.499    22039378.4004
 99  4 22  1 25 30.0000000  0  7 03 23 06 21 17 22 26
  23513745.693   -10926840.023 9  -8485227.21849  23513745.912    23513751.2724
  20687648.918   -21133387.649 9 -16141282.03249  20687648.159    20687653.0214
  22193063.272   -19412092.611 9 -15110587.53349  22193063.302    22193068.9774
  22744458.571   -15914402.758 9 -11804293.24049  22744457.420    22744464.2364
  20565115.723   -27571877.010 9 -20896642.93549  20565114.887    20565120.0964
  23992181.240    -7208685.912 9  -5593166.89349  23992180.919    23992187.0664
  22048765.774   -16942964.260 9 -13179544.43249  22048765.787    22048770.8834
 99  4 22  1 26  0.0000000  0  7 03 23 06 21 17 22 26
  23495964.246   -11020282.578 9  -8558039.57249  23495963.873    23495969.1594
  20686214.081   -21140927.905 9 -16147157.55049  20686213.382    20686218.1334
  22211047.882   -19317583.416 9 -15036944.07849  22211047.971    22211053.2954
  22731679.859   -15981555.158 9 -11856619.73249  22731678.826    22731685.6374
  20565050.295   -27572220.939 9 -20896910.92849  20565049.622    20565054.6194
  24002721.532    -7153296.720 9  -5550006.56249  24002721.232    24002727.2584
  22058258.636   -16893078.964 9 -13140672.78549  22058258.745    22058263.4504
 99  4 22  1 26 30.0000000  0  7 03 23 06 21 17 22 26
  23478220.540   -11113526.180 9  -8630696.89849  23478220.146    23478224.4774
  20684832.619   -21148187.514 9 -16152814.38649  20684832.089    20684836.7434
  22229090.340   -19222769.953 9 -14963063.53049  22229089.991    22229096.1514
  22718937.321   -16048517.142 9 -11908797.85449  22718936.987    22718942.5734
  20565023.213   -27572363.413 9 -20897021.94649  20565022.401    20565027.6874
  24013310.931    -7097649.932 9  -5506645.51549  24013310.651    24013317.6474
  22067851.516   -16842667.751 9 -13101391.32749  22067851.504    22067856.4724
 99  4 22  1 27  0.0000000  0  7 03 23 06 21 17 22 26
  23460516.092   -11206563.261 9  -8703193.30449  23460516.053    23460521.2494
  20683506.840   -21155154.475 9 -16158243.18049  20683506.257    20683511.0154
  22247190.102   -19127655.225 9 -14888948.24049  22247189.421    22247196.0794
  22706232.628   -16115280.436 9 -11960821.15749  22706231.783    22706238.1154
  20565037.692   -27572287.277 9 -20896962.61749  20565036.821    20565042.0964
  24023944.398    -7041771.267 9  -5463103.77649  24023943.480    24023950.5344
  22077543.553   -16791735.733 9 -13061704.04449  22077543.585    22077548.8134
 99  4 22  1 27 30.0000000  0  7 03 23 06 21 17 22 26
  23442855.745   -11299368.631 9  -8775509.14049  23442855.429    23442861.0414
  20682243.091   -21161795.486 9 -16163417.99149  20682242.332    20682247.1964
  22265347.043   -19032240.218 9 -14814598.97149  22265346.981    22265352.9084
  22693566.866   -16181839.435 9 -12012685.27449  22693565.821    22693571.7454
  20565097.144   -27571974.817 9 -20896719.14349  20565096.300    20565101.5634
  24034621.084    -6985664.940 9  -5419384.63749  24034620.229    24034626.8114
  22087334.874   -16740282.042 9 -13021610.27949  22087334.716    22087340.3714
 99  4 22  1 28  0.0000000  0  7 03 23 06 21 17 22 26
  23425244.713   -11391914.986 9  -8847623.14449  23425243.132    23425249.5374
  20681049.395   -21168068.228 9 -16168305.83749  20681048.648    20681053.4684
  22283562.403   -18936518.041 9 -14740010.35949  22283562.401    22283568.2404
  22680942.520   -16248180.648 9 -12064379.67349  22680941.951    22680948.0674
  20565209.096   -27571386.551 9 -20896260.74949  20565208.333    20565213.4544
  24045344.434    -6929314.059 9  -5375474.93149  24045343.265    24045350.3394
  22097227.692   -16688294.975 9 -12981100.88949  22097227.688    22097232.5664
 99  4 22  1 28 30.0000000  0  7 03 23 06 21 17 22 26
  23407689.575   -11484167.648 9  -8919508.28349  23407689.144    23407694.8804
  20679930.133   -21173949.957 9 -16172889.00049  20679929.403    20679934.3284
  22301839.780   -18840470.347 9 -14665168.10249  22301839.518    22301845.5864
  22668364.052   -16314280.837 9 -12115886.27149  22668363.289    22668369.6364
  20565377.430   -27570501.902 9 -20895571.41149  20565376.636    20565381.9164
  24056118.883    -6872694.134 9  -5331355.58349  24056117.806    24056125.2134
  22107224.499   -16635761.597 9 -12940165.80049  22107224.117    22107229.9464
 99  4 22  1 29  0.0000000  0  7 03 23 06 21 17 22 26
  23390194.401   -11576105.328 9  -8991147.98849  23390194.006    23390199.6374
  20678885.180   -21179441.304 9 -16177167.96649  20678884.416    20678889.2154
  22320179.553   -18744094.681 9 -14590070.27549  22320179.112    22320185.8664
  22655832.983   -16380131.936 9 -12167198.77249  22655831.784    22655838.1574
  20565604.447   -27569309.019 9 -20894641.88949  20565603.579    20565608.7354
  24066951.884    -6815766.262 9  -5286996.25749  24066951.496    24066958.5414
  22117326.058   -16582677.146 9 -12898801.30649  22117325.984    22117330.9824
 99  4 22  1 29 30.0000000  0  7 03 23 06 21 17 22 26
  23372757.668   -11667735.980 9  -9062548.44449  23372757.057    23372762.5404
  20677911.005   -21184560.536 9 -16181156.97449  20677910.331    20677915.2594
  22338578.339   -18647409.216 9 -14514731.05949  22338578.064    22338584.1064
  22643346.914   -16445746.228 9 -12218326.74549  22643346.328    22643351.8624
  20565888.697   -27567815.130 9 -20893477.81949  20565887.812    20565893.0374
  24077845.953    -6758517.535 9  -5242386.91949  24077845.355    24077852.8604
  22127535.491   -16529026.615 9 -12856995.70249  22127535.266    22127540.6564
 99  4 22  1 30  0.0000000  0  7 03 23 06 21 17 22 26
  23355377.010   -11759071.833 9  -9133719.16849  23355376.919    23355382.5054
  20677002.688   -21189333.876 9 -16184876.45449  20677001.989    20677006.9944
  22357032.297   -18550433.197 9 -14439165.45249  22357031.819    22357037.8724
  22630904.808   -16511129.749 9 -12269274.90249  22630904.131    22630909.6774
  20566225.430   -27566045.569 9 -20892098.93749  20566224.659    20566229.8834
  24088801.962    -6700944.099 9  -5197524.56149  24088801.899    24088808.4104
  22137851.584   -16474815.147 9 -12814753.01349  22137851.185    22137857.0564
 99  4 22  1 30 30.0000000  0  7 03 23 06 21 17 22 26
  23338048.620   -11850133.307 9  -9204676.09049  23338047.656    23338053.1894
  20676157.601   -21193774.856 9 -16188336.95249  20676156.814    20676161.7724
  22375537.843   -18453185.816 9 -14363388.36649  22375537.348    22375543.4274
  22618506.814   -16576281.584 9 -12320042.52049  22618505.614    22618511.5564
  20566609.632   -27564026.737 9 -20890525.81449  20566608.693    20566613.8694
  24099817.127    -6643059.617 9  -5152419.83849  24099816.484    24099824.3594
  22148270.766   -16420061.620 9 -12772087.94049  22148270.891    22148275.6854
 99  4 22  1 31  0.0000000  0  7 03 23 06 21 17 22 26
  23320769.611   -11940935.081 9  -9275430.64449  23320769.177    23320774.6304
  20675376.153   -21197881.444 9 -16191536.88849  20675375.525    20675380.2094
  22394092.625   -18355680.069 9 -14287409.98049  22394092.822    22394098.4984
  22606152.361   -16641204.733 9 -12370631.94049  22606151.287    22606157.3374
  20567041.161   -27561758.832 9 -20888758.61249  20567040.304    20567045.6464
  24110886.741    -6584889.090 9  -5107092.21549  24110885.901    24110893.5744
  22158794.167   -16364761.195 9 -12728996.70149  22158793.726    22158798.9394
 99  4 22  1 31 30.0000000  0  7 03 23 06 21 17 22 26
  23303539.218   -12031481.227 9  -9345986.02449  23303538.306    23303543.6294
  20674660.789   -21201640.777 9 -16194466.23549  20674660.191    20674664.9094
  22412700.250   -18257896.385 9 -14211214.99849  22412700.041    22412706.6104
  22593841.685   -16705897.655 9 -12421041.97749  22593840.520    22593846.9594
  20567519.237   -27559246.544 9 -20886800.97949  20567518.323    20567523.6584
  24122006.069    -6526456.590 9  -5061560.44849  24122004.304    24122012.3014
  22169422.122   -16308910.938 9 -12685477.03249  22169421.699    22169427.0494
 99  4 22  1 32  0.0000000  0  7 03 23 06 21 17 22 26
  23286357.412   -12121771.307 9  -9416341.85349  23286356.601    23286362.5714
  20674016.405   -21205027.028 9 -16197104.86949  20674015.697    20674020.6094
  22431365.764   -18159808.775 9 -14134783.18249  22431365.629    22431371.5864
  22581576.859   -16770349.245 9 -12471263.95149  22581575.650    22581582.0564
  20568045.758   -27556479.602 9 -20884644.91549  20568044.939    20568050.1244
  24133174.618    -6467765.093 9  -5015826.86849  24133174.361    24133181.2964
  22180152.125   -16252524.523 9 -12641539.56749  22180151.930    22180156.5824
 99  4 22  1 32 30.0000000  0  7 03 23 06 21 17 22 26
  23269226.249   -12211795.789 9  -9486490.74149  23269226.250    23269232.5394
  20673445.729   -21208025.850 9 -16199441.61149  20673444.922    20673449.7994
  22450093.783   -18061392.632 9 -14058095.35249  22450094.113    22450099.8764
  22569362.770   -16834534.447 9 -12521278.35349  22569361.806    22569368.4064
  20568626.521   -27553427.649 9 -20882266.76249  20568625.607    20568630.9194
  24144391.764    -6408818.990 9  -4969894.88449  24144390.376    24144398.5194
  22190985.520   -16195594.461 9 -12597178.48949  22190985.950    22190990.8394
 99  4 22  1 33  0.0000000  0  7 03 23 06 21 17 22 26
  23252149.678   -12301533.622 9  -9556416.27249  23252148.602    23252154.9634
  20672946.009   -21210651.931 9 -16201487.90249  20672945.288    20672950.1434
  22468885.948   -17962639.520 9 -13981144.94749  22468886.214    22468891.9354
  22557199.105   -16898455.010 9 -12571086.54349  22557198.626    22557204.1614
  20569264.374   -27550075.655 9 -20879654.81349  20569263.475    20569268.8704
  24155658.068    -6349614.517 9  -4923761.59349  24155657.506    24155665.4504
  22201923.641   -16138114.025 9 -12552388.55649  22201923.368    22201927.8414
 99  4 22  1 33 30.0000000  0  7 03 23 06 21 17 22 26
  23235131.370   -12390964.730 9  -9626102.79049  23235131.004    23235136.2764
  20672515.599   -21212913.579 9 -16203250.22049  20672514.936    20672519.7364
  22487741.514   -17863553.299 9 -13903934.98849  22487741.780    22487747.5594
  22545085.975   -16962109.720 9 -12620687.57649  22545085.272    22545091.0764
  20569958.337   -27546428.673 9 -20876813.00549  20569957.615    20569962.8554
  24166973.915    -6290149.572 9  -4877425.32549  24166972.003    24166980.2234
  22212962.910   -16080102.078 9 -12507184.44649  22212962.866    22212967.5114
 99  4 22  1 34  0.0000000  0  7 03 23 06 21 17 22 26
  23218173.293   -12480079.986 9  -9695543.19249  23218172.644    23218178.9604
  20672151.635   -21214826.315 9 -16204740.65749  20672150.748    20672155.7134
  22506653.497   -17764171.002 9 -13826494.30249  22506653.138    22506660.1524
  22533025.290   -17025488.848 9 -12670073.87049  22533024.951    22533030.1864
  20570707.442   -27542492.362 9 -20873745.74249  20570706.436    20570711.8004
  24178339.598    -6230422.774 9  -4830885.03549  24178338.814    24178346.2084
  22224102.357   -16021563.536 9 -12461570.00649  22224101.655    22224107.7004
 99  4 22  1 34 30.0000000  0  7 03 23 06 21 17 22 26
  23201276.628   -12568872.871 9  -9764732.39749  23201275.321    23201281.7404
  20671848.243   -21216420.578 9 -16205982.93249  20671847.568    20671852.2954
  22525617.447   -17664515.377 9 -13748840.66049  22525617.380    22525623.4044
  22521016.988   -17088592.728 9 -12719245.68049  22521016.345    22521021.9234
  20571510.842   -27538270.466 9 -20870455.95049  20571510.060    20571515.3084
  24189754.382    -6170438.139 9  -4784143.82049  24189753.232    24189760.1944
  22235340.799   -15962505.331 9 -12415550.63049  22235340.694    22235345.9664
 99  4 22  1 35  0.0000000  0  7 03 23 06 21 17 22 26
  23184440.869   -12657345.760 9  -9833672.26249  23184439.756    23184445.7844
  20671603.596   -21217706.095 9 -16206984.62649  20671602.757    20671607.7864
  22544628.660   -17564611.263 9 -13670993.36549  22544628.209    22544634.4924
  22509056.478   -17151445.448 9 -12768221.79449  22509056.155    22509061.0304
  20572364.760   -27533783.021 9 -20866959.23449  20572363.869    20572369.2724
  24201217.655    -6110198.798 9  -4737204.14549  24201217.326    24201224.0394
  22246675.879   -15902939.560 9 -12369135.75049  22246676.566    22246680.9464
 99  4 22  1 35 30.0000000  0  7 03 23 06 21 17 22 26
  23167662.474   -12745516.195 9  -9902376.44949  23167662.201    23167667.9874
  20671418.465   -21218678.727 9 -16207742.51349  20671417.815    20671422.5724
  22563684.920   -17464470.511 9 -13592961.68449  22563683.977    22563691.2994
  22497144.651   -17214042.116 9 -12816998.37549  22497144.111    22497149.6354
  20573267.025   -27529041.592 9 -20863264.60849  20573266.184    20573271.3954
  24212730.228    -6049700.491 9  -4690062.67549  24212729.266    24212737.1184
  22258106.574   -15842871.001 9 -12322329.09549  22258106.723    22258111.2244
 99  4 22  1 36  0.0000000  0  7 03 23 06 21 17 22 26
  23150939.154   -12833396.837 9  -9970854.82849  23150937.829    23150944.2344
  20671291.997   -21219343.340 9 -16208260.38749  20671291.303    20671296.3704
  22582786.247   -17364092.891 9 -13514745.43549  22582785.583    22582792.2194
  22485279.232   -17276395.159 9 -12865585.12149  22485278.446    22485284.2604
  20574219.256   -27524037.356 9 -20859365.19849  20574218.445    20574223.5564
  24224294.495    -5988929.438 9  -4642708.68849  24224293.431    24224301.4904
  22269632.968   -15782299.579 9 -12275130.60249  22269632.994    22269638.4644
 99  4 22  1 36 30.0000000  0  7 03 23 06 21 17 22 26
  23134271.294   -12920986.621 9 -10039106.55949  23134270.748    23134276.6824
  20671225.985   -21219690.236 9 -16208530.68449  20671225.318    20671230.1364
  22601935.654   -17263462.290 9 -13436332.05049  22601935.216    22601941.6904
  22473455.121   -17338531.273 9 -12914002.83449  22473454.121    22473460.2774
  20575223.789   -27518758.620 9 -20855251.89149  20575222.900    20575228.2264
  24235908.537    -5927897.273 9  -4595151.21949  24235907.301    24235914.7954
  22281253.835   -15721231.588 9 -12227545.16249  22281253.609    22281258.6744
 99  4 22  1 37  0.0000000  0  7 03 23 06 21 17 22 26
  23117660.636   -13008276.049 9 -10107124.25749  23117660.057    23117665.9924
  20671224.495   -21219697.958 9 -16208536.69449  20671223.670    20671228.5094
  22621135.718   -17162565.010 9 -13357710.87049  22621135.034    22621141.0624
  22461671.113   -17400456.538 9 -12962256.24949  22461670.449    22461676.0994
  20576280.861   -27513203.584 9 -20850923.28649  20576279.968    20576285.1844
  24247568.720    -5866622.889 9  -4547405.02249  24247567.848    24247575.1434
  22292971.407   -15659655.137 9 -12179563.52949  22292971.147    22292976.0154
 99  4 22  1 37 30.0000000  0  7 03 23 06 21 17 22 26
  23101108.298   -13095258.974 9 -10174903.12449  23101107.556    23101113.5874
  20671289.286   -21219357.377 9 -16208271.29949  20671288.545    20671293.2494
  22640389.156   -17061388.070 9 -13278871.80049  22640389.145    22640395.3794
  22449927.560   -17462169.196 9 -13010344.00249  22449926.769    22449932.7834
  20577393.942   -27507354.166 9 -20846365.29549  20577393.067    20577398.2474
  24259272.866    -5805116.878 9  -4499478.35049  24259271.596    24259279.4794
  22304787.954   -15597559.045 9 -12131176.97149  22304788.276    22304792.7464
 99  4 22  1 38  0.0000000  0  7 03 23 06 21 17 22 26
  23084618.013   -13181916.117 9 -10242428.14549  23084617.892    23084623.2624
  20671420.998   -21218665.152 9 -16207731.89449  20671420.363    20671425.0804
  22659697.857   -16959920.489 9 -13199806.24049  22659697.578    22659703.9384
  22438222.840   -17523677.644 9 -13058272.62749  22438222.182    22438228.0994
  20578562.698   -27501212.337 9 -20841579.45149  20578561.718    20578567.0564
  24271016.678    -5743402.774 9  -4451389.50349  24271015.426    24271023.3084
  22316704.439   -15534937.688 9 -12082381.11449  22316704.607    22316709.7144
 99  4 22  1 38 30.0000000  0  7 03 23 06 21 17 22 26
  23068191.130   -13268240.253 9 -10309693.68149  23068190.584    23068195.6644
  20671620.619   -21217616.082 9 -16206914.42849  20671619.965    20671624.7754
  22679064.032   -16858150.803 9 -13120505.27049  22679064.051    22679070.2324
  22426561.334   -17584959.368 9 -13106024.58349  22426560.705    22426566.3294
  20579785.087   -27494788.396 9 -20836573.78149  20579784.272    20579789.4134
  24282795.366    -5681505.808 9  -4403158.17249  24282795.141    24282802.3734
  22328722.568   -15471781.659 9 -12033168.63649  22328722.747    22328727.6584
 99  4 22  1 39  0.0000000  0  7 03 23 06 21 17 22 26
  23051828.385   -13354226.989 9 -10376696.29549  23051827.972    23051834.0494
  20671884.128   -21216231.440 9 -16205835.47449  20671883.363    20671888.3004
  22698486.396   -16756085.798 9 -13040974.16749  22698486.045    22698492.7704
  22414945.643   -17646000.060 9 -13153588.71749  22414945.036    22414950.6094
  20581057.831   -27488100.062 9 -20831362.08449  20581057.071    20581062.3884
  24294609.286    -5619423.694 9  -4354782.58249  24294609.302    24294614.9474
  22340840.823   -15408099.859 9 -11983546.45549  22340841.018    22340846.0064
 99  4 22  1 39 30.0000000  0  7 03 23 06 21 17 22 26
  23035527.733   -13439887.731 9 -10443444.89349  23035527.596    23035532.7114
  20672208.301   -21214527.909 9 -16204508.03549  20672207.529    20672212.3284
  22717960.784   -16653747.292 9 -12961229.95449  22717960.113    22717966.4234
  22403375.746   -17706800.115 9 -13200965.35149  22403375.356    22403380.7804
  20582376.780   -27481168.662 9 -20825960.99049  20582375.978    20582381.1754
  24306462.428    -5557135.281 9  -4306246.24149  24306462.166    24306469.5314
  22353055.904   -15343909.708 9 -11933528.17249  22353055.522    22353061.5504
 99  4 22  1 40  0.0000000  0  7 03 23 06 21 17 22 26
  23019287.673   -13525230.197 9 -10509945.47849  23019286.669    23019292.8274
  20672589.035   -21212526.984 9 -16202948.86649  20672588.385    20672593.0144
  22737485.609   -16551144.106 9 -12881279.49549  22737485.416    22737491.8364
  22391853.744   -17767348.392 9 -13248145.79549  22391852.833    22391858.6954
  20583739.751   -27474006.245 9 -20820379.88149  20583738.984    20583744.0974
  24318355.432    -5494637.721 9  -4257546.93049  24318353.614    24318361.9544
  22365362.959   -15279235.245 9 -11883132.49849  22365362.572    22365367.5344
 99  4 22  1 40 30.0000000  0  7 03 23 06 21 17 22 26
  23003105.766   -13610266.362 9 -10576207.38949  23003105.072    23003110.4874
  20673024.636   -21210238.008 9 -16201165.23849  20673023.863    20673028.6904
  22757054.801   -16448307.783 9 -12801147.37649  22757054.099    22757060.5054
  22380379.196   -17827647.475 9 -13295132.05649  22380378.486    22380384.3014
  20585149.866   -27466596.273 9 -20814605.87249  20585149.058    20585154.3784
  24330289.887    -5431922.352 9  -4208677.91349  24330289.521    24330296.8434
  22377758.931   -15214093.584 9 -11832372.79149  22377758.750    22377764.3234
 99  4 22  1 41  0.0000000  0  7 03 23 06 21 17 22 26
  22986983.769   -13694987.994 9 -10642224.20849  22986982.593    22986989.0924
  20673515.140   -21207660.412 9 -16199156.71349  20673514.324    20673519.2814
  22776663.594   -16345263.213 9 -12720852.98649  22776663.044    22776670.0834
  22368949.856   -17887708.940 9 -13341933.15749  22368948.809    22368955.0094
  20586610.460   -27458920.626 9 -20808624.84749  20586609.677    20586614.9004
  24342269.348    -5368970.391 9  -4159624.53449  24342268.748    24342275.8314
  22390243.833   -15148484.973 9 -11781249.20749  22390244.296    22390249.2364
 99  4 22  1 41 30.0000000  0  7 03 23 06 21 17 22 26
  22970920.356   -13779401.116 9 -10708000.61249  22970919.653    22970925.4914
  20674063.601   -21204778.054 9 -16196910.70949  20674062.854    20674067.6434
  22796311.119   -16242015.247 9 -12640400.08649  22796311.112    22796317.6794
  22357565.631   -17947533.578 9 -13388549.72349  22357564.670    22357570.5744
  20588124.147   -27450966.141 9 -20802426.54349  20588123.239    20588128.4804
  24354292.867    -5305786.982 9  -4110390.78949  24354291.625    24354299.4334
  22402820.466   -15082394.138 9 -11729749.87749  22402820.200    22402825.4044
 99  4 22  1 42  0.0000000  0  7 03 23 06 21 17 22 26
  22954919.001   -13863488.257 9 -10773523.01249  22954917.541    22954924.0054
  20674670.595   -21201588.116 9 -16194425.03749  20674669.934    20674674.7684
  22815997.377   -16138563.347 9 -12559788.29549  22815997.164    22816003.4024
  22346225.372   -18007127.108 9 -13434986.20649  22346224.541    22346230.1604
  20589695.500   -27442708.713 9 -20795992.18649  20589694.481    20589699.8174
  24366357.386    -5242388.293 9  -4060989.28749  24366356.113    24366362.7634
  22415491.292   -15015808.852 9 -11677865.25049  22415491.408    22415495.9584
 99  4 22  1 42 30.0000000  0  7 03 23 06 21 17 22 26
  22938981.489   -13947239.958 9 -10838784.02849  22938981.204    22938987.2964
  20675340.167   -21198069.574 9 -16191683.30649  20675339.370    20675344.3944
  22835721.909   -16034910.657 9 -12479020.04849  22835722.338    22835728.6144
  22334926.793   -18066501.576 9 -13481251.98749  22334926.112    22334931.4004
  20591324.350   -27434148.773 9 -20789322.09849  20591323.613    20591328.8684
  24378461.694    -5178780.086 9  -4011424.52649  24378460.833    24378467.9164
  22428259.530   -14948711.307 9 -11625581.47849  22428259.239    22428264.4274
 99  4 22  1 43  0.0000000  0  7 03 23 06 21 17 22 26
  22923109.261   -14030649.234 9 -10903778.21749  22923108.272    22923114.3494
  20676074.130   -21194212.339 9 -16188677.66249  20676073.442    20676078.2964
  22855492.470   -15931016.199 9 -12398063.40249  22855492.152    22855498.9014
  22323670.453   -18125653.926 9 -13527344.69249  22323669.775    22323675.1854
  20593008.004   -27425301.244 9 -20782427.91849  20593007.218    20593012.4384
  24390605.482    -5114964.226 9  -3961697.96149  24390603.746    24390612.6594
  22441124.840   -14881104.436 9 -11572900.81849  22441124.623    22441129.7374
 99  4 22  1 43 30.0000000  0  7 03 23 06 21 17 22 26
  22907302.351   -14113715.033 9 -10968504.75049  22907301.475    22907307.5484
  20676872.457   -21190017.172 9 -16185408.69149  20676871.700    20676876.3114
  22875311.418   -15826866.412 9 -12316907.81149  22875311.551    22875317.4344
  22312457.739   -18184576.916 9 -13573258.67249  22312457.087    22312462.3464
  20594745.428   -27416171.027 9 -20775313.46249  20594744.725    20594749.9974
  24402786.728    -5050951.268 9  -3911817.81149  24402785.213    24402793.2574
  22454084.182   -14813002.651 9 -11519834.52049  22454084.321    22454088.8454
 99  4 22  1 44  0.0000000  0  7 03 23 06 21 17 22 26
  22891562.149   -14196430.220 9 -11032958.08549  22891561.322    22891567.2534
  20677735.171   -21185483.603 9 -16181876.03449  20677734.502    20677739.3214
  22895180.261   -15722455.262 9 -12235548.54449  22895179.697    22895186.5234
  22301290.895   -18243258.703 9 -13618984.70549  22301289.968    22301295.8274
  20596539.671   -27406742.438 9 -20767966.51049  20596538.863    20596544.2184
  24415005.098    -4986743.263 9  -3861785.67549  24415004.424    24415011.5184
  22467133.495   -14744428.149 9 -11466399.85949  22467133.537    22467138.3914
 99  4 22  1 44 30.0000000  0  7 03 23 06 21 17 22 26
  22875889.590   -14278789.408 9 -11097134.01249  22875888.772    22875895.0564
  20678663.850   -21180603.417 9 -16178073.28449  20678663.169    20678667.9234
  22915100.807   -15617772.648 9 -12153977.74749  22915100.666    22915107.2944
  22290175.465   -18301670.239 9 -13664500.15449  22290174.683    22290180.5294
  20598391.337   -27397011.911 9 -20760384.27949  20598390.381    20598395.6954
  24427262.163    -4922331.930 9  -3811595.10949  24427261.259    24427269.1934
  22480270.781   -14675391.533 9 -11412605.11049  22480270.712    22480276.5464
 99  4 22  1 45  0.0000000  0  7 03 23 06 21 17 22 26
  22860287.673   -14360778.096 9 -11161021.24549  22860286.733    22860292.6674
  20679655.466   -21175392.384 9 -16174012.72949  20679654.793    20679659.6354
  22935072.719   -15512819.859 9 -12072196.40849  22935072.839    22935079.3774
  22279112.729   -18359805.152 9 -13709800.04349  22279112.311    22279117.4584
  20600302.124   -27386970.475 9 -20752559.78449  20600301.198    20600306.3734
  24439559.814    -4857707.095 9  -3761238.16349  24439559.135    24439567.0614
  22493494.820   -14605898.702 9 -11358454.87749  22493495.037    22493499.7194
 99  4 22  1 45 30.0000000  0  7 03 23 06 21 17 22 26
  22844756.969   -14442392.422 9 -11224616.77449  22844756.794    22844761.8624
  20680708.384   -21169859.344 9 -16169701.26249  20680707.724    20680712.5624
  22955089.758   -15407630.039 9 -11990230.38649  22955090.012    22955095.9054
  22268103.154   -18417660.766 9 -13754882.30549  22268102.284    22268108.2194
  20602272.681   -27376615.076 9 -20744490.63949  20602271.704    20602277.3994
  24451895.644    -4792882.089 9  -3710725.24949  24451894.845    24451902.5184
  22506807.509   -14535940.096 9 -11303941.69649  22506807.351    22506812.7814
 99  4 22  1 46  0.0000000  0  7 03 23 06 21 17 22 26
  22829296.274   -14523638.692 9 -11287925.49249  22829295.508    22829301.0374
  20681820.738   -21164013.848 9 -16165146.32649  20681820.134    20681824.9184
  22975152.343   -15302200.788 9 -11908077.79149  22975152.543    22975157.5084
  22257145.787   -18475241.745 9 -13799750.56249  22257144.749    22257150.2544
  20604301.901   -27365951.311 9 -20736181.21449  20604301.389    20604306.5194
  24464269.012    -4727860.243 9  -3660058.93349  24464267.610    24464275.5254
  22520210.239   -14465508.317 9 -11249059.81849  22520210.533    22520215.4014
 99  4 22  1 46 30.0000000  0  7 03 23 06 21 17 22 26
  22813905.699   -14604516.320 9 -11350946.97649  22813905.242    22813910.0804
  20682987.605   -21157881.955 9 -16160368.21849  20682986.656    20682991.6804
  22995257.990   -15196545.621 9 -11825749.15749  22995258.454    22995265.1354
  22246237.101   -18532566.942 9 -13844419.50749  22246236.321    22246242.1454
  20606384.356   -27355008.020 9 -20727653.97449  20606383.627    20606389.0214
  24476679.268    -4662644.815 9  -3609241.79449  24476678.928    24476686.9224
  22533704.325   -14394596.165 9 -11193803.61449  22533703.831    22533709.6014
 99  4 22  1 47  0.0000000  0  8 03 23 29 06 21 17 22 26
  22798578.808   -14685059.567 9 -11413707.89749  22798577.693    22798583.8664
  20684203.687   -21151491.425 9 -16155388.58049  20684203.004    20684207.7464
  24524087.635    -2857814.007 9  -2176719.69549  24524085.289    24524094.1564
  23015400.796   -15090694.320 9 -11743267.68949  23015400.850    23015407.0844
  22235370.108   -18589673.241 9 -13888917.88649  22235369.204    22235375.1494
  20608515.325   -27343809.639 9 -20718927.96649  20608514.642    20608519.7924
  24489121.476    -4597261.368 9  -3558293.72049  24489119.925    24489129.6824
  22547285.939   -14323224.499 9 -11138189.36449  22547285.569    22547291.4794
 99  4 22  1 47 30.0000000  0  8 03 23 29 06 21 17 22 26
  22783314.597   -14765273.050 9 -11476211.86949  22783313.970    22783319.3294
  20685471.802   -21144827.392 9 -16150195.81749  20685471.036    20685475.6884
  24503173.850    -2967716.218 9  -2262357.63449  24503172.187    24503179.8454
  23035581.889   -14984642.698 9 -11660630.13349  23035582.008    23035588.2694
  22224546.926   -18646549.078 9 -13933236.67949  22224546.397    22224551.8544
  20610696.933   -27332345.365 9 -20709994.75949  20610696.172    20610701.1364
  24501595.825    -4531707.983 9  -3507213.22849  24501594.199    24501602.7794
  22560955.489   -14251390.567 9 -11082214.89749  22560955.535    22560960.9644
 99  4 22  1 48  0.0000000  0  8 03 23 29 06 21 17 22 26
  22768115.139   -14845146.434 9 -11538450.83849  22768114.432    22768120.2024
  20686792.298   -21137888.152 9 -16144788.60949  20686791.742    20686796.2794
  24482260.025    -3077617.993 9  -2347995.23149  24482258.815    24482266.0944
  23055802.359   -14878383.834 9 -11577831.09149  23055801.151    23055808.4484
  22213767.682   -18703194.241 9 -13977375.72849  22213767.539    22213772.4244
  20612931.703   -27320601.569 9 -20700843.74649  20612930.765    20612936.0554
  24514105.587    -4465968.517 9  -3455987.74549  24514103.639    24514112.2374
  22574712.830   -14179095.200 9 -11025880.86549  22574712.682    22574718.0674
 99  4 22  1 48 30.0000000  0  8 03 23 29 06 21 17 22 26
  22752980.378   -14924680.110 9 -11600425.09449  22752979.980    22752984.7874
  20688167.199   -21130662.972 9 -16139158.59149  20688166.470    20688171.1244
  24461349.578    -3187502.112 9  -2433619.09349  24461347.961    24461356.1604
  23076057.588   -14771942.065 9 -11494889.54549  23076057.258    23076063.8114
  22203030.160   -18759620.038 9 -14021343.84949  22203029.572    22203034.8594
  20615219.409   -27308579.477 9 -20691475.88349  20615218.571    20615223.8114
  24526649.374    -4400049.908 9  -3404622.68049  24526649.444    24526656.8044
  22588557.031   -14106343.371 9 -10969191.15449  22588557.037    22588562.2054
 99  4 22  1 49  0.0000000  0  8 03 23 29 06 21 17 22 26
  22737909.523   -15003877.645 9 -11662137.41449  22737908.454    22737914.2504
  20689601.089   -21123127.837 9 -16133287.05249  20689600.228    20689604.9514
  24440444.064    -3297360.547 9  -2519222.94449  24440442.744    24440451.8684
  23096348.142   -14665315.058 9 -11411803.64449  23096348.441    23096355.2084
  22192333.369   -18815832.136 9 -14065145.44749  22192333.097    22192338.5284
  20617562.886   -27296264.639 9 -20681879.90249  20617561.959    20617567.2204
  24539226.115    -4333959.620 9  -3353123.82049  24539225.348    24539233.0884
  22602488.968   -14033131.054 9 -10912142.61549  22602488.423    22602493.4884
 99  4 22  1 49 30.0000000  0  8 03 23 29 06 21 17 22 26
  22722908.392   -15082708.714 9 -11723564.19649  22722907.738    22722913.3554
  20691095.533   -21115274.326 9 -16127167.42749  20691095.023    20691099.5244
  24419545.279    -3407184.072 9  -2604799.57649  24419544.781    24419550.8474
  23116675.986   -14558491.639 9 -11328564.71049  23116674.819    23116682.5104
  22181678.712   -18871822.587 9 -14108774.34049  22181678.114    22181683.6624
  20619962.194   -27283656.168 9 -20672055.11749  20619961.378    20619966.5754
  24551835.418    -4267697.679 9  -3301491.20849  24551834.439    24551842.8814
  22616511.112   -13959444.183 9 -10854724.30249  22616511.275    22616515.9154
 99  4 22  1 50  0.0000000  0  8 03 23 29 06 21 17 22 26
  22707979.347   -15161161.437 9 -11784696.15949  22707978.494    22707984.1844
  20692649.613   -21107107.744 9 -16120803.84649  20692648.997    20692653.7554
  24398655.081    -3516961.924 9  -2690340.60149  24398655.482    24398661.7254
  23137041.192   -14451471.407 9 -11245172.40349  23137040.710    23137047.8594
  22171064.523   -18927600.600 9 -14152237.69449  22171064.052    22171069.3824
  20622414.892   -27270767.127 9 -20662011.70149  20622413.980    20622419.1104
  24564475.105    -4201276.130 9  -3249734.21749  24564472.639    24564481.5744
  22630623.241   -13885284.643 9 -10796937.65549  22630623.226    22630627.9694
 99  4 22  1 50 30.0000000  0  8 03 23 29 06 21 17 22 26
  22693122.293   -15239235.609 9 -11845533.16149  22693121.259    22693127.1934
  20694262.288   -21098632.966 9 -16114200.11549  20694261.401    20694266.3664
  24377772.965    -3626697.195 9  -2775848.48949  24377772.989    24377779.3124
  23157443.483   -14344256.245 9 -11161628.22649  23157443.805    23157450.2684
  22160490.091   -18983169.354 9 -14195537.98949  22160489.502    22160494.7814
  20624919.810   -27257603.514 9 -20651754.33649  20624918.896    20624924.1194
  24577142.043    -4134711.430 9  -3197865.70149  24577140.939    24577149.1904
  22644823.803   -13810660.198 9 -10738788.75449  22644823.765    22644829.2664
 99  4 22  1 51  0.0000000  0  8 03 23 29 06 21 17 22 26
  22678340.424   -15316914.524 9 -11906062.16949  22678339.812    22678345.7804
  20695932.380   -21089856.453 9 -16107361.26549  20695931.545    20695936.3284
  24356896.737    -3736401.411 9  -2861332.11849  24356895.892    24356902.8654
  23177883.481   -14236843.431 9 -11077930.04149  23177883.265    23177890.1914
  22149956.962   -19038521.225 9 -14238669.27949  22149956.564    22149961.9674
  20627477.112   -27244164.722 9 -20641282.54049  20627476.335    20627481.3464
  24589834.496    -4068012.391 9  -3145892.48349  24589833.792    24589842.2064
  22659109.102   -13735590.510 9 -10680292.91749  22659109.025    22659114.3714
 99  4 22  1 51 30.0000000  0  8 03 23 29 06 21 17 22 26
  22663636.837   -15394182.048 9 -11966270.60449  22663636.491    22663642.1414
  20697656.664   -21080795.196 9 -16100300.53749  20697655.741    20697660.6264
  24336027.142    -3846071.380 9  -2946789.10249  24336026.769    24336034.6794
  23198361.734   -14129230.011 9 -10994075.51449  23198361.788    23198368.4594
  22139467.828   -19093642.014 9 -14281620.51249  22139467.276    22139472.7224
  20630088.385   -27230442.520 9 -20630589.90949  20630087.588    20630092.8134
  24602552.364    -4001180.070 9  -3093815.42249  24602551.648    24602559.1994
  22673474.544   -13660099.896 9 -10621469.06849  22673474.450    22673479.9674
 99  4 22  1 52  0.0000000  0  8 03 23 29 06 21 17 22 26
  22649009.716   -15471048.209 9 -12026166.29449  22649009.557    22649015.1154
  20699434.952   -21071450.113 9 -16093018.65049  20699434.320    20699439.0634
  24315163.626    -3955709.246 9  -3032221.05049  24315162.893    24315170.6574
  23218876.971   -14021421.899 9 -10910069.27749  23218876.526    23218884.4734
  22129022.119   -19148534.203 9 -14324393.61249  22129021.427    22129026.8744
  20632756.048   -27216423.753 9 -20619666.19049  20632755.231    20632760.4684
  24615296.661    -3934208.270 9  -3041629.63249  24615295.466    24615305.2564
  22687917.082   -13584203.500 9 -10562329.03849  22687916.772    22687923.1444
 99  4 22  1 52 30.0000000  0  8 03 23 29 06 21 17 22 26
  22634459.247   -15547511.686 9 -12085748.21249  22634459.190    22634463.9614
  20701269.600   -21061809.144 9 -16085506.20149  20701268.900    20701273.7064
  24294305.797    -4065316.748 9  -3117629.34349  24294303.544    24294312.7414
  23239428.951   -13913420.669 9 -10825912.58149  23239429.068    23239436.2974
  22118622.222   -19203185.808 9 -14366979.24349  22118621.567    22118627.0714
  20635483.853   -27202089.005 9 -20608496.25749  20635483.012    20635488.2684
  24628069.035    -3867089.367 9  -2989329.24849  24628066.474    24628075.2704
  22702437.023   -13507900.426 9 -10502872.12049  22702436.200    22702442.9584
 99  4 22  1 53  0.0000000  0  8 03 23 29 06 21 17 22 26
  22619986.908   -15623564.385 9 -12145010.03949  22619986.409    22619991.8894
  20703163.267   -21051857.718 9 -16077751.83749  20703162.629    20703167.1294
  24273453.352    -4174895.609 9  -3203015.31449  24273453.428    24273461.0384
  23260019.691   -13805216.003 9 -10741597.35249  23260020.493    23260026.2604
  22108270.758   -19257582.948 9 -14409366.59149  22108270.063    22108275.2864
  20638273.494   -27187429.427 9 -20597073.20349  20638272.551    20638277.9094
  24640872.154    -3799808.046 9  -2936902.31649  24640870.400    24640880.3684
  22717035.374   -13431185.581 9 -10443094.35049  22717035.314    22717040.2694
 99  4 22  1 53 30.0000000  0  8 03 23 29 06 21 17 22 26
  22605591.188   -15699214.179 9 -12203957.90149  22605590.495    22605596.0274
  20705115.867   -21041596.524 9 -16069756.08749  20705115.057    20705119.7464
  24252608.129    -4284436.190 9  -3288371.43949  24252608.019    24252615.3434
  23280650.699   -13696799.704 9 -10657117.20049  23280651.251    23280658.5764
  22097969.365   -19311717.267 9 -14451549.13249  22097968.835    22097974.0514
  20641125.615   -27172441.365 9 -20585394.18449  20641124.807    20641130.0574
  24653708.479    -3732353.581 9  -2884340.46149  24653707.813    24653714.8034
  22731715.080   -13354042.899 9 -10382983.18449  22731714.711    22731720.1604
 99  4 22  1 54  0.0000000  0  8 03 23 29 06 21 17 22 26
  22591270.175   -15774471.733 9 -12262600.14349  22591269.799    22591274.5634
  20707130.143   -21031011.274 9 -16061507.83249  20707129.303    20707134.1814
  24231771.886    -4393931.313 9  -3373692.18149  24231771.544    24231777.7884
  23301320.742   -13588178.416 9 -10572477.31649  23301320.232    23301326.3264
  22087718.658   -19365585.123 9 -14493524.04949  22087717.941    22087723.5324
  20644036.658   -27157143.516 9 -20573473.77449  20644035.941    20644041.2674
  24666576.904    -3664730.138 9  -2831646.92849  24666576.345    24666584.2324
  22746480.090   -13276452.273 9 -10322522.96849  22746480.239    22746486.0484
 99  4 22  1 54 30.0000000  0  8 03 23 29 06 21 17 22 26
  22577024.092   -15849335.489 9 -12320935.51549  22577023.932    22577028.8904
  20709206.743   -21020098.468 9 -16053004.34149  20709206.115    20709210.8704
  24210947.081    -4503366.353 9  -3458966.10949  24210947.120    24210954.3464
  23322030.190   -13479350.696 9 -10487676.55549  23322029.895    23322036.6064
  22077520.711   -19419175.631 9 -14535282.84949  22077519.781    22077525.5814
  20647006.557   -27141536.740 9 -20561312.64549  20647005.835    20647011.1544
  24679473.463    -3596958.615 9  -2778837.99549  24679471.288    24679480.6754
  22761330.601   -13198412.234 9 -10261712.57149  22761330.369    22761336.1214
 99  4 22  1 55  0.0000000  0  8 03 23 29 06 21 17 22 26
  22562853.060   -15923804.717 9 -12378963.46249  22562851.993    22562858.0064
  20711343.408   -21008870.310 9 -16044255.11749  20711342.796    20711347.6464
  24190137.504    -4612721.195 9  -3544177.55349  24190137.476    24190144.5544
  23342778.809   -13370316.536 9 -10402714.93549  23342777.811    23342784.1844
  22067375.383   -19472489.496 9 -14576826.08049  22067374.774    22067380.1414
  20650034.746   -27125623.602 9 -20548912.79149  20650033.949    20650039.2104
  24692398.470    -3529036.933 9  -2725912.07949  24692397.619    24692405.2914
  22776268.524   -13119912.672 9 -10200544.08949  22776268.338    22776273.4554
 99  4 22  1 55 30.0000000  0  8 03 23 29 06 21 17 22 26
  22548757.117   -15997879.197 9 -12436683.81649  22548756.261    22548761.7064
  20713536.302   -20997346.620 9 -16035275.61249  20713535.658    20713540.4324
  24169345.105    -4721985.689 9  -3629318.60549  24169344.891    24169352.0734
  23363563.377   -13261093.266 9 -10317605.96849  23363563.741    23363570.8834
  22057279.368   -19525544.136 9 -14618167.31649  22057278.514    22057284.1104
  20653119.676   -27109412.005 9 -20536280.37249  20653118.963    20653124.2444
  24705348.909    -3460982.189 9  -2672882.46749  24705349.702    24705356.2864
  22791292.918   -13040959.287 9 -10139021.99949  22791293.576    22791298.2654
 99  4 22  1 56  0.0000000  0  8 03 23 29 06 21 17 22 26
  22534735.154   -16071564.747 9 -12494101.10949  22534734.428    22534740.3754
  20715781.046   -20985550.277 9 -16026083.65249  20715780.204    20715785.1824
  24148568.044    -4831169.870 9  -3714397.07249  24148567.774    24148575.0174
  23384380.348   -13151699.705 9 -10232364.30949  23384380.160    23384385.9854
  22047229.410   -19578356.984 9 -14659320.14749  22047228.601    22047234.5264
  20656260.861   -27092904.815 9 -20523417.62049  20656259.979    20656265.0144
  24718321.815    -3392809.800 9  -2619761.21649  24718321.932    24718330.0174
  22806402.379   -12961559.255 9 -10077151.84849  22806401.946    22806407.4424
 99  4 22  1 56 30.0000000  0  8 03 23 29 06 21 17 22 26
  22520788.500   -16144854.376 9 -12551209.88949  22520788.233    22520793.7204
  20718073.560   -20973502.938 9 -16016696.10749  20718072.957    20718077.7774
  24127804.316    -4940284.016 9  -3799420.97149  24127803.639    24127810.2974
  23405226.688   -13042151.587 9 -10147002.20749  23405226.769    23405234.5574
  22037220.883   -19630952.146 9 -14700303.34449  22037219.940    22037225.3054
  20659459.039   -27076098.273 9 -20510321.60649  20659458.165    20659463.3934
  24731317.089    -3324519.788 9  -2566548.27649  24731315.417    24731324.5444
  22821593.434   -12881729.485 9 -10014946.86749  22821593.000    22821598.6354
 99  4 22  1 57  0.0000000  0  8 03 23 29 06 21 17 22 26
  22506918.369   -16217742.439 9 -12608005.75049  22506918.065    22506923.4494
  20720411.167   -20961218.753 9 -16007124.00949  20720410.468    20720415.3604
  24107050.378    -5049346.395 9  -3884404.54949  24107049.997    24107057.7894
  23426099.933   -12932461.815 9 -10061529.74149  23426099.669    23426106.0874
  22027250.460   -19683346.585 9 -14741130.14549  22027249.652    22027255.0184
  20662710.988   -27059008.927 9 -20497005.22449  20662710.163    20662715.3194
  24744335.777    -3256106.626 9  -2513239.39649  24744335.133    24744342.9434
  22836863.119   -12801486.855 9  -9952420.15549  22836862.839    22836868.0714
 99  4 22  1 57 30.0000000  0  8 03 23 29 06 21 17 22 26
  22493124.308   -16290231.028 9 -12664490.33849  22493123.325    22493128.7634
  20722793.888   -20948697.282 9 -15997367.01449  20722793.099    20722797.9604
  24086304.183    -5158367.657 9  -3969356.06149  24086302.860    24086311.3564
  23447000.171   -12822630.499 9  -9975946.96149  23446999.370    23447007.1064
  22017319.123   -19735535.668 9 -14781796.92149  22017318.218    22017323.8044
  20666014.811   -27041647.231 9 -20483476.62449  20666014.026    20666019.0214
  24757375.461    -3187582.933 9  -2459844.37949  24757374.276    24757382.8524
  22852204.771   -12720865.762 9  -9889598.54849  22852204.838    22852210.4744
 99  4 22  1 58  0.0000000  0  8 03 23 29 06 21 17 22 26
  22479406.515   -16362318.094 9 -12720662.03449  22479405.991    22479411.4814
  20725226.509   -20935913.931 9 -15987405.95549  20725225.885    20725230.5944
  24065566.968    -5267342.367 9  -4054271.30549  24065565.706    24065573.0574
  23467929.248   -12712647.455 9  -9890245.93349  23467929.920    23467937.1084
  22007430.489   -19787500.510 9 -14822288.96849  22007429.683    22007435.2274
  20669371.584   -27024007.186 9 -20469731.12649  20669370.742    20669376.0484
  24770438.382    -3118936.599 9  -2406353.79749  24770436.534    24770445.1914
  22867617.472   -12639871.390 9  -9826486.06249  22867618.277    22867622.4564
 99  4 22  1 58 30.0000000  0  8 03 23 29 06 21 17 22 26
  22465768.307   -16433987.362 9 -12776508.18349  22465768.252    22465772.5564
  20727714.922   -20922837.091 9 -15977216.20549  20727714.222    20727718.8874
  24044839.582    -5376265.909 9  -4139146.69849  24044840.064    24044845.5174
  23488889.334   -12602501.288 9  -9804417.82049  23488890.000    23488895.5584
  21997587.090   -19839227.775 9 -14862595.88949  21997586.388    21997592.0474
  20672781.660   -27006087.077 9 -20455767.40449  20672780.882    20672786.0374
  24783524.591    -3050168.508 9  -2352768.35449  24783523.404    24783532.0894
  22883100.133   -12558509.899 9  -9763087.52249  22883099.590    22883105.9214
 99  4 22  1 59  0.0000000  0  8 03 23 29 06 21 17 22 26
  22452211.844   -16505227.332 9 -12832019.80149  22452211.427    22452216.7934
  20730262.635   -20909448.722 9 -15966783.70349  20730261.768    20730266.6074
  24024124.883    -5485122.300 9  -4223969.76249  24024123.625    24024132.6494
  23509884.810   -12492169.591 9  -9718445.13649  23509885.005    23509892.6084
  21987795.479   -19890682.896 9 -14902690.74849  21987794.447    21987800.1594
  20676249.180   -26987865.161 9 -20441568.49749  20676248.431    20676253.5224
  24796633.873    -2981278.879 9  -2299088.20349  24796632.519    24796641.4454
  22898654.644   -12476770.695 9  -9699394.66349  22898654.591    22898660.6794
 99  4 22  1 59 30.0000000  0  8 03 23 29 06 21 17 22 26
  22438738.084   -16576032.393 9 -12887192.52049  22438736.896    22438742.6994
  20732871.566   -20895738.754 9 -15956100.61149  20732870.982    20732875.7404
  24003426.819    -5593891.082 9  -4308724.54449  24003426.284    24003433.8164
  23530915.477   -12381653.395 9  -9632328.66849  23530913.258    23530923.4604
  21978056.540   -19941861.187 9 -14942569.90049  21978055.719    21978061.2594
  20679779.798   -26969311.701 9 -20427111.25349  20679779.027    20679784.1994
  24809765.429    -2912272.231 9  -2245316.86049  24809765.137    24809772.3194
  22914285.078   -12394632.253 9  -9635390.71849  22914284.991    22914291.5564
 99  4 22  2  0  0.0000000  0  8 03 23 29 06 21 17 22 26
  22425351.205   -16646380.853 9 -12942009.45449  22425350.533    22425356.6394
  20735542.078   -20881705.063 9 -15945165.26649  20735541.443    20735546.2754
  23982746.495    -5702566.383 9  -4393406.46049  23982745.970    23982751.6594
  23551979.678   -12270960.538 9  -9546074.56249  23551980.543    23551985.6784
  21968368.212   -19992773.374 9 -14982241.70049  21968367.326    21968372.9684
  20683376.678   -26950409.911 9 -20412382.57849  20683375.847    20683381.0594
  24822918.549    -2843152.004 9  -2191457.02449  24822918.381    24822926.6564
  22929996.198   -12312069.399 9  -9571056.05949  22929996.124    22930002.4984
 99  4 22  2  0 30.0000000  0  8 03 23 29 06 21 17 22 26
  22412051.553   -16716270.900 9 -12996469.17249  22412050.600    22412056.1124
  20738268.539   -20867377.241 9 -15934000.72649  20738267.846    20738272.6064
  23962084.390    -5811145.805 9  -4478013.67549  23962082.206    23962090.8154
  23573075.300   -12160102.273 9  -9459691.56749  23573075.649    23573082.1864
  21958728.770   -20043428.778 9 -15021713.41049  21958728.099    21958733.6024
  20687040.192   -26931157.916 9 -20397381.02149  20687039.371    20687044.5194
  24836089.064    -2773941.103 9  -2137526.53049  24836087.844    24836096.4034
  22945786.550   -12229090.839 9  -9506397.46949  22945787.332    22945791.7624
 99  4 22  2  1  0.0000000  0  8 03 23 29 06 21 17 22 26
  22398836.732   -16785714.747 9 -13050581.20349  22398836.078    22398841.4074
  20741045.974   -20852781.758 9 -15922627.62549  20741045.333    20741049.9874
  23941442.279    -5919619.692 9  -4562538.62149  23941441.825    23941448.6274
  23594199.626   -12049093.850 9  -9373191.54349  23594198.127    23594207.4974
  21949136.044   -20093838.965 9 -15060994.04749  21949135.490    21949140.4344
  20690771.319   -26911550.668 9 -20382102.64649  20690770.528    20690776.0214
  24849277.694    -2704634.124 9  -2083521.16849  24849277.543    24849283.6254
  22961654.935   -12145702.556 9  -9441419.61649  22961655.287    22961660.2484
 99  4 22  2  1 30.0000000  0  8 03 23 29 06 21 17 22 26
  22385705.546   -16854719.395 9 -13104350.99349  22385704.899    22385710.5224
  20743872.713   -20837927.135 9 -15911052.59249  20743871.866    20743876.9064
  23920819.303    -6027993.874 9  -4646985.89649  23920819.341    23920825.3334
  23615349.907   -11937948.641 9  -9286584.93249  23615349.804    23615355.8854
  21939585.653   -20144026.453 9 -15100101.14749  21939584.762    21939590.6334
  20694567.240   -26891602.982 9 -20366558.99249  20694566.410    20694571.7544
  24862485.595    -2635226.589 9  -2029437.43249  24862484.900    24862493.6044
  22977599.702   -12061912.814 9  -9376128.91749  22977600.048    22977605.1124
 99  4 22  2  2  0.0000000  0  8 03 23 29 06 21 17 22 26
  22372655.385   -16923297.909 9 -13157788.73949  22372654.484    22372660.1214
  20746747.079   -20822822.271 9 -15899282.56949  20746746.336    20746751.2104
  23900214.228    -6136273.706 9  -4731359.65649  23900213.137    23900219.6984
  23636527.387   -11826660.965 9  -9199867.30549  23636526.423    23636534.4304
  21930078.353   -20193987.402 9 -15139031.72749  21930077.593    21930082.8314
  20698423.045   -26871340.411 9 -20350769.97549  20698422.101    20698427.3684
  24875713.544    -2565713.652 9  -1975271.59349  24875712.223    24875722.4034
  22993618.288   -11977734.694 9  -9310535.59249  22993618.019    22993623.5344
 99  4 22  2  2 30.0000000  0  8 03 23 29 06 21 17 22 26
  22359682.958   -16991468.198 9 -13210908.38649  22359681.654    22359687.8294
  20749668.968   -20807467.431 9 -15887317.76049  20749668.294    20749672.9174
  23879627.323    -6244458.223 9  -4815659.12149  23879626.359    23879633.8664
  23657733.780   -11715221.238 9  -9113031.21349  23657733.712    23657741.2444
  21920615.455   -20243715.387 9 -15177780.77649  21920614.734    21920620.2154
  20702336.981   -26850772.615 9 -20334743.12249  20702336.251    20702341.2134
  24888962.772    -2496089.080 9  -1921018.73649  24888962.150    24888970.0604
  23009709.420   -11893175.149 9  -9244645.08049  23009709.410    23009714.9324
 99  4 22  2  3  0.0000000  0  7 03 23 29 06 21 17 26
  22346785.378   -17059245.556 9 -13263721.84849  22346785.093    22346789.8414
  20752637.760   -20791866.223 9 -15875160.97349  20752636.928    20752641.8874
  23859054.381    -6352569.002 9  -4899901.15349  23859053.581    23859060.6194
  23678965.194   -11603649.728 9  -9026092.41849  23678964.264    23678972.1234
  21911191.029   -20293240.983 9 -15216372.12549  21911190.488    21911195.4734
  20706304.033   -26829925.738 9 -20318498.79949  20706303.135    20706308.2844
  23025871.377   -11808243.480 9  -9178464.57649  23025870.681    23025877.7774
 99  4 22  2  3 30.0000000  0  7 03 23 29 06 21 17 26
  22333968.297   -17126599.262 9 -13316205.19849  22333967.286    22333973.2194
  20755657.645   -20775996.635 9 -15862795.05849  20755656.798    20755661.8874
  23838499.083    -6460587.287 9  -4984071.09849  23838498.341    23838505.0124
  23700225.423   -11491926.466 9  -8939035.39049  23700224.886    23700232.0944
  21901808.249   -20342547.698 9 -15254792.91049  21901807.314    21901812.7994
  20710326.354   -26808788.153 9 -20302027.95149  20710325.510    20710330.6224
  23042107.663   -11722920.642 9  -9111979.29549  23042106.632    23042113.4864
 99  4 22  2  4  0.0000000  0  7 03 23 29 06 21 17 26
  22321234.456   -17193515.709 9 -13368347.82649  22321233.901    22321239.5524
  20758726.551   -20759869.435 9 -15850228.40649  20758725.803    20758730.7644
  23817962.666    -6568506.242 9  -5068163.64849  23817962.468    23817968.5854
  23721513.209   -11380058.047 9  -8851865.23249  23721512.099    23721519.6404
  21892467.252   -20391634.595 9 -15293042.41149  21892466.381    21892471.8814
  20714405.549   -26787351.865 9 -20285324.35249  20714404.726    20714409.9184
  23058417.591   -11637210.867 9  -9045192.48149  23058417.680    23058423.4474
 99  4 22  2  4 30.0000000  0  7 03 23 29 06 21 17 26
  22308584.230   -17259992.830 9 -13420148.13149  22308583.229    22308588.3874
  20761841.925   -20743497.993 9 -15837471.43249  20761841.156    20761846.0384
  23797442.341    -6676340.217 9  -5152189.98049  23797441.524    23797448.8994
  23742824.247   -11268067.845 9  -8764600.20749  23742824.315    23742831.4264
  21883164.045   -20440523.014 9 -15331137.25649  21883163.401    21883168.8514
  20718541.078   -26765619.392 9 -20268389.95549  20718540.213    20718545.2924
  23074798.900   -11551126.423 9  -8978113.72149  23074798.609    23074804.7844
 99  4 22  2  5  0.0000000  0  7 03 23 29 06 21 17 26
  22296018.073   -17326028.091 9 -13471604.12349  22296017.458    22296022.7124
  20765002.615   -20726888.171 9 -15824528.71149  20765001.838    20765006.8634
  23776938.869    -6784085.813 9  -5236147.43449  23776937.938    23776944.8324
  23764153.344   -11155982.589 9  -8677261.11749  23764152.839    23764160.8474
  21873899.577   -20489208.121 9 -15369073.67449  21873898.585    21873903.9594
  20722733.513   -26743587.795 9 -20251222.47749  20722732.691    20722737.8414
  23091250.492   -11464672.729 9  -8910747.23549  23091251.249    23091256.2694
 99  4 22  2  5 30.0000000  0  7 03 23 29 06 21 17 26
  22283534.938   -17391627.299 9 -13522720.34449  22283534.340    22283539.5604
  20768207.668   -20710045.578 9 -15811404.61049  20768206.979    20768211.9704
  23756452.912    -6891739.748 9  -5320033.48149  23756452.520    23756458.9904
  23785498.911   -11043810.433 9  -8589854.32149  23785498.392    23785507.4864
  21864677.430   -20537670.668 9 -15406836.67049  21864676.699    21864681.6704
  20726984.557   -26721248.549 9 -20233815.27549  20726983.868    20726989.0114
  23107770.339   -11377861.115 9  -8843101.83949  23107770.653    23107776.4314
 99  4 22  2  6  0.0000000  0  7 03 23 29 06 21 17 26
  22271135.085   -17456788.845 9 -13573495.52849  22271134.414    22271139.5874
  20771461.636   -20692945.917 9 -15798080.19149  20771460.747    20771465.7734
  23735984.899    -6999299.412 9  -5403846.07449  23735984.520    23735991.4204
  23806861.295   -10931550.590 9  -8502379.18049  23806861.992    23806869.4284
  21855501.791   -20585888.718 9 -15444409.14449  21855501.131    21855506.3154
  20731294.238   -26698600.916 9 -20216167.76949  20731293.624    20731298.5984
  23124358.063   -11290692.042 9  -8775177.90549  23124357.900    23124364.0004
 99  4 22  2  6 30.0000000  0  7 03 23 29 06 21 17 26
  22258818.900   -17521510.858 9 -13623928.22849  22258818.401    22258823.6234
  20774769.856   -20675561.069 9 -15784533.55449  20774769.227    20774773.9194
  23715536.245    -7106757.407 9  -5487579.44649  23715535.796    23715542.5614
  23828242.078   -10819194.939 9  -8414829.37349  23828240.972    23828248.7884
  21846377.240   -20633838.367 9 -15481772.47749  21846376.708    21846381.8684
  20735663.587   -26675640.078 9 -20198276.20749  20735662.859    20735668.0494
  23141015.801   -11203155.361 9  -8706967.51649  23141015.239    23141022.1434
 99  4 22  2  7  0.0000000  0  7 03 23 29 06 21 17 26
  22246590.244   -17585772.539 9 -13674002.23049  22246589.327    22246594.5964
  20778134.685   -20657878.802 9 -15770755.15749  20778133.977    20778138.8574
  23695111.546    -7214089.032 9  -5571214.32649  23695110.816    23695117.6814
  23849643.669   -10706728.809 9  -8327193.48949  23849643.665    23849650.0844
  21837308.159   -20681496.712 9 -15518908.81649  21837307.327    21837312.7144
  20740095.679   -26652349.324 9 -20180127.56249  20740094.721    20740100.0884
  23157743.502   -11115250.804 9  -8638470.48649  23157743.868    23157749.5254
 99  4 22  2  7 30.0000000  0  7 03 23 29 06 21 17 26
  22234453.443   -17649551.562 9 -13723700.13249  22234452.679    22234458.2684
  20781557.314   -20639892.868 9 -15756740.13549  20781556.588    20781561.5334
  23674712.611    -7321285.577 9  -5654743.95649  23674711.528    23674718.9434
  23871071.684   -10594123.491 9  -8239449.12249  23871071.991    23871078.9744
  21828293.874   -20728866.867 9 -15555820.59549  21828293.077    21828298.4974
  20744592.658   -26628717.260 9 -20161712.96349  20744591.728    20744596.9784
  23174539.744   -11026986.688 9  -8569693.25249  23174539.650    23174545.3544
 99  4 22  2  8  0.0000000  0  7 03 23 29 06 21 17 26
  22222411.080   -17712834.293 9 -13773011.31649  22222410.196    22222416.0894
  20785036.220   -20621611.139 9 -15742494.62449  20785035.499    20785040.3414
  23654338.747    -7428350.525 9  -5738171.04849  23654337.183    23654343.8524
  23892527.906   -10481370.283 9  -8151589.52149  23892527.987    23892536.4374
  21819331.506   -20775964.446 9 -15592519.97449  21819330.902    21819336.0894
  20749154.094   -26604746.633 9 -20143034.54549  20749153.220    20749158.3704
  23191406.555   -10938351.092 9  -8500626.57049  23191406.873    23191412.3454
 99  4 22  2  8 30.0000000  0  8 03 23 29 09 06 21 17 26
  22210462.400   -17775624.778 9 -13821938.93449  22210461.907    22210467.1924
  20788564.991   -20603067.207 9 -15728044.79949  20788564.147    20788569.0084
  23633991.567    -7535275.256 9  -5821488.88449  23633990.509    23633997.4834
  24487460.366    -5174397.80519  -4003613.21859  24487459.734    24487465.6894
  23914011.644   -10368471.927 9  -8063616.81849  23914011.624    23914018.6914
  21810415.230   -20822819.762 9 -15629030.58249  21810414.744    21810419.8544
  20753781.169   -26580431.223 9 -20124087.46649  20753780.307    20753785.4044
  23208341.381   -10849357.867 9  -8431281.22949  23208340.800    23208346.8324
 99  4 22  2  9  0.0000000  0  8 03 23 29 09 06 21 17 26
  22198606.697   -17837926.653 9 -13870485.82049  22198605.925    22198611.5924
  20792141.297   -20584273.457 9 -15713400.31049  20792140.461    20792145.4784
  23613670.548    -7642061.966 9  -5904699.16849  23613669.437    23613676.3664
  24475771.401    -5235823.911 9  -4051477.61349  24475771.216    24475776.9824
  23935523.261   -10255427.614 9  -7975530.37949  23935522.603    23935530.0114
  21801540.718   -20869455.483 9 -15665370.07049  21801539.958    21801545.2034
  20758472.316   -26555778.874 9 -20104877.83949  20758471.549    20758476.6584
  23225341.522   -10760021.875 9  -8361668.78149  23225341.940    23225347.0514
 99  4 22  2  9 30.0000000  0  8 03 23 29 09 06 21 17 26
  22186841.224   -17899754.403 9 -13918663.26649  22186840.450    22186845.8654
  20795763.203   -20565240.231 9 -15698569.22149  20795762.373    20795767.3434
  23593372.875    -7748725.092 9  -5987813.14249  23593371.179    23593378.1124
  24464128.359    -5297007.684 9  -4099153.22149  24464127.907    24464134.5514
  23957059.692   -10142252.147 9  -7887341.76649  23957059.843    23957066.9294
  21792704.583   -20915889.540 9 -15701552.42949  21792704.025    21792709.1534
  20763224.010   -26530808.433 9 -20085420.34749  20763223.260    20763228.4734
  23242406.847   -10670343.158 9  -8291789.28049  23242406.097    23242411.8574
 99  4 22  2 10  0.0000000  0  8 03 23 29 09 06 21 17 26
  22175162.639   -17961125.650 9 -13966484.99349  22175162.514    22175167.2874
  20799428.658   -20545978.172 9 -15683559.82149  20799427.846    20799432.8524
  23573098.937    -7855264.320 9  -6070830.58149  23573097.954    23573105.0714
  24452531.701    -5357948.052 9  -4146639.17549  24452531.485    24452537.3834
  23978616.847   -10028968.585 9  -7799068.89549  23978617.379    23978625.0494
  21783906.522   -20962123.532 9 -15737578.88749  21783905.836    21783911.0234
  20768033.253   -26505535.608 9 -20065727.22949  20768032.560    20768037.7264
  23259539.582   -10580310.398 9  -8221633.91049  23259539.446    23259545.0674
 99  4 22  2 10 30.0000000  0  8 03 23 29 09 06 21 17 26
  22163568.040   -18022055.703 9 -14013962.93249  22163567.442    22163572.8154
  20803137.778   -20526486.272 9 -15668371.32349  20803136.908    20803141.9794
  23552849.912    -7961673.714 9  -6153746.84449  23552848.952    23552855.9434
  24440983.349    -5418635.127 9  -4193927.72349  24440981.770    24440988.1584
  24000192.509    -9915589.001 9  -7710721.19649  24000192.183    24000199.8714
  21775146.327   -21008158.574 9 -15773450.32149  21775145.660    21775150.7834
  20772899.615   -26479962.808 9 -20045800.36749  20772899.061    20772904.0444
  23276736.028   -10489942.331 9  -8151217.24749  23276735.811    23276741.7874
 99  4 22  2 11  0.0000000  0  8 03 23 29 09 06 21 17 26
  22152059.558   -18082533.056 9 -14061088.11649  22152058.859    22152064.1504
  20806890.852   -20506763.613 9 -15653003.00749  20806890.130    20806895.0094
  23532623.451    -8067963.459 9  -6236569.87649  23532622.944    23532629.2934
  24429481.606    -5479076.537 9  -4241024.85649  24429480.952    24429486.3464
  24021783.086    -9802130.068 9  -7622311.65549  24021782.996    24021789.5894
  21766427.848   -21053974.334 9 -15809150.87949  21766427.006    21766432.5684
  20777823.216   -26454089.188 9 -20025639.09249  20777822.403    20777827.4974
  23293997.472   -10399232.997 9  -8080534.66249  23293996.722    23294002.6174
 99  4 22  2 11 30.0000000  0  8 03 23 29 09 06 21 17 26
  22140637.937   -18142553.847 9 -14107857.53849  22140637.636    22140642.5824
  20810686.209   -20486818.941 9 -15637461.70349  20810685.772    20810690.5034
  23512420.609    -8174128.827 9  -6319296.00349  23512419.840    23512426.9274
  24418027.576    -5539267.140 9  -4287926.52049  24418025.912    24418032.9364
  24043386.031    -9688606.158 9  -7533851.51449  24043384.691    24043393.1974
  21757753.644   -21099557.407 9 -15844670.12949  21757752.841    21757758.0774
  20782805.060   -26427909.497 9 -20005239.32449  20782804.474    20782809.4284
  23311323.327   -10308184.750 9  -8009588.00349  23311322.597    23311329.5614
 99  4 22  2 12  0.0000000  0  8 03 23 29 09 06 21 17 26
  22129303.155   -18202118.293 9 -14154271.37649  22129302.393    22129307.7234
  20814525.862   -20466641.235 9 -15621738.80849  20814525.124    20814530.1304
  23492241.971    -8280167.560 9  -6401923.45349  23492242.009    23492248.3034
  24406622.915    -5599198.135 9  -4334625.93149  24406622.347    24406629.9304
  24065001.220    -9575017.089 9  -7445340.61249  24065001.196    24065007.2544
  21749123.411   -21144909.517 9 -15880009.40849  21749122.506    21749127.6554
  20787847.635   -26401410.705 9 -19984590.90549  20787846.773    20787852.0194
  23328710.052   -10216816.642 9  -7938392.08449  23328709.600    23328715.7464
 99  4 22  2 12 30.0000000  0  8 03 23 29 09 06 21 17 26
  22118060.964   -18261196.310 9 -14200306.16549  22118060.475    22118065.4734
  20818414.483   -20446206.496 9 -15605815.63049  20818413.792    20818418.5754
  23472089.233    -8386070.508 9  -6484445.10049  23472089.391    23472095.7684
  24395269.137    -5658863.144 9  -4381118.07749  24395268.937    24395274.2724
  24086631.601    -9461348.319 9  -7356767.59449  24086631.672    24086639.3384
  21740538.231   -21190024.590 9 -15915163.98549  21740537.589    21740542.5104
  20792954.883   -26374571.975 9 -19963677.59849  20792954.217    20792959.0764
  23346154.356   -10125146.061 9  -7866960.48149  23346154.524    23346160.5074
 99  4 22  2 13  0.0000000  0  8 03 23 29 09 06 21 17 26
  22106915.333   -18319766.712 9 -14245945.41749  22106915.031    22106919.8164
  20822354.330   -20425502.242 9 -15589682.44149  20822353.545    20822358.3174
  23451964.064    -8491828.339 9  -6566853.66749  23451964.293    23451970.1154
  24383968.168    -5718249.936 9  -4427393.42949  24383968.740    24383973.6144
  24108279.553    -9347587.994 9  -7268123.21949  24108280.315    24108286.2504
  21732000.410   -21234890.953 9 -15950124.75449  21731999.710    21732004.6904
  20798126.294   -26347395.738 9 -19942501.29749  20798125.487    20798130.6674
  23363656.935   -10033169.896 9  -7795290.75349  23363656.617    23363662.5144
 99  4 22  2 13 30.0000000  0  8 03 23 29 09 06 21 17 26
  22095865.664   -18377833.429 9 -14291192.18449  22095865.041    22095869.7604
  20826348.982   -20404510.076 9 -15573324.90249  20826348.339    20826353.0984
  23431869.349    -8597426.025 9  -6649137.44749  23431868.335    23431875.9874
  24372722.689    -5777345.012 9  -4473441.46249  24372722.715    24372728.4684
  24129948.162    -9233719.418 9  -7179394.47349  24129948.174    24129956.2774
  21723507.976   -21279518.819 9 -15984899.68649  21723507.189    21723512.3224
  20803361.457   -26319884.837 9 -19921064.21749  20803360.553    20803365.5224
  23381218.550    -9940883.140 9  -7723379.00749  23381218.639    23381224.7814
 99  4 22  2 14  0.0000000  0  8 03 23 29 09 06 21 17 26
  22084914.524   -18435381.789 9 -14336035.04149  22084913.952    22084918.8614
  20830399.141   -20383226.385 9 -15556740.20949  20830398.535    20830403.4054
  23411806.153    -8702858.371 9  -6731292.40849  23411805.924    23411811.7704
  24361532.235    -5836151.518 9  -4519264.64249  24361532.512    24361538.4274
  24151637.375    -9119742.461 9  -7090581.27849  24151637.919    24151646.0574
  21715060.184   -21323912.195 9 -16019491.89849  21715059.367    21715064.9844
  20808661.896   -26292030.495 9 -19899359.52149  20808661.184    20808666.2164
  23398841.358    -9848274.079 9  -7651216.11149  23398842.179    23398846.4934
 99  4 22  2 14 30.0000000  0  8 03 23 29 09 06 21 17 26
  22074062.593   -18492408.663 9 -14380471.54549  22074061.765    22074067.1384
  20834498.321   -20361684.908 9 -15539954.64049  20834497.657    20834502.4804
  23391773.379    -8808130.737 9  -6813322.70549  23391773.402    23391778.8704
  24350395.443    -5894675.100 9  -4564867.35249  24350394.713    24350401.3254
  24173345.261    -9005667.141 9  -7001691.42449  24173344.782    24173352.7144
  21706658.166   -21368064.729 9 -16053896.43849  21706657.354    21706662.6504
  20814025.589   -26263843.926 9 -19877395.94749  20814024.800    20814029.8674
  23416527.171    -9755334.761 9  -7578795.89349  23416527.295    23416532.9074
 99  4 22  2 15  0.0000000  0  8 03 23 29 09 06 21 17 26
  22063305.304   -18548938.598 9 -14424520.81549  22063304.792    22063309.7894
  20838640.460   -20339917.839 9 -15522993.28049  20838639.830    20838644.5154
  23371768.171    -8913257.886 9  -6895239.84449  23371768.491    23371774.2544
  24339313.641    -5952909.609 9  -4610244.80349  24339313.484    24339319.2974
  24195067.510    -8891516.522 9  -6912742.91949  24195067.473    24195075.0154
  21698301.567   -21411978.715 9 -16088115.09649  21698300.879    21698306.0774
  20819449.842   -26235339.134 9 -19855184.40749  20819449.035    20819454.1824
  23434276.320    -9662062.254 9  -7506116.03549  23434275.429    23434282.2544
 99  4 22  2 15 30.0000000  0  8 03 23 29 09 06 21 17 26
  22052639.594   -18604987.198 9 -14468195.02849  22052639.166    22052644.0754
  20842821.037   -20317948.957 9 -15505874.66449  20842820.466    20842825.2854
  23351788.728    -9018249.972 9  -6977051.73049  23351787.984    23351795.0554
  24328284.782    -6010865.871 9  -4655405.47149  24328284.179    24328290.5434
  24216800.056    -8777311.643 9  -6823752.16849  24216800.178    24216807.5574
  21689989.480   -21455658.942 9 -16122151.61049  21689988.623    21689994.0974
  20824937.078   -26206503.427 9 -19832715.01449  20824936.377    20824941.4584
  23452087.320    -9568464.793 9  -7433182.96849  23452086.518    23452092.8014
 99  4 22  2 16  0.0000000  0  8 03 23 29 09 06 21 17 26
  22042065.243   -18660555.727 9 -14511495.14849  22042064.646    22042069.7914
  20847038.703   -20295785.036 9 -15488604.07549  20847038.066    20847042.8444
  23331834.411    -9123110.198 9  -7058760.88749  23331833.917    23331840.8034
  24317308.021    -6068548.613 9  -4700352.95749  24317308.448    24317313.0864
  24238542.857    -8663052.110 9  -6734718.81049  24238543.196    24238549.6594
  21681723.700   -21499095.977 9 -16155998.61849  21681722.806    21681728.1324
  20830486.636   -26177340.309 9 -19809990.49149  20830485.715    20830490.7984
  23469957.374    -9474557.004 9  -7360008.09449  23469957.027    23469962.9894
 99  4 22  2 16 30.0000000  0  8 03 23 29 09 06 21 17 26
  22031578.919   -18715661.609 9 -14554434.76749  22031578.356    22031583.3504
  20851295.374   -20273416.010 9 -15471173.65949  20851294.519    20851299.3824
  23311906.823    -9227829.932 9  -7140360.57849  23311906.563    23311912.7274
  24306384.525    -6125951.575 9  -4745082.46749  24306384.640    24306390.6494
  24260298.523    -8548724.987 9  -6645632.75549  24260296.556    24260308.3834
  21673505.070   -21542284.762 9 -16189652.19049  21673504.295    21673509.7404
  20836096.489   -26147860.163 9 -19787018.93349  20836095.581    20836100.7914
  23487885.099    -9380346.681 9  -7286597.47849  23487884.826    23487891.1224
 99  4 22  2 17  0.0000000  0  8 03 23 29 09 06 21 17 26
  22021181.189   -18770301.746 9 -14597011.46649  22021180.474    22021185.7234
  20855596.195   -20250814.685 9 -15453562.23649  20855595.492    20855600.3634
  23292010.057    -9332387.484 9  -7221833.87649  23292009.637    23292016.6614
  24295514.764    -6183072.422 9  -4789592.14949  24295514.435    24295520.8824
  24282068.938    -8434319.935 9  -6556485.99249  24282067.874    24282077.3424
  21665332.870   -21585229.776 9 -16223115.81149  21665332.402    21665337.3764
  20841766.903   -26118061.758 9 -19763799.37849  20841766.126    20841770.9944
  23505870.223    -9285834.308 9  -7212951.49649  23505869.555    23505875.3514
 99  4 22  2 17 30.0000000  0  8 03 23 29 09 06 21 17 26
  22010874.026   -18824466.035 9 -14639217.38149  22010873.549    22010879.0164
  20859945.201   -20227960.495 9 -15435753.76949  20859944.461    20859949.2924
  23272148.367    -9436761.223 9  -7303163.94749  23272148.207    23272154.4274
  24284696.831    -6239920.656 9  -4833889.37649  24284695.915    24284703.0454
  24303856.031    -8319827.374 9  -6467271.02549  24303854.662    24303863.2464
  21657206.326   -21627935.092 9 -16256392.65349  21657205.629    21657210.9864
  20847497.600   -26087946.735 9 -19740333.11549  20847496.508    20847501.7644
  23523913.944    -9191013.145 9  -7139064.90749  23523913.314    23523920.4014
 99  4 22  2 18  0.0000000  0  8 03 23 29 09 06 21 17 26
  22000659.889   -18878141.577 9 -14681042.44649  22000659.201    22000664.6094
  20864344.454   -20204842.139 9 -15417739.46249  20864343.526    20864348.3944
  23252322.747    -9540945.459 9  -7384346.36449  23252322.152    23252328.5204
  24273934.510    -6296476.100 9  -4877958.48249  24273933.755    24273940.8654
  24325661.979    -8205236.463 9  -6377979.44849  24325661.505    24325669.3694
  21649123.954   -21670408.192 9 -16289488.54849  21649123.314    21649128.3524
  20853287.365   -26057521.196 9 -19716624.89149  20853286.610    20853291.8074
  23542017.506    -9095877.947 9  -7064933.60749  23542017.510    23542023.0684
 99  4 22  2 18 30.0000000  0  8 03 23 29 09 06 21 17 26
  21990540.539   -18931319.128 9 -14722479.47749  21990539.976    21990544.9534
  20868789.156   -20181484.977 9 -15399539.06949  20868788.578    20868793.3044
  23232532.980    -9644941.351 9  -7465382.01849  23232532.822    23232538.5784
  24263229.119    -6352733.043 9  -4921794.94949  24263229.126    24263236.1044
  24347483.320    -8090565.021 9  -6288625.09649  24347482.678    24347489.9354
  21641083.186   -21712662.771 9 -16322414.17049  21641082.520    21641087.5544
  20859137.789   -26026776.757 9 -19692668.17449  20859136.880    20859142.1344
  23560180.618    -9000430.624 9  -6990559.10149  23560180.766    23560186.4294
 99  4 22  2 19  0.0000000  0  8 03 23 29 09 06 21 17 26
  21980518.083   -18983987.258 9 -14763519.55549  21980517.644    21980522.5934
  20873275.907   -20157906.749 9 -15381166.41449  20873275.362    20873280.2694
  23212776.410    -9748762.069 9  -7546281.16449  23212776.649    23212781.5714
  24252578.835    -6408701.201 9  -4965406.42449  24252578.369    24252585.2264
  24369314.814    -7975840.153 9  -6199229.10149  24369313.955    24369322.3694
  21633081.798   -21754710.341 9 -16355178.48649  21633081.090    21633086.2984
  20865050.049   -25995707.464 9 -19668458.32249  20865049.297    20865054.3724
  23578400.362    -8904686.020 9  -6915952.93849  23578400.953    23578406.4024
 99  4 22  2 19 30.0000000  0  8 03 23 29 09 06 21 17 26
  21970592.409   -19036146.909 9 -14804163.40849  21970591.636    21970596.6034
  20877802.887   -20134117.312 9 -15362629.18449  20877802.348    20877807.1524
  23193050.226    -9852423.694 9  -7627056.34849  23193049.556    23193056.5704
  24241985.512    -6464369.241 9  -5008784.03049  24241985.113    24241991.5134
  24391154.071    -7861074.867 9  -6109801.63049  24391153.386    24391161.3074
  21625119.995   -21796549.682 9 -16387780.54649  21625119.142    21625124.5184
  20871027.099   -25964297.719 9 -19643983.19049  20871026.349    20871031.4104
  23596674.923    -8808652.760 9  -6841121.84549  23596674.502    23596680.2584
 99  4 22  2 20  0.0000000  0  8 03 23 29 09 06 21 17 26
  21960766.634   -19087781.646 9 -14844398.24449  21960766.058    21960771.0384
  20882366.622   -20110134.679 9 -15343941.41349  20882365.879    20882370.7884
  23173352.898    -9955933.359 9  -7707713.10349  23173352.682    23173358.6864
  24231452.172    -6519722.673 9  -5051916.49049  24231451.965    24231457.7454
  24412999.885    -7746274.597 9  -6020346.86849  24412998.693    24413007.5104
  21617199.805   -21838170.334 9 -16420212.19949  21617199.015    21617204.3344
  20877071.182   -25932535.878 9 -19619233.69649  20877070.465    20877075.5814
  23615003.030    -8712337.487 9  -6766071.01549  23615003.034    23615008.1264
 99  4 22  2 20 30.0000000  0  8 03 23 29 09 06 21 17 26
  21951039.925   -19138895.493 9 -14884227.19149  21951039.412    21951044.5254
  20886966.712   -20085960.858 9 -15325104.66749  20886966.074    20886970.9944
  23153686.613   -10059280.139 9  -7788242.95249  23153686.716    23153692.1574
  24220975.011    -6574779.963 9  -5094818.19449  24220974.039    24220981.1584
  24434849.089    -7631455.992 9  -5930877.80549  24434848.646    24434856.5244
  21609321.231   -21879572.391 9 -16452473.52349  21609320.529    21609325.7554
  20883181.828   -25900424.464 9 -19594211.80849  20883180.955    20883186.0134
  23633383.242    -8615748.124 9  -6690806.60149  23633383.279    23633389.7914
 99  4 22  2 21  0.0000000  0  8 03 23 29 09 06 21 17 26
  21941410.812   -19189496.639 9 -14923656.63049  21941410.528    21941415.7324
  20891607.615   -20061572.915 9 -15306101.06949  20891606.951    20891611.8144
  23134053.489   -10162452.553 9  -7868636.91949  23134052.918    23134059.0974
  24210557.299    -6629525.202 9  -5137476.76149  24210556.910    24210562.1114
  24456700.888    -7516623.818 9  -5841398.20449  24456700.848    24456708.6264
  21601484.695   -21920753.649 9 -16484562.79249  21601484.194    21601489.2074
  20889358.342   -25867966.662 9 -19568920.00849  20889357.579    20889362.7084
  23651814.792    -8518889.655 9  -6615332.47949  23651813.920    23651819.9524
 99  4 22  2 21 30.0000000  0  8 03 23 29 09 06 21 17 26
  21931880.171   -19239580.651 9 -14962683.10649  21931879.646    21931884.6954
  20896289.067   -20036971.690 9 -15286931.27949  20896288.540    20896293.3614
  23114455.751   -10265439.077 9  -7948886.03349  23114455.006    23114461.5034
  24200204.127    -6683931.488 9  -5179871.20749  24200203.608    24200209.2124
  24478558.414    -7401761.946 9  -5751895.41549  24478557.607    24478566.5814
  21593692.218   -21961703.032 9 -16516471.38049  21593691.478    21593696.5434
  20895600.454   -25835164.150 9 -19543359.60449  20895599.557    20895604.5674
  23670298.887    -8421754.650 9  -6539642.89349  23670298.433    23670304.7514
 99  4 22  2 22  0.0000000  0  8 03 23 29 09 06 21 17 26
  21922448.288   -19289145.632 9 -15001305.14749  21922447.365    21922453.0864
  20901010.216   -20012162.048 9 -15267599.08049  20901009.612    20901014.3624
  23094895.950   -10368225.490 9  -8028979.22449  23094895.377    23094901.2964
  24189913.708    -6738006.752 9  -5222007.70149  24189913.082    24189919.9044
  24500421.920    -7286869.154 9  -5662368.51249  24500422.640    24500428.6454
  21585941.806   -22002431.432 9 -16548207.77649  21585941.184    21585946.1904
  20901904.747   -25802034.905 9 -19517544.60349  20901904.103    20901909.0524
  23688834.370    -8324350.115 9  -6463743.25549  23688834.751    23688840.7824
 99  4 22  2 22 30.0000000  0  7 03 23 29 09 21 17 26
  21913112.658   -19338204.141 9 -15039532.53149  21913112.248    21913117.0564
  20905774.120   -19987127.592 9 -15248091.70649  20905773.314    20905778.3304
  23075374.354   -10470811.514 9  -8108916.26949  23075374.001    23075379.9434
  24179687.507    -6791745.463 9  -5263881.95249  24179686.891    24179693.0504
  21578230.145   -22042956.462 9 -16579785.70349  21578229.652    21578234.5014
  20908271.660   -25768576.458 9 -19491473.08049  20908270.376    20908275.7954
  23707417.773    -8226693.912 9  -6387647.54849  23707417.596    23707423.7894
 99  4 22  2 23  0.0000000  0  7 03 23 29 09 21 17 26
  21903873.293   -19386756.866 9 -15077365.80149  21903872.285    21903877.9774
  20910579.124   -19961876.729 9 -15228415.70349  20910578.478    20910583.4394
  23055886.190   -10573222.430 9  -8188716.88549  23055886.442    23055891.5654
  24169526.235    -6845143.175 9  -5305490.49949  24169525.726    24169531.1504
  21570557.592   -22083275.887 9 -16611203.41949  21570556.914    21570562.1024
  20914699.360   -25734798.534 9 -19465152.61749  20914698.645    20914703.7954
  23726046.652    -8128799.002 9  -6311365.82649  23726045.710    23726051.5104
 99  4 22  2 23 30.0000000  0  8 03 23 29 09 21 17 26 31
  21894732.412   -19434792.233 9 -15114795.93549  21894732.002    21894737.1854
  20915424.885   -19936412.128 9 -15208573.15249  20915424.143    20915429.0454
  23036430.984   -10675459.546 9  -8268382.04149  23036430.541    23036436.9344
  24159427.874    -6898210.142 9  -5346841.32349  24159427.127    24159433.7594
  21562924.709   -22123387.027 9 -16642458.83749  21562924.168    21562929.5304
  20921186.971   -25700705.903 9 -19438586.92649  20921186.124    20921191.3704
  23744722.765    -8030654.788 9  -6234889.83949  23744722.181    23744728.7414
  24507120.346    -4291144.121 9  -3327005.86549  24507119.344    24507125.2824
 99  4 22  2 24  0.0000000  0  8 03 23 29 09 21 17 26 31
  21885689.810   -19482311.348 9 -15151823.79549  21885689.003    21885694.2614
  20920314.041   -19910719.343 9 -15188552.79549  20920313.249    20920318.1844
  23017009.731   -10777517.746 9  -8347907.80049  23017008.607    23017014.6394
  24149389.055    -6950964.118 9  -5387948.24149  24149388.246    24149394.1754
  21555330.391   -22163295.363 9 -16673556.22049  21555329.916    21555334.7674
  20927735.730   -25666291.773 9 -19411770.70949  20927735.031    20927740.2654
  23763446.187    -7932262.205 9  -6158220.31549  23763446.049    23763450.9654
  24489426.809    -4384124.010 9  -3399457.69749  24489426.133    24489431.6494
 99  4 22  2 24 30.0000000  0  8 03 23 29 09 21 17 26 31
  21876751.623   -19529281.713 9 -15188424.05749  21876751.350    21876756.4984
  20925255.526   -19884751.510 9 -15168318.11449  20925254.907    20925259.5464
  22997629.209   -10879362.639 9  -8427267.34949  22997628.913    22997634.9174
  24139417.329    -7003364.748 9  -5428779.83349  24139416.999    24139423.1554
  21547784.239   -22202950.723 9 -16704456.48549  21547783.420    21547788.6474
  20934353.774   -25631513.602 9 -19384670.82949  20934352.859    20934358.1924
  23782224.416    -7833581.809 9  -6081326.52949  23782224.569    23782229.3184
  24471785.347    -4476830.285 9  -3471696.30949  24471784.666    24471790.5864
 99  4 22  2 25  0.0000000  0  8 03 23 29 09 21 17 26 31
  21867918.745   -19575698.913 9 -15224593.27949  21867918.415    21867923.2784
  20930247.481   -19858518.549 9 -15147876.83949  20930246.782    20930251.5644
  22978291.748   -10980981.613 9  -8506450.85049  22978291.220    22978296.8854
  24129510.576    -7055425.015 9  -5469346.21549  24129510.298    24129515.9094
  21540287.314   -22242347.151 9 -16735154.98149  21540286.690    21540291.7084
  20941038.320   -25596386.150 9 -19357298.77849  20941037.481    20941042.4204
  23801061.406    -7734593.570 9  -6004192.82849  23801062.237    23801067.2044
  24454199.355    -4569244.860 9  -3543707.63949  24454198.181    24454204.3494
 99  4 22  2 25 30.0000000  0  8 03 23 29 09 21 17 26 31
  21859189.334   -19621572.222 9 -15260338.69749  21859188.729    21859193.4594
  20935287.318   -19832033.970 9 -15127239.49949  20935286.653    20935291.4674
  22958999.492   -11082362.748 9  -8585449.02549  22958999.276    22959004.7774
  24119665.263    -7107162.141 9  -5509660.77449  24119664.754    24119670.8434
  21532834.478   -22281511.946 9 -16765672.98849  21532833.669    21532838.7254
  20947789.089   -25560910.600 9 -19329655.48749  20947788.328    20947793.3404
  23819953.324    -7635315.491 9  -5926833.28349  23819953.839    23819958.4574
  24436673.225    -4661344.668 9  -3615473.72649  24436671.894    24436678.4564
 99  4 22  2 26  0.0000000  0  8 03 23 29 09 21 17 26 31
  21850563.368   -19666901.622 9 -15295660.28949  21850562.830    21850567.8154
  20940373.372   -19805306.657 9 -15106413.01349  20940372.662    20940377.5764
  22939751.308   -11183512.409 9  -8664266.82849  22939751.101    22939756.4364
  24109881.496    -7158575.537 9  -5549723.09049  24109880.217    24109888.0114
  21525425.904   -22320444.244 9 -16796009.82649  21525425.378    21525430.5274
  20954607.165   -25525081.346 9 -19301736.57849  20954606.358    20954611.5234
  23838897.763    -7535761.235 9  -5849258.57049  23838898.294    23838901.9464
  24419208.737    -4753120.732 9  -3686987.52949  24419208.594    24419212.9314
 99  4 22  2 26 30.0000000  0  8 03 23 29 09 21 17 26 31
  21842040.961   -19711687.181 9 -15330558.10349  21842040.570    21842045.7474
  20945500.615   -19778362.773 9 -15085417.77049  20945499.952    20945504.8514
  22920544.745   -11284442.749 9  -8742913.73649  22920544.657    22920550.3464
  24100161.232    -7209655.788 9  -5589525.79949  24100161.186    24100166.3054
  21518059.506   -22359154.736 9 -16826173.82649  21518058.728    21518064.0114
  20961488.896   -25488917.441 9 -19273556.90249  20961488.094    20961493.2334
  23857894.350    -7435934.013 9  -5771471.11949  23857893.594    23857900.0544
  24401806.738    -4844569.127 9  -3758246.01549  24401805.492    24401811.3824
 99  4 22  2 27  0.0000000  0  8 03 23 29 09 21 17 26 31
  21833623.703   -19755920.115 9 -15365025.30649  21833623.357    21833628.6844
  20950664.831   -19751224.870 9 -15064271.34749  20950664.177    20950669.0104
  22901378.029   -11385164.158 9  -8821397.83949  22901377.936    22901383.7384
  24090503.998    -7260404.495 9  -5629070.19149  24090502.592    24090509.6634
  21510731.566   -22397662.992 9 -16856180.24549  21510731.081    21510735.9354
  20968434.407   -25452418.594 9 -19245116.23749  20968433.506    20968438.3444
  23876941.084    -7335842.340 9  -5693477.63049  23876940.428    23876947.1784
  24384466.044    -4935694.987 9  -3829253.15349  24384466.335    24384471.4054
 99  4 22  2 27 30.0000000  0  8 03 23 29 09 21 17 26 31
  21825307.531   -19799621.736 9 -15399078.49549  21825306.874    21825312.0314
  20955863.897   -19723903.534 9 -15042981.98449  20955863.118    20955867.9694
  22882247.429   -11485695.902 9  -8899734.15049  22882247.010    22882252.7194
  24080910.609    -7310818.117 9  -5668353.45749  24080910.133    24080916.0184
  21503442.229   -22435968.775 9 -16886028.88749  21503441.417    21503446.6034
  20975443.924   -25415583.141 9 -19216413.27349  20975443.073    20975448.2654
  23896031.639    -7235521.995 9  -5615305.93449  23896032.201    23896037.1834
  24367183.939    -5026512.494 9  -3900020.01949  24367183.300    24367189.0864
 99  4 22  2 28  0.0000000  0  8 03 23 29 09 21 17 26 31
  21817091.601   -19842796.753 9 -15432721.34949  21817091.182    21817096.2184
  20961097.816   -19696398.988 9 -15021549.86549  20961097.284    20961101.9764
  22863152.342   -11586041.136 9  -8977925.12649  22863151.639    22863157.6604
  24071384.468    -7360878.760 9  -5707361.68549  24071382.908    24071388.6644
  21496194.854   -22474053.758 9 -16915705.47949  21496194.234    21496199.4794
  20982518.322   -25378406.958 9 -19187444.81049  20982517.365    20982522.4044
  23915166.270    -7134969.304 9  -5536953.19749  23915166.695    23915171.9564
  24349960.311    -5117022.270 9  -3970547.08349  24349959.714    24349965.8314
 99  4 22  2 28 30.0000000  0  8 03 23 29 09 21 17 26 31
  21808975.626   -19885446.348 9 -15465954.76949  21808975.141    21808980.1154
  20966366.476   -19668711.928 9 -14999975.52349  20966365.687    20966370.7144
  22844095.302   -11686185.840 9  -9055959.84849  22844094.702    22844100.4204
  24061926.693    -7410578.685 9  -5746088.83249  24061926.225    24061931.7904
  21488990.160   -22511914.539 9 -16945207.36449  21488989.532    21488994.4074
  20989658.219   -25340886.440 9 -19158208.02849  20989657.373    20989662.4084
  23934343.005    -7034194.863 9  -5458427.66049  23934343.489    23934348.1984
  24332796.020    -5207220.754 9  -4040831.55349  24332794.827    24332801.1234
 99  4 22  2 29  0.0000000  0  8 03 23 29 09 21 17 26 31
  21800958.047   -19927578.653 9 -15498785.11749  21800957.491    21800962.8294
  20971672.350   -19640829.334 9 -14978248.82149  20971671.774    20971676.5264
  22825077.836   -11786122.971 9  -9133832.82549  22825077.548    22825083.1434
  24052537.548    -7459917.793 9  -5784534.84649  24052536.246    24052543.2994
  21481832.393   -22549528.779 9 -16974517.14549  21481831.717    21481837.0694
  20996866.582   -25303006.218 9 -19128690.96449  20996865.762    20996870.6394
  23953557.439    -6933222.410 9  -5379747.82149  23953556.768    23953563.1424
  24315690.460    -5297111.127 9  -4110875.95949  24315690.198    24315694.3094
 99  4 22  2 29 30.0000000  0  8 03 23 29 09 21 17 26 31
  21793038.356   -19969196.833 9 -15531214.84549  21793038.024    21793042.7744
  20977016.533   -19612745.499 9 -14956365.29949  20977015.874    20977020.6904
  22806103.860   -11885831.843 9  -9211527.93549  22806103.803    22806109.7424
  24043219.836    -7508882.754 9  -5822689.28849  24043220.885    24043223.6674
  21474727.399   -22586865.909 9 -17003610.99549  21474726.696    21474732.1024
  21004143.122   -25264767.525 9 -19098894.56549  21004142.265    21004147.3914
  23972810.800    -6832044.984 9  -5300908.29949  23972810.189    23972816.9454
  24298644.672    -5386688.060 9  -4180676.15849  24298645.408    24298648.0074
 99  4 22  2 30  0.0000000  0  8 03 23 29 09 21 17 26 31
  21785220.895   -20010277.955 9 -15563226.09149  21785220.546    21785225.5264
  20982398.452   -19584463.308 9 -14934327.22249  20982397.838    20982402.6234
  22787175.770   -11985299.513 9  -9289035.09049  22787175.027    22787181.0394
  24033973.531    -7557472.255 9  -5860551.15649  24033972.347    24033979.9094
  21467672.990   -22623936.874 9 -17032497.44449  21467672.310    21467677.3144
  21011487.469   -25226172.757 9 -19068820.70949  21011486.611    21011491.7104
  23992107.333    -6730640.306 9  -5221891.69649  23992107.709    23992113.8794
  24281658.712    -5475950.554 9  -4250231.30549  24281657.758    24281663.8464
 99  4 22  2 30 30.0000000  0  8 03 23 29 09 21 17 26 31
  21777505.739   -20050821.394 9 -15594818.36049  21777505.237    21777510.3284
  20987819.136   -19555977.455 9 -14912130.44549  20987818.356    20987823.2034
  22768292.691   -12084530.463 9  -9366357.79149  22768292.029    22768297.4424
  24024798.711    -7605686.288 9  -5898120.47849  24024798.608    24024803.4994
  21460666.797   -22660754.580 9 -17061186.54749  21460666.130    21460671.2994
  21018897.979   -25187230.095 9 -19038475.76549  21018897.210    21018902.2874
  24011448.640    -6629001.391 9  -5142692.54249  24011448.550    24011453.9474
  24264730.953    -5564906.369 9  -4319547.48449  24264729.437    24264735.8924
 99  4 22  2 31  0.0000000  0  8 03 23 29 09 21 17 26 31
  21769893.568   -20090823.467 9 -15625988.78449  21769893.296    21769898.1724
  20993279.754   -19527281.505 9 -14889769.95849  20993279.135    20993283.9394
  22749453.618   -12183530.112 9  -9443500.25549  22749452.862    22749458.7484
  24015695.632    -7653522.383 9  -5935395.27649  24015694.271    24015701.5484
  21453707.464   -22697326.032 9 -17089683.76449  21453706.718    21453711.7754
  21026373.148   -25147947.840 9 -19007866.20149  21026372.385    21026377.3744
  24030838.235    -6527109.375 9  -5063296.16249  24030838.107    24030843.1964
  24247861.795    -5653554.281 9  -4388623.73649  24247860.865    24247867.1464
 99  4 22  2 31 30.0000000  0  8 03 23 29 09 21 17 26 31
  21762386.395   -20130274.006 9 -15656729.44449  21762385.954    21762391.1384
  20998779.613   -19498379.350 9 -14867248.78849  20998778.918    20998783.7894
  22730659.338   -12282294.421 9  -9520459.33949  22730658.213    22730663.7584
  24006666.438    -7700971.179 9  -5972368.28549  24006665.991    24006671.9454
  21446788.716   -22733684.176 9 -17118014.76449  21446787.898    21446793.4394
  21033909.998   -25108341.538 9 -18977004.13749  21033909.168    21033914.3064
  24050277.810    -6424954.190 9  -4983694.72849  24050278.119    24050283.5304
  24231052.128    -5741888.311 9  -4457455.39549  24231051.862    24231056.9694
 99  4 22  2 32  0.0000000  0  8 03 23 29 09 21 17 26 31
  21754984.753   -20169169.911 9 -15687037.92449  21754984.258    21754989.0894
  21004319.834   -19469265.115 9 -14844562.36449  21004319.322    21004324.1814
  22711905.483   -12380845.638 9  -9597252.39049  22711904.546    22711910.4504
  23997710.739    -7748033.114 9  -6009039.85449  23997710.111    23997716.1614
  21439903.599   -22769865.532 9 -17146208.00849  21439902.774    21439907.7834
  21041508.661   -25068410.185 9 -18945888.79049  21041507.887    21041513.0454
  24069763.467    -6322556.043 9  -4903903.98049  24069762.500    24069768.7714
  24214303.623    -5829901.782 9  -4526037.26249  24214302.367    24214310.2784
 99  4 22  2 32 30.0000000  0  8 03 23 29 09 21 17 26 31
  21747687.796   -20207515.593 9 -15716917.65549  21747687.579    21747692.2014
  21009902.048   -19439930.495 9 -14821704.20849  21009901.398    21009906.2144
  22693193.130   -12479179.102 9  -9673875.75249  22693192.670    22693197.8674
  23988830.274    -7794699.838 9  -6045403.46549  23988830.648    23988835.7194
  21433054.108   -22805859.471 9 -17174255.21449  21433053.596    21433058.5674
  21049168.931   -25028155.075 9 -18914521.16049  21049168.064    21049173.3264
  24089291.893    -6219933.573 9  -4823938.44049  24089292.360    24089297.6284
  24197618.363    -5917582.815 9  -4594360.09449  24197617.808    24197623.7724
 99  4 22  2 33  0.0000000  0  9 03 23 29 09 21 17 26 08 31
  21740496.766   -20245304.352 9 -15746363.42549  21740496.248    21740500.9144
  21015523.789   -19410388.014 9 -14798684.08649  21015523.196    21015527.9074
  22674524.730   -12577281.211 9  -9750318.84149  22674524.713    22674529.7424
  23980023.338    -7840981.228 9  -6081466.82349  23980023.495    23980029.0284
  21426240.421   -22841665.562 9 -17202156.04649  21426239.703    21426244.8974
  21056889.960   -24987580.678 9 -18882904.73749  21056889.099    21056894.1314
  24108857.650    -6117115.164 9  -4743820.21449  24108857.145    24108863.3454
  24582739.524    -6722851.333 9  -5212977.34549  24582738.664    24582746.1094
  24180995.012    -6004938.664 9  -4662429.52249  24180994.016    24181000.2574
 99  4 22  2 33 30.0000000  0  9 03 23 29 09 21 17 26 08 31
  21733410.579   -20282542.355 9 -15775380.04149  21733410.053    21733415.1794
  21021182.454   -19380651.573 9 -14775512.82349  21021181.809    21021186.6284
  22655901.792   -12675144.896 9  -9826576.15249  22655901.516    22655907.0074
  23971288.655    -7886882.214 9  -6117233.76449  23971288.472    23971293.7144
  21419461.082   -22877291.299 9 -17229916.34049  21419460.526    21419465.6604
  21064672.233   -24946684.236 9 -18851037.37349  21064671.411    21064676.3984
  24128456.880    -6014120.019 9  -4663564.27949  24128456.647    24128461.8694
  24566770.007    -6806771.373 9  -5278369.48849  24566769.709    24566775.9564
  24164432.428    -6091975.276 9  -4730250.18749  24164431.952    24164438.0054
 99  4 22  2 34  0.0000000  0  9 03 23 29 09 21 17 26 08 31
  21726431.174   -20319219.470 9 -15803959.58249  21726430.765    21726435.4624
  21026878.256   -19350719.869 9 -14752189.40449  21026877.446    21026882.4064
  22637326.395   -12772759.015 9  -9902638.99349  22637326.225    22637330.8904
  23962625.793    -7932405.588 9  -6152706.43849  23962625.699    23962631.1194
  21412722.874   -22912700.819 9 -17257508.15149  21412722.361    21412727.2634
  21072520.887   -24905439.288 9 -18818898.44249  21072519.828    21072525.2054
  24148091.008    -5910941.505 9  -4583165.43349  24148091.734    24148095.8364
  24550803.943    -6890673.851 9  -5343747.96949  24550801.864    24550809.1814
  24147931.236    -6178689.504 9  -4797819.64649  24147929.696    24147936.0334
 99  4 22  2 34 30.0000000  0  9 03 23 29 09 21 17 26 08 31
  21719558.974   -20355333.205 9 -15832100.14049  21719558.443    21719563.3544
  21032609.353   -19320602.672 9 -14728721.45449  21032608.578    21032613.3354
  22618802.553   -12870102.228 9  -9978490.73949  22618801.719    22618808.2434
  23954032.622    -7977562.844 9  -6187893.83649  23954031.609    23954036.9814
  21406030.038   -22947871.591 9 -17284913.92249  21406029.434    21406034.4334
  21080436.049   -24863844.766 9 -18786487.11949  21080435.009    21080440.4854
  24167763.168    -5807564.388 9  -4502611.87449  24167764.385    24167768.6394
  24534840.528    -6974561.747 9  -5409115.09949  24534839.324    24534845.3304
  24131491.027    -6265082.921 9  -4865139.11649  24131490.607    24131496.7634
 99  4 22  2 35  0.0000000  0  9 03 23 29 09 21 17 26 08 31
  21712795.662   -20390874.567 9 -15859794.69649  21712795.425    21712799.7314
  21038373.220   -19290313.378 9 -14705119.39849  21038372.568    21038377.2274
  22600328.618   -12967183.000 9 -10054137.99549  22600328.268    22600332.8804
  23945509.041    -8022353.359 9  -6222795.45149  23945508.539    23945513.6734
  21399382.087   -22982806.799 9 -17312136.14149  21399381.536    21399386.5124
  21088420.375   -24821886.778 9 -18753792.57749  21088419.531    21088424.5734
  24187474.507    -5703980.662 9  -4421897.31549  24187475.769    24187480.8224
  24518880.720    -7058430.372 9  -5474467.19049  24518878.703    24518886.5194
  24115113.412    -6351147.313 9  -4932202.22349  24115113.604    24115118.9944
 99  4 22  2 35 30.0000000  0  9 03 23 29 09 21 17 26 08 31
  21706141.058   -20425844.500 9 -15887043.97649  21706140.662    21706145.4714
  21044169.634   -19259852.989 9 -14681384.02049  21044168.995    21044173.7704
  22581901.038   -13064020.157 9 -10129595.42249  22581900.685    22581906.3654
  23937056.939    -8066768.820 9  -6257404.82549  23937056.670    23937062.6084
  21392778.798   -23017507.238 9 -17339175.42249  21392778.068    21392783.1834
  21096476.154   -24779553.383 9 -18720805.51349  21096475.224    21096480.5604
  24207225.353    -5600189.400 9  -4341021.04249  24207226.246    24207231.0024
  24502924.662    -7142279.158 9  -5539803.83249  24502923.119    24502929.6864
  24098800.560    -6436872.226 9  -4999000.79949  24098800.278    24098805.4584
 99  4 22  2 36  0.0000000  0  9 03 23 29 09 21 17 26 08 31
  21699596.381   -20460236.951 9 -15913843.27649  21699596.312    21699600.8794
  21049999.737   -19229215.547 9 -14657510.68149  21049999.149    21050003.8184
  22563518.997   -13160617.828 9 -10204866.22149  22563518.311    22563524.0074
  23928676.276    -8110809.321 9  -6291722.03149  23928675.283    23928681.6614
  21386220.338   -23051971.931 9 -17366031.00349  21386219.748    21386224.8464
  21104603.288   -24736844.880 9 -18687526.16049  21104602.568    21104607.8084
  24227015.285    -5496192.395 9  -4259984.45349  24227015.126    24227019.7044
  24486972.107    -7226109.838 9  -5605126.34549  24486971.792    24486976.9574
  24082552.926    -6522254.826 9  -5065532.62249  24082552.366    24082557.8484
 99  4 22  2 36 30.0000000  0  9 03 23 29 09 21 17 26 08 31
  21693161.402   -20494052.887 9 -15940193.34249  21693160.817    21693165.9384
  21055865.951   -19198388.418 9 -14633489.53149  21055865.308    21055870.1374
  22545184.965   -13256963.641 9 -10279940.78049  22545184.354    22545189.1734
  23920370.698    -8154455.048 9  -6325731.60949  23920371.332    23920376.4534
  21379703.955   -23086215.629 9 -17392714.38149  21379703.309    21379708.4214
  21112799.550   -24693773.337 9 -18653963.91649  21112799.013    21112804.0704
  24246845.093    -5391985.880 9  -4178784.61049  24246844.779    24246851.4584
  24471025.740    -7309908.705 9  -5670424.08649  24471025.082    24471031.4724
  24066374.555    -6607272.771 9  -5131780.29149  24066373.526    24066379.2064
 99  4 22  2 37  0.0000000  0  9 03 23 29 09 21 17 26 08 31
  21686834.507   -20527300.613 9 -15966100.64849  21686834.297    21686839.0154
  21061768.511   -19167370.060 9 -14609319.37649  21061767.802    21061772.6304
  22526896.196   -13353071.387 9 -10354829.83049  22526896.144    22526900.9884
  23912145.177    -8197679.768 9  -6359413.12249  23912144.037    23912150.1944
  21373226.544   -23120254.514 9 -17419238.16649  21373226.024    21373231.1514
  21121063.153   -24650347.869 9 -18620125.89149  21121062.253    21121067.4314
  24266710.278    -5287593.468 9  -4097439.88149  24266709.567    24266715.7544
  24455085.843    -7393673.164 9  -5735695.01549  24455084.098    24455091.3904
  24050264.109    -6691933.202 9  -5197749.38149  24050262.770    24050268.9084
 99  4 22  2 37 30.0000000  0  9 03 23 29 09 21 17 26 08 31
  21680613.384   -20559992.802 9 -15991575.06749  21680613.034    21680617.8134
  21067708.671   -19136154.113 9 -14584995.25349  21067708.039    21067712.7034
  22508657.113   -13448918.080 9 -10429515.45149  22508656.052    22508661.1594
  23904003.266    -8240466.511 9  -6392753.37449  23904003.323    23904008.2834
  21366789.478   -23154081.490 9 -17445596.82649  21366788.940    21366793.9564
  21129392.821   -24606575.136 9 -18586017.26949  21129391.986    21129396.7584
  24286612.341    -5183007.171 9  -4015944.07549  24286611.739    24286617.7914
  24439151.502    -7477408.244 9  -5800943.04749  24439149.979    24439157.3684
  24034220.745    -6776241.678 9  -5263444.22649  24034219.586    24034224.9184
 99  4 22  2 38  0.0000000  0  9 03 23 29 09 21 17 26 08 31
  21674495.521   -20592142.670 9 -16016626.90349  21674495.169    21674499.9174
  21073683.553   -19104755.615 9 -14560528.88349  21073682.903    21073687.7904
  22490470.373   -13544489.448 9 -10503986.54649  22490469.292    22490475.2244
  23895943.500    -8282819.889 9  -6425755.93049  23895942.233    23895949.0814
  21360392.729   -23187696.638 9 -17471790.42049  21360391.998    21360397.2414
  21137784.529   -24562476.181 9 -18551654.44249  21137783.597    21137788.8754
  24306551.813    -5078224.304 9  -3934295.07249  24306552.404    24306558.4124
  24423222.620    -7561114.295 9  -5866168.47049  24423220.986    24423227.8734
  24018246.033    -6860188.305 9  -5328857.10249  24018245.235    24018250.5144
 99  4 22  2 38 30.0000000  0  9 03 23 29 09 21 17 26 08 31
  21668478.862   -20623760.021 9 -16041263.78649  21668478.305    21668483.3124
  21079689.871   -19073192.218 9 -14535934.02249  21079689.065    21079694.0864
  22472335.028   -13639790.420 9 -10578246.93349  22472334.307    22472339.4894
  23887966.536    -8324738.603 9  -6458419.77449  23887965.955    23887971.9744
  21354036.224   -23221100.095 9 -17497819.07149  21354035.589    21354040.4964
  21146237.273   -24518056.655 9 -18517041.83049  21146236.545    21146241.7714
  24326525.192    -4973262.894 9  -3852506.98549  24326524.847    24326530.8454
  24407299.871    -7644788.202 9  -5931368.82149  24407300.088    24407304.8544
  24002338.871    -6943780.617 9  -5393993.89249  24002338.667    24002344.4084
 99  4 22  2 39  0.0000000  0  9 03 23 29 09 21 17 26 08 31
  21662565.046   -20654837.001 9 -16065479.60249  21662564.299    21662569.3234
  21085724.831   -19041478.192 9 -14511221.78349  21085723.887    21085728.7974
  22454249.610   -13734829.192 9 -10652303.02349  22454248.727    22454253.9394
  23880069.432    -8366238.719 9  -6490757.46549  23880069.452    23880074.9354
  21347721.035   -23254286.544 9 -17523678.61549  21347720.281    21347725.4854
  21154753.144   -24473305.424 9 -18482170.74449  21154752.480    21154757.7054
  24346528.546    -4868144.009 9  -3770596.16649  24346529.159    24346535.0604
  24391383.635    -7728428.224 9  -5996542.77449  24391382.158    24391389.0474
  23986496.049    -7027034.815 9  -5458867.23049  23986494.336    23986501.0234
 99  4 22  2 39 30.0000000  0  9 03 23 29 09 21 17 26 08 31
  21656755.381   -20685366.975 9 -16089269.18249  21656754.831    21656759.8024
  21091789.287   -19009609.139 9 -14486388.75049  21091788.539    21091793.5294
  22436217.710   -13829586.770 9 -10726139.98849  22436217.620    22436222.6964
  23872245.531    -8407353.771 9  -6522795.09649  23872245.049    23872250.6644
  21341446.750   -23287258.224 9 -17549370.81249  21341446.014    21341450.8374
  21163333.557   -24428215.185 9 -18447035.49749  21163332.630    21163338.0024
  24366563.261    -4762861.259 9  -3688557.64949  24366564.588    24366568.9554
  24375475.385    -7812026.254 9  -6061684.00949  24375473.911    24375480.5114
  23970720.150    -7109936.861 9  -5523466.14049  23970718.357    23970725.6454
 99  4 22  2 40  0.0000000  0  9 03 23 29 09 21 17 26 08 31
  21651052.796   -20715334.354 9 -16112620.37049  21651052.598    21651057.1604
  21097886.897   -18977566.006 9 -14461420.06849  21097886.197    21097891.0144
  22418238.337   -13924068.624 9 -10799762.09649  22418238.227    22418242.9984
  23864493.158    -8448092.578 9  -6554539.55549  23864493.075    23864498.1754
  21335212.719   -23320018.147 9 -17574898.00049  21335212.070    21335217.0224
  21171979.043   -24382782.894 9 -18411633.71249  21171978.284    21171983.2914
  24386625.616    -4657433.705 9  -3606406.30949  24386625.590    24386631.5574
  24359578.733    -7895563.316 9  -6126777.72649  24359576.726    24359585.2204
  23955013.403    -7192475.185 9  -5587781.63849  23955012.170    23955018.7824
 99  4 22  2 40 30.0000000  0  9 03 23 29 09 21 17 26 08 31
  21645461.306   -20744717.911 9 -16135516.63749  21645460.539    21645465.4274
  21104022.709   -18945322.108 9 -14436294.94349  21104022.139    21104026.8214
  22400309.930   -14018282.528 9 -10873175.42149  22400309.289    22400314.3834
  23856814.571    -8488443.898 9  -6585982.08449  23856814.491    23856819.9374
  21329018.764   -23352567.486 9 -17600261.10049  21329018.058    21329023.2964
  21180692.940   -24336991.120 9 -18375951.81449  21180692.082    21180697.2974
  24406716.301    -4551857.448 9  -3524139.11549  24406715.492    24406721.9054
  24343695.605    -7979029.593 9  -6191816.29149  24343693.841    24343701.3594
  23939374.877    -7274655.311 9  -5651818.02049  23939374.846    23939380.5544
 99  4 22  2 41  0.0000000  0  9 03 23 29 09 21 17 26 08 31
  21639983.127   -20773505.948 9 -16157948.86249  21639982.432    21639987.1894
  21110199.697   -18912861.966 9 -14411001.31849  21110199.003    21110203.8994
  22382434.923   -14112216.023 9 -10946370.26249  22382434.883    22382440.0334
  23849211.457    -8528398.749 9  -6617115.68049  23849210.705    23849216.3784
  21322864.650   -23384907.365 9 -17625460.98149  21322863.948    21322868.9374
  21189476.295   -24290833.935 9 -18339985.17849  21189475.252    21189480.4054
  24426840.178    -4446106.420 9  -3441735.72149  24426840.560    24426846.7684
  24327826.019    -8062424.009 9  -6256798.88749  24327824.508    24327832.9944
  23923809.477    -7356451.915 9  -5715555.56449  23923809.711    23923815.2894
 99  4 22  2 41 30.0000000  0  9 03 23 29 09 21 17 26 08 31
  21634616.823   -20801705.920 9 -16179922.84849  21634616.357    21634621.1474
  21116417.737   -18880185.785 9 -14385539.35249  21116417.059    21116422.0114
  22364613.685   -14205867.138 9 -11019345.05249  22364613.240    22364618.3264
  23841688.017    -8567933.700 9  -6647922.06149  23841687.623    23841693.6394
  21316749.399   -23417042.929 9 -17650501.65749  21316748.692    21316753.4444
  21198327.860   -24244318.435 9 -18303739.33249  21198326.804    21198331.8174
  24447000.997    -4340160.822 9  -3359180.70949  24447001.063    24447007.1634
  24311970.376    -8145745.788 9  -6321724.87249  24311970.283    24311976.1574
  23908318.853    -7437855.785 9  -5778987.10149  23908317.126    23908323.2754
 99  4 22  2 42  0.0000000  0  9 03 23 29 09 21 17 26 08 31
  21629362.394   -20829318.065 9 -16201438.79549  21629362.074    21629366.7934
  21122672.801   -18847315.100 9 -14359925.82549  21122672.018    21122676.9034
  22346843.698   -14299248.996 9 -11092110.04249  22346842.773    22346848.1614
  23834251.778    -8607011.350 9  -6678372.10349  23834251.631    23834256.9824
  21310673.651   -23448971.091 9 -17675380.72249  21310673.008    21310678.0514
  21207246.473   -24197450.878 9 -18267219.15849  21207245.809    21207251.1384
  24467198.743    -4234021.311 9  -3276474.60349  24467198.501    24467203.9874
  24296127.718    -8228999.960 9  -6386598.13949  24296127.271    24296132.8394
  23892901.505    -7518873.923 9  -5842118.04949  23892900.239    23892906.6564
 99  4 22  2 42 30.0000000  0  9 03 23 29 09 21 17 26 08 31
  21624218.120   -20856351.464 9 -16222503.76549  21624217.666    21624222.4884
  21128959.542   -18814277.868 9 -14334182.51749  21128958.876    21128963.8544
  22329123.351   -14392369.487 9 -11164671.36849  22329123.180    22329127.8414
  23826902.978    -8645629.480 9  -6708464.11549  23826902.489    23826907.8854
  21304635.618   -23480700.920 9 -17700105.24349  21304635.068    21304639.9384
  21216230.624   -24150239.021 9 -18230430.69849  21216230.140    21216235.4054
  24487434.745    -4127680.559 9  -3193611.68049  24487434.432    24487440.8164
  24280295.245    -8312199.315 9  -6451428.70749  24280294.242    24280301.7354
  23877556.318    -7599512.800 9  -5904953.49249  23877555.632    23877560.1264
 99  4 22  2 43  0.0000000  0  9 03 23 29 09 21 17 26 08 31
  21619180.160   -20882826.180 9 -16243133.39849  21619179.713    21619184.4854
  21135272.949   -18781100.641 9 -14308330.12849  21135272.445    21135277.0844
  22311454.089   -14485221.780 9 -11237023.71649  22311453.652    22311458.5674
  23819639.410    -8683798.967 9  -6738206.50949  23819638.338    23819644.9524
  21298633.437   -23512242.705 9 -17724683.23649  21298632.893    21298637.7574
  21225277.605   -24102696.674 9 -18193384.71649  21225276.977    21225282.2264
  24507706.648    -4021151.137 9  -3110601.75549  24507706.098    24507712.9934
  24264470.864    -8395356.832 9  -6516226.67249  24264469.607    24264475.8144
  23862281.350    -7679783.775 9  -5967502.26649  23862281.147    23862287.0044
 99  4 22  2 43 30.0000000  0  9 03 23 29 09 21 17 26 08 31
  21614247.422   -20908747.791 9 -16263332.03849  21614246.808    21614251.7644
  21141614.523   -18747775.468 9 -14282362.45349  21141613.835    21141618.6604
  22293836.775   -14577801.035 9 -11309163.30049  22293835.988    22293841.3654
  23812461.162    -8721520.736 9  -6767600.02749  23812460.467    23812467.0694
  21292667.514   -23543593.657 9 -17749112.52749  21292667.053    21292672.0184
  21234388.288   -24054819.735 9 -18156078.00849  21234387.429    21234392.6944
  24528010.326    -3914454.473 9  -3027461.45649  24528010.112    24528015.8394
  24248655.220    -8478467.729 9  -6580988.31949  24248653.936    24248662.1804
  23847073.562    -7759701.927 9  -6029776.11149  23847072.765    23847078.3644
 99  4 22  2 44  0.0000000  0 10 03 23 29 09 21 17 26 08 31 01
  21609420.240   -20934114.705 9 -16283098.44649  21609419.640    21609424.2664
  21147986.605   -18714289.962 9 -14256269.84349  21147985.984    21147990.6834
  22276271.222   -14670108.102 9 -11381090.78849  22276270.489    22276275.6394
  23805365.543    -8758808.334 9  -6796655.23149  23805365.159    23805370.4024
  21286737.891   -23574753.965 9 -17773393.26549  21286737.218    21286742.0804
  21243562.544   -24006608.787 9 -18118511.03849  21243561.798    21243566.8264
  24548342.215    -3807610.005 9  -2944206.01549  24548341.767    24548347.6544
  24232848.387    -8561532.248 9  -6645713.83849  24232848.128    24232854.3364
  23831934.254    -7839259.394 9  -6091768.89249  23831934.325    23831939.2184
  24623235.397    -4455877.578 9  -3440111.70349  24623234.959    24623243.1584
 99  4 22  2 44 30.0000000  0 10 03 23 29 09 21 17 26 08 31 01
  21604701.190   -20958913.229 9 -16302421.95349  21604700.607    21604705.7384
  21154394.532   -18680616.014 9 -14230030.39849  21154393.898    21154398.6984
  22258760.316   -14762127.984 9 -11452794.50749  22258759.731    22258764.9004
  23798350.193    -8795673.616 9  -6825381.35549  23798349.475    23798354.9344
  21280847.457   -23605708.486 9 -17797513.65249  21280846.866    21280851.5584
  21252804.934   -23958039.624 9 -18080664.93749  21252804.190    21252809.2824
  24568701.868    -3700618.992 9  -2860836.42649  24568700.223    24568707.1514
  24217054.461    -8644530.225 9  -6710387.51449  24217054.132    24217060.0984
  23816867.034    -7918437.946 9  -6153466.43049  23816866.546    23816870.9384
  24602123.827    -4566818.952 9  -3526559.40449  24602122.795    24602130.5294
 99  4 22  2 45  0.0000000  0 10 03 23 29 09 21 17 26 08 31 01
  21600093.394   -20983126.975 9 -16321289.78849  21600092.587    21600097.7644
  21160840.894   -18646740.256 9 -14203633.70049  21160840.215    21160844.9844
  22241307.580   -14853842.215 9 -11524260.05749  22241306.864    22241312.0794
  23791415.985    -8832112.794 9  -6853775.44649  23791415.546    23791420.5564
  21274998.525   -23636444.720 9 -17821463.94449  21274997.766    21275002.9004
  21262119.452   -23909091.703 9 -18042523.69949  21262119.011    21262123.7224
  24589087.490    -3593490.713 9  -2777359.86349  24589087.969    24589092.3274
  24201277.965    -8727436.030 9  -6774989.35649  24201276.985    24201284.2364
  23801872.955    -7997232.397 9  -6214864.66649  23801872.636    23801877.9054
  24581024.331    -4677697.113 9  -3612957.86449  24581023.701    24581031.2084
 99  4 22  2 45 30.0000000  0 10 03 23 29 09 21 17 26 08 31 01
  21595598.994   -21006745.150 9 -16339693.54449  21595598.398    21595603.2944
  21167325.183   -18612665.004 9 -14177081.54949  21167324.636    21167329.3254
  22223912.888   -14945251.882 9 -11595488.28349  22223912.605    22223917.4294
  23784564.178    -8868119.032 9  -6881832.19049  23784563.999    23784569.5874
  21269195.248   -23666940.804 9 -17845227.10749  21269194.593    21269199.5344
  21271506.644   -23859761.782 9 -18004084.80249  21271505.963    21271510.8074
  24609497.860    -3486233.343 9  -2693782.67249  24609498.019    24609503.3994
  24185523.280    -8810226.965 9  -6839501.69449  24185522.981    24185528.7954
  23786957.430    -8075613.766 9  -6275941.02749  23786956.523    23786962.3924
  24559938.262    -4788504.411 9  -3699301.10349  24559937.319    24559946.7434
 99  4 22  2 46  0.0000000  0 10 03 23 29 09 21 17 26 08 31 01
  21591219.605   -21029759.044 9 -16357626.42449  21591219.000    21591224.0074
  21173844.044   -18578408.290 9 -14150387.99949  21173843.263    21173848.1534
  22206575.724   -15036358.932 9 -11666480.71649  22206575.338    22206580.1804
  23777796.920    -8903681.284 9  -6909542.96949  23777796.454    23777801.9144
  21263438.686   -23697191.536 9 -17868799.08749  21263438.128    21263443.0584
  21280965.444   -23810055.240 9 -17965352.42449  21280964.595    21280969.6744
  24629933.854    -3378841.579 9  -2610100.74749  24629933.822    24629940.1714
  24169794.846    -8892880.494 9  -6903906.95749  24169793.980    24169801.1934
  23772122.406    -8153572.150 9  -6336687.77649  23772122.702    23772126.9674
  24538868.838    -4899224.319 9  -3785576.21749  24538869.314    24538876.5284
 99  4 22  2 46 30.0000000  0  9 03 23 29 09 21 17 08 31 01
  21586956.539   -21052161.674 9 -16375083.00049  21586956.161    21586960.6944
  21180393.448   -18543990.823 9 -14123569.19149  21180392.889    21180397.4014
  22189296.706   -15127160.070 9 -11737234.77549  22189296.230    22189300.7944
  23771113.230    -8938804.173 9  -6936911.38049  23771112.191    23771117.3364
  21257728.987   -23727196.264 9 -17892179.37849  21257728.551    21257733.4724
  21290494.446   -23759980.072 9 -17926332.81649  21290493.738    21290498.6354
  24154094.110    -8975388.259 9  -6968198.63949  24154092.919    24154099.4974
  23757366.106    -8231117.594 9  -6397112.74849  23757365.328    23757371.2114
  24517821.930    -5009826.263 9  -3871759.42949  24517821.965    24517830.0744
 99  4 22  2 47  0.0000000  0  9 03 23 29 09 21 17 08 31 01
  21582804.782   -21073978.964 9 -16392083.46149  21582803.916    21582809.0744
  21186970.123   -18509429.854 9 -14096638.56049  21186969.376    21186974.1664
  22172074.960   -15217660.802 9 -11807754.72649  22172074.892    22172079.5164
  23764512.906    -8973488.476 9  -6963938.06549  23764512.261    23764518.2844
  21252061.696   -23756978.164 9 -17915386.03249  21252061.094    21252066.0704
  21300087.667   -23709567.529 9 -17887050.31749  21300086.767    21300091.9354
  24138416.829    -9057773.315 9  -7032394.69749  24138416.022    24138421.8424
  23742687.817    -8308252.871 9  -6457218.12549  23742686.830    23742692.3464
  24496793.733    -5120330.720 9  -3957866.69749  24496792.663    24496800.5604
 99  4 22  2 47 30.0000000  0  9 03 23 29 09 21 17 08 31 01
  21578760.247   -21095232.809 9 -16408644.87749  21578759.536    21578764.5724
  21193573.475   -18474728.975 9 -14069598.90849  21193573.025    21193577.6254
  22154906.608   -15307880.661 9 -11878055.83249  22154906.108    22154911.0244
  23757997.608    -9007726.421 9  -6990616.90949  23757996.601    23758002.7014
  21246432.504   -23786559.595 9 -17938436.48149  21246431.951    21246436.7954
  21309740.299   -23658842.424 9 -17847524.26449  21309739.724    21309744.5424
  24122758.843    -9140056.580 9  -7096511.45649  24122757.772    24122764.1544
  23728085.547    -8384988.662 9  -6517012.19949  23728084.599    23728089.8734
  24475779.410    -5230761.274 9  -4043916.36049  24475778.471    24475785.2024
 99  4 22  2 48  0.0000000  0  9 03 23 29 09 21 17 08 31 01
  21574823.892   -21115918.146 9 -16424763.29949  21574823.351    21574828.4724
  21200206.292   -18439873.297 9 -14042438.63649  21200205.693    21200210.3684
  22137792.339   -15397816.179 9 -11948135.36549  22137791.976    22137796.7974
  23751569.000    -9041508.456 9  -7016940.52449  23751568.571    23751573.9854
  21240837.629   -23815961.071 9 -17961346.70649  21240837.164    21240841.8374
  21319452.963   -23607802.093 9 -17807752.58249  21319452.010    21319457.5284
  24107117.465    -9222251.584 9  -7160559.42949  24107116.341    24107122.5674
  23713555.079    -8461345.746 9  -6576511.17849  23713554.408    23713559.3394
  24454780.344    -5341111.442 9  -4129903.38949  24454778.189    24454788.3314
 99  4 22  2 48 30.0000000  0  9 03 23 29 09 21 17 08 31 01
  21570995.700   -21136035.417 9 -16440439.07249  21570995.061    21571000.1744
  21206871.302   -18404848.125 9 -14015146.29149  21206870.529    21206875.4184
  22120733.804   -15487458.910 9 -12017986.76049  22120733.185    22120737.9194
  23745227.482    -9074833.463 9  -7042908.00149  23745226.971    23745232.5574
  21235277.958   -23845177.431 9 -17984112.68549  21235277.243    21235282.2664
  21329227.916   -23556434.225 9 -17767725.67249  21329227.133    21329232.2274
  24091489.451    -9304375.969 9  -7224552.38449  24091488.669    24091495.2244
  23699099.171    -8537311.608 9  -6635705.31949  23699098.835    23699103.8744
  24433794.473    -5451391.629 9  -4215835.86849  24433794.216    24433801.2934
 99  4 22  2 49  0.0000000  0  9 03 23 29 09 21 17 08 31 01
  21567274.743   -21155589.093 9 -16455675.67749  21567274.397    21567279.2564
  21213571.718   -18369637.300 9 -13987709.28149  21213570.950    21213575.8894
  22103732.551   -15576800.494 9 -12087603.51149  22103732.704    22103737.0104
  23738977.213    -9107678.705 9  -7068501.64149  23738976.688    23738982.3684
  21229756.242   -23874194.113 9 -18006723.06749  21229755.696    21229760.5874
  21339069.398   -23504716.909 9 -17727426.46449  21339068.870    21339073.8744
  24075874.949    -9386430.234 9  -7288490.70049  24075873.829    24075880.6214
  23684719.325    -8612878.639 9  -6694588.67549  23684717.911    23684723.6684
  24412819.986    -5561612.123 9  -4301721.83649  24412819.117    24412827.3344
 99  4 22  2 49 30.0000000  0  9 03 23 29 09 21 17 08 31 01
  21563664.113   -21174563.310 9 -16470460.75949  21563663.816    21563668.2724
  21220305.837   -18334249.157 9 -13960134.10049  21220305.338    21220309.9784
  22086790.308   -15665832.575 9 -12156979.09049  22086790.113    22086794.6224
  23732819.259    -9140038.523 9  -7093717.01749  23732818.202    23732824.1304
  21224276.374   -23902990.975 9 -18029162.16149  21224275.730    21224280.5554
  21348980.352   -23452634.628 9 -17686842.87449  21348979.439    21348984.9734
  24060278.050    -9468392.251 9  -7352357.13549  24060277.606    24060282.7114
  23670415.062    -8688048.294 9  -6753162.39649  23670414.153    23670419.6434
  24391859.850    -5671757.303 9  -4387549.10049  24391859.817    24391866.9714
 99  4 22  2 50  0.0000000  0  9 03 23 29 09 21 17 08 31 01
  21560165.358   -21192949.297 9 -16484787.48149  21560165.118    21560169.6734
  21227072.719   -18298689.221 9 -13932425.05549  21227072.194    21227076.6774
  22069911.398   -15754531.623 9 -12226095.15649  22069911.288    22069915.2774
  23726751.153    -9171925.923 9  -7118564.27049  23726750.402    23726756.0784
  21218841.245   -23931552.543 9 -18051417.91649  21218840.582    21218845.2704
  21358961.385   -23400183.565 9 -17645971.92349  21358960.579    21358965.7264
  24044701.612    -9550247.579 9  -7416140.44049  24044700.330    24044707.1824
  23656189.229    -8762805.097 9  -6811414.41149  23656188.491    23656193.7654
  24370917.553    -5781809.607 9  -4473304.01049  24370916.436    24370924.2014
 99  4 22  2 50 30.0000000  0  9 03 23 29 09 21 17 08 31 01
  21556777.948   -21210750.260 9 -16498658.34249  21556777.613    21556782.4074
  21233871.527   -18262961.370 9 -13904585.17449  21233870.977    21233875.7694
  22053097.490   -15842889.083 9 -12294945.03949  22053096.799    22053102.0514
  23720772.401    -9203344.061 9  -7143045.88449  23720772.181    23720777.3104
  21213453.311   -23959866.339 9 -18073480.60049  21213452.652    21213457.5224
  21369013.571   -23347358.738 9 -17604809.72549  21369012.860    21369017.9674
  24029148.265    -9631979.885 9  -7479827.87649  24029147.397    24029154.2834
  23642046.024    -8837127.118 9  -6869327.64649  23642045.123    23642050.7854
  24349995.366    -5891756.018 9  -4558976.41649  24349994.669    24350002.3034
 99  4 22  2 51  0.0000000  0  9 03 23 29 09 21 17 08 31 01
  21553502.465   -21227962.727 9 -16512070.63649  21553501.871    21553506.6424
  21240699.871   -18227078.132 9 -13876624.20649  21240699.170    21240703.9494
  22036349.033   -15930902.629 9 -12363526.96149  22036348.383    22036353.1184
  23714882.253    -9234296.967 9  -7167164.98549  23714880.870    23714886.9204
  21208109.564   -23987947.775 9 -18095362.22049  21208108.882    21208113.6964
  21379134.300   -23294174.097 9 -17563367.14849  21379133.734    21379138.6024
  24013622.272    -9713569.791 9  -7543404.36549  24013621.326    24013627.3124
  23627984.640    -8911020.168 9  -6926906.61149  23627983.447    23627989.5454
  24329094.881    -6001588.627 9  -4644560.12949  24329093.559    24329101.1724
 99  4 22  2 51 30.0000000  0  9 03 23 29 09 21 17 08 31 01
  21550340.664   -21244577.948 9 -16525017.54249  21550340.320    21550344.8564
  21247556.820   -18191044.399 9 -13848545.96749  21247556.113    21247561.0164
  22019665.824   -16018572.825 9 -12431841.31849  22019665.053    22019670.1264
  23709079.391    -9264790.521 9  -7190926.12749  23709078.506    23709083.9874
  21202806.277   -24015816.727 9 -18117078.27049  21202805.763    21202810.4804
  21389321.153   -23240641.712 9 -17521653.60049  21389320.681    21389325.7324
  23998126.572    -9795000.078 9  -7606856.45949  23998125.713    23998131.6574
  23614004.664    -8984485.541 9  -6984152.32349  23614004.335    23614009.7444
  24308217.093    -6111301.976 9  -4730050.92949  24308216.282    24308224.1974
 99  4 22  2 52  0.0000000  0  9 03 23 29 09 21 17 08 31 01
  21547290.554   -21260606.405 9 -16537507.22749  21547290.411    21547294.9734
  21254444.190   -18154851.031 9 -13820343.34149  21254443.725    21254448.2944
  22003045.368   -16105913.464 9 -12499898.89349  22003045.039    22003049.3994
  23703361.034    -9294840.498 9  -7214341.66249  23703360.955    23703365.7314
  21197538.386   -24043499.663 9 -18138649.37049  21197537.690    21197542.4654
  21399573.372   -23186765.694 9 -17479672.29349  21399572.444    21399577.5794
  23982659.310    -9876280.873 9  -7670192.08349  23982657.682    23982664.1844
  23600104.655    -9057530.521 9  -7041070.45349  23600102.719    23600109.8014
  24287361.247    -6220899.510 9  -4815451.45349  24287360.620    24287368.3304
 99  4 22  2 52 30.0000000  0  9 03 23 29 09 21 17 08 31 01
  21544353.079   -21276043.193 9 -16549535.87549  21544352.415    21544357.1414
  21261363.600   -18118489.280 9 -13792009.50149  21261363.264    21261367.7304
  21986484.333   -16192942.053 9 -12567713.32949  21986484.234    21986488.9344
  23697728.411    -9324440.135 9  -7237406.25849  23697728.574    23697733.9444
  21192305.350   -24070999.188 9 -18160077.55249  21192304.633    21192309.6124
  21409893.526   -23132533.078 9 -17437413.11349  21409892.920    21409897.9674
  23967220.197    -9957412.909 9  -7733411.78549  23967219.329    23967226.2854
  23586285.391    -9130150.996 9  -7097657.80349  23586284.715    23586290.6734
  24266525.740    -6330389.809 9  -4900768.44449  24266524.325    24266532.3474
 99  4 22  2 53  0.0000000  0  9 03 23 29 09 21 17 08 31 01
  21541528.946   -21290883.916 9 -16561100.05649  21541528.610    21541533.5134
  21268314.399   -18081962.791 9 -13763547.30149  21268313.833    21268318.4524
  21969982.258   -16279660.691 9 -12635286.23449  21969982.308    21969986.6604
  23692182.660    -9353583.524 9  -7260115.34049  23692182.323    23692187.2134
  21187105.859   -24098322.609 9 -18181368.51149  21187104.972    21187109.9514
  21420280.894   -23077947.065 9 -17394878.56349  21420280.338    21420285.2504
  23951809.934   -10038394.377 9  -7796514.14549  23951809.637    23951815.9484
  23572545.055    -9202357.033 9  -7153922.19649  23572544.387    23572550.4844
  24245707.747    -6439788.320 9  -4986013.88849  24245706.617    24245715.0144
 99  4 22  2 53 30.0000000  0  9 03 23 29 09 21 17 08 31 01
  21538820.093   -21305119.043 9 -16572192.34649  21538819.655    21538824.6804
  21275297.739   -18045265.086 9 -13734951.68249  21275297.168    21275301.8674
  21953538.354   -16366073.941 9 -12702621.16249  21953537.882    21953542.3004
  23686724.500    -9382266.275 9  -7282465.48649  23686723.942    23686729.0884
  21181942.169   -24125457.675 9 -18202512.70049  21181941.257    21181946.3864
  21430737.930   -23022995.006 9 -17352058.78449  21430737.489    21430742.7484
  23936425.578   -10119239.566 9  -7859510.34449  23936424.108    23936430.5124
  23558885.717    -9274137.562 9  -7209855.04849  23558884.703    23558890.2864
  24224909.407    -6549083.798 9  -5071179.06749  24224907.765    24224915.8204
 99  4 22  2 54  0.0000000  0  9 03 23 29 09 21 17 08 31 01
  21536226.200   -21318750.101 9 -16582813.92949  21536225.611    21536230.5634
  21282312.637   -18008401.291 9 -13706226.64349  21282311.982    21282316.5604
  21937152.114   -16452183.773 9 -12769719.67249  21937151.526    21937156.6824
  23681355.402    -9410480.107 9  -7304450.21749  23681354.569    23681360.0864
  21176817.222   -24152389.452 9 -18223498.48249  21176816.725    21176821.4804
  21441264.399   -22967678.419 9 -17308954.95949  21441263.652    21441268.7494
  23921063.609   -10199966.747 9  -7922414.58349  23921062.683    23921068.7554
  23545310.599    -9345473.928 9  -7265441.78049  23545309.981    23545315.3164
  24204129.344    -6658283.496 9  -5156269.60749  24204129.000    24204136.4024
 99  4 22  2 54 30.0000000  0  9 03 23 29 09 21 17 08 31 01
  21533749.791   -21331763.723 9 -16592954.40049  21533749.326    21533754.0634
  21289355.233   -17971392.157 9 -13677388.35049  21289354.766    21289359.1584
  21920826.156   -16537977.159 9 -12836571.60249  21920826.088    21920830.4124
  23676079.410    -9438205.396 9  -7326054.28749  23676078.252    23676083.1504
  21171733.738   -24179103.376 9 -18244314.50549  21171733.174    21171737.8734
  21451859.169   -22912002.503 9 -17265571.13549  21451858.437    21451863.5544
  23905725.049   -10280571.458 9  -7985223.38649  23905725.031    23905730.6474
  23531820.263    -9416365.877 9  -7320682.20649  23531818.871    23531824.6104
  24183367.920    -6767385.476 9  -5241284.01649  24183366.784    24183374.1554
 99  4 22  2 55  0.0000000  0  9 03 23 29 09 21 17 08 31 01
  21531389.632   -21344166.166 9 -16602618.62449  21531389.030    21531394.0694
  21296422.022   -17934255.881 9 -13648450.99049  21296421.474    21296426.3074
  21904563.167   -16623439.773 9 -12903165.79549  21904562.827    21904567.2414
  23670897.575    -9465435.388 9  -7347272.41049  23670897.359    23670902.4154
  21166691.607   -24205599.897 9 -18264961.12549  21166690.845    21166695.8194
  21462520.843   -22855974.826 9 -17221913.21849  21462519.747    21462525.2564
  23890410.238   -10361051.525 9  -8047935.08449  23890409.294    23890415.6044
  23518413.170    -9486820.712 9  -7375582.03749  23518412.002    23518418.7004
  24162627.101    -6876378.934 9  -5326213.83349  24162626.242    24162634.0904
 99  4 22  2 55 30.0000000  0  9 03 23 29 09 21 17 08 31 01
  21529143.214   -21355971.120 9 -16611817.27249  21529142.924    21529147.2584
  21303512.417   -17896995.815 9 -13619417.16749  21303511.686    21303516.4184
  21888362.926   -16708572.598 9 -12969503.00849  21888362.492    21888366.4564
  23665811.573    -9492162.121 9  -7368098.38949  23665810.300    23665815.7934
  21161689.387   -24231886.456 9 -18285444.13949  21161688.718    21161693.5414
  21473249.662   -22799594.218 9 -17177980.28449  21473248.839    21473254.0624
  23875119.769   -10441403.318 9  -8110546.80249  23875118.140    23875124.3414
  23505090.305    -9556833.270 9  -7430137.21749  23505089.915    23505094.9424
  24141907.087    -6985262.711 9  -5411058.21449  24141906.416    24141914.1584
 99  4 22  2 56  0.0000000  0  9 03 23 29 09 21 17 08 31 01
  21527007.041   -21367196.684 9 -16620564.45449  21527006.633    21527011.3424
  21310626.586   -17859610.523 9 -13590285.76349  21310625.941    21310630.7844
  21872229.001   -16793356.655 9 -13035568.45449  21872228.321    21872232.8674
  23660822.419    -9518379.726 9  -7388527.66249  23660821.124    23660826.2254
  21156725.263   -24257973.130 9 -18305771.39649  21156724.844    21156729.6544
  21484043.678   -22742871.514 9 -17133780.77749  21484042.867    21484048.4454
  23859857.625   -10521605.889 9  -8173042.24449  23859856.545    23859862.5704
  23491850.652    -9626407.368 9  -7484350.76449  23491849.521    23491855.3854
  24121206.475    -7094044.834 9  -5495823.36349  24121204.727    24121212.8954
 99  4 22  2 56 30.0000000  0  9 03 23 29 09 21 17 08 31 01
  21524979.820   -21377849.727 9 -16628865.50949  21524979.257    21524984.0844
  21317764.176   -17822102.098 9 -13561058.41649  21317763.579    21317768.3014
  21856163.223   -16877782.639 9 -13101354.88649  21856162.923    21856167.3444
  23655927.899    -9544100.718 9  -7408569.94049  23655927.582    23655931.9564
  21151795.215   -24283880.715 9 -18325959.10649  21151794.397    21151799.4604
  21494902.672   -22685806.970 9 -17089314.91149  21494902.249    21494907.3194
  23844627.276   -10601641.378 9  -8235407.48449  23844626.189    23844632.0704
  23478691.833    -9695556.918 9  -7538233.47849  23478691.990    23478696.0724
  24100528.705    -7202707.055 9  -5580495.07949  24100528.881    24100533.4694
 99  4 22  2 57  0.0000000  0  9 03 23 29 09 21 17 08 31 01
  21523058.469   -21387946.240 9 -16636732.90949  21523057.977    21523062.9734
  21324927.848   -17784456.661 9 -13531724.30249  21324927.270    21324931.8314
  21840163.249   -16961862.589 9 -13166871.67049  21840163.090    21840167.0604
  23651127.107    -9569329.337 9  -7428228.55049  23651126.376    23651131.9604
  21146897.167   -24309619.995 9 -18346015.66749  21146896.568    21146901.4984
  21505825.229   -22628408.761 9 -17044589.04549  21505824.827    21505829.6784
  23829428.011   -10681513.995 9  -8297645.81949  23829427.760    23829432.8754
  23465615.600    -9764273.713 9  -7591778.99249  23465615.043    23465619.9714
  24079873.864    -7311248.723 9  -5665072.83349  24079871.802    24079880.3094
 99  4 22  2 57 30.0000000  0  9 03 23 29 09 21 17 08 31 01
  21521243.892   -21397481.670 9 -16644163.10349  21521243.453    21521248.5094
  21332120.124   -17746661.023 9 -13502273.15249  21332119.591    21332124.3154
  21824227.990   -17045602.552 9 -13232123.53549  21824227.412    21824231.9164
  23646419.201    -9594069.100 9  -7447506.24049  23646418.045    23646423.5304
  21142029.514   -24335199.501 9 -18365947.73349  21142028.718    21142033.7584
  21516809.238   -22570687.427 9 -16999611.39449  21516808.713    21516813.9224
  23814258.630   -10761229.495 9  -8359761.72649  23814257.483    23814262.5984
  23452623.046    -9832550.136 9  -7644981.35049  23452621.258    23452626.7544
  24059240.855    -7419676.086 9  -5749561.55049  24059240.444    24059246.5324
 99  4 22  2 58  0.0000000  0  9 03 23 29 09 21 17 08 31 01
  21519538.087   -21406445.767 9 -16651148.10149  21519537.694    21519542.4094
  21339341.818   -17708710.785 9 -13472701.53249  21339341.201    21339345.9034
  21808358.319   -17128997.944 9 -13297106.90649  21808358.138    21808362.5534
  23641801.877    -9618332.910 9  -7466413.07249  23641801.391    23641807.4484
  21137194.232   -24360608.999 9 -18385747.32449  21137193.785    21137198.4254
  21527853.431   -22512649.771 9 -16954387.25849  21527852.738    21527857.7184
  23799117.510   -10840796.573 9  -8421761.96649  23799116.764    23799121.7034
  23439714.623    -9900383.483 9  -7697838.45249  23439713.904    23439718.4904
  24038630.424    -7527983.972 9  -5833957.16849  24038630.013    24038637.0654
 99  4 22  2 58 30.0000000  0  9 03 23 29 09 21 17 08 31 01
  21517943.914   -21414823.233 9 -16657675.98549  21517943.308    21517947.9354
  21346592.354   -17670608.802 9 -13443011.67149  21346591.682    21346596.3114
  21792552.207   -17212059.315 9 -13361830.00249  21792552.150    21792556.3744
  23637276.043    -9642116.556 9  -7484945.73749  23637275.755    23637280.8524
  21132393.568   -24385836.705 9 -18405405.26049  21132392.939    21132397.9474
  21538960.327   -22454282.662 9 -16908906.40949  21538959.868    21538965.0844
  23784002.984   -10920223.486 9  -8483653.00449  23784001.888    23784008.0024
  23426891.711    -9967768.078 9  -7750345.89449  23426891.181    23426896.8054
  24018043.812    -7636166.440 9  -5918255.04149  24018043.684    24018050.1624
 99  4 22  2 59  0.0000000  0  9 03 23 29 09 21 17 08 31 01
  21516462.671   -21422607.166 9 -16663741.38049  21516462.243    21516467.0934
  21353873.000   -17632348.790 9 -13413198.66949  21353872.502    21353877.2894
  21776808.233   -17294794.139 9 -13426298.64949  21776807.740    21776812.5474
  23632845.101    -9665401.216 9  -7503089.57549  23632844.402    23632849.7304
  21127629.116   -24410873.914 9 -18424914.75649  21127628.577    21127633.2934
  21550132.114   -22395574.948 9 -16863160.15249  21550131.544    21550136.9694
  23768914.340   -10999514.300 9  -8545437.99749  23768912.584    23768919.4394
  23414156.798   -10034690.409 9  -7802493.12249  23414156.417    23414161.1154
  23997477.346    -7744242.721 9  -6002470.16749  23997477.022    23997483.5294
 99  4 22  2 59 30.0000000  0  9 03 23 29 09 21 17 08 31 01
  21515095.663   -21429790.935 9 -16669339.11449  21515095.369    21515099.9624
  21361182.775   -17593935.582 9 -13383266.29649  21361182.041    21361186.9714
  21761129.514   -17377186.441 9 -13490500.40149  21761129.224    21761133.5964
  23628509.457    -9688185.041 9  -7520843.15149  23628509.074    23628513.9954
  21122902.588   -24435711.830 9 -18444268.96049  21122901.989    21122906.8854
  21561370.018   -22336519.508 9 -16817142.93349  21561369.385    21561374.5194
  23753853.960   -11078656.788 9  -8607107.42749  23753853.409    23753858.6654
  23401510.949   -10101144.576 9  -7854275.54949  23401510.212    23401515.2704
  23976931.396    -7852211.259 9  -6086601.35549  23976930.147    23976937.8914
 99  4 22  3  0  0.0000000  0  9 03 23 29 09 21 17 08 31 01
  21513842.025   -21436378.620 9 -16674472.36949  21513841.757    21513846.2544
  21368520.014   -17555377.906 9 -13353221.34949  21368519.252    21368523.9764
  21745517.184   -17459229.521 9 -13554430.02549  21745516.512    21745521.3654
  23624267.642    -9710476.079 9  -7538212.76949  23624267.040    23624272.0034
  21118216.270   -24460338.369 9 -18463458.45649  21118215.783    21118220.5614
  21572675.389   -22277109.291 9 -16770849.27749  21572674.558    21572679.8094
  23738824.933   -11157634.537 9  -8668648.47049  23738823.315    23738829.8734
  23388952.001   -10167142.238 9  -7905702.25849  23388951.156    23388956.8024
  23956409.070    -7960056.063 9  -6170636.10349  23956408.693    23956414.9404
 99  4 22  3  0 30.0000000  0  9 03 23 29 09 21 17 08 31 01
  21512704.635   -21442355.659 9 -16679129.79949  21512704.045    21512708.7614
  21375884.114   -17516679.229 9 -13323066.53649  21375883.474    21375888.0894
  21729971.497   -17540922.491 9 -13618086.84049  21729971.074    21729975.5094
  23620123.661    -9732252.812 9  -7555181.61249  23620122.619    23620127.8934
  21113572.059   -24484744.020 9 -18482475.83549  21113571.399    21113576.3494
  21584051.054   -22217329.768 9 -16724267.85449  21584050.633    21584055.6824
  23723832.459   -11236419.778 9  -8730039.50649  23723832.163    23723837.8594
  23376480.183   -10232682.102 9  -7956772.24549  23376479.670    23376484.8854
  23935913.751    -8067759.482 9  -6254560.69149  23935913.022    23935919.5214
 99  4 22  3  1  0.0000000  0  9 03 23 29 09 21 17 08 31 01
  21511680.696   -21447736.450 9 -16683322.60849  21511680.254    21511685.1874
  21383275.924   -17477835.018 9 -13292798.31249  21383275.456    21383280.4064
  21714492.694   -17622264.070 9 -13681469.84649  21714492.370    21714497.0294
  23616076.536    -9753520.268 9  -7571753.61649  23616076.321    23616080.1324
  21108969.900   -24508928.512 9 -18501320.87849  21108969.375    21108974.1934
  21595494.617   -22157193.646 9 -16677408.55049  21595494.190    21595498.9624
  23708879.067   -11315000.125 9  -8791270.87749  23708877.765    23708883.9034
  23364094.220   -10297770.456 9  -8007490.41049  23364093.265    23364098.8664
  23915446.559    -8175314.808 9  -6338369.88249  23915445.831    23915452.6734
 99  4 22  3  1 30.0000000  0  9 03 23 29 09 21 17 08 31 01
  21510769.316   -21452525.619 9 -16687054.42349  21510768.975    21510773.7204
  21390694.752   -17438848.922 9 -13262419.53449  21390694.241    21390698.8594
  21699084.800   -17703232.646 9 -13744562.20249  21699084.656    21699088.5554
  23612123.369    -9774293.869 9  -7587940.80149  23612122.987    23612127.4364
  21104412.762   -24532876.332 9 -18519981.50249  21104412.199    21104416.8864
  21607004.677   -22096708.334 9 -16630277.15849  21607003.942    21607009.0094
  23693967.922   -11393358.529 9  -8852329.31049  23693967.498    23693972.8774
  23351793.867   -10362408.365 9  -8057857.57949  23351793.170    23351798.4424
  23895011.831    -8282699.314 9  -6422045.96849  23895010.928    23895017.9504
 99  4 22  3  2  0.0000000  0  9 03 23 29 09 21 17 08 31 01
  21509972.729   -21456711.628 9 -16690316.23949  21509972.516    21509977.3314
  21398140.539   -17399721.039 9 -13231930.26949  21398139.916    21398144.4714
  21683748.046   -17783827.626 9 -13807363.44049  21683747.964    21683752.1064
  23608266.335    -9794562.461 9  -7603734.46249  23608265.498    23608271.2394
  21099900.074   -24556590.569 9 -18538460.11549  21099899.544    21099904.0234
  21618585.566   -22035850.332 9 -16582855.35349  21618584.895    21618589.8154
  23679101.299   -11471483.417 9  -8913205.78949  23679100.340    23679106.3734
  23339579.891   -10426593.010 9  -8107871.56949  23339579.565    23339584.7264
  23874611.417    -8389903.842 9  -6505581.82549  23874610.531    23874617.4894
 99  4 22  3  2 30.0000000  0  9 03 23 29 09 21 17 08 31 01
  21509289.313   -21460302.918 9 -16693114.64349  21509288.959    21509293.5154
  21405612.813   -17360453.869 9 -13201332.47049  21405612.213    21405616.6714
  21668480.832   -17864057.163 9 -13869879.92549  21668480.253    21668484.5544
  23604508.186    -9814311.821 9  -7619123.55249  23604507.689    23604512.5284
  21095428.170   -24580090.269 9 -18556771.56049  21095427.689    21095432.3584
  21630237.449   -21974619.205 9 -16535142.80749  21630236.869    21630241.8124
  23664275.790   -11549391.216 9  -8973913.10249  23664274.733    23664280.7414
  23327456.326   -10490303.547 9  -8157516.11249  23327455.329    23327461.2984
  23854241.990    -8496944.925 9  -6588990.31449  23854240.263    23854248.4794
 99  4 22  3  3  0.0000000  0  9 03 23 29 09 21 17 08 31 01
  21508716.414   -21463313.755 9 -16695460.74149  21508715.906    21508720.6004
  21413111.275   -17321049.218 9 -13170627.54449  21413110.472    21413115.6834
  21653285.530   -17943908.792 9 -13932101.92049  21653285.003    21653289.5124
  23600846.587    -9833553.705 9  -7634117.17449  23600846.564    23600850.8744
  21090994.382   -24603389.863 9 -18574927.07549  21090993.819    21090998.4574
  21641958.303   -21913025.914 9 -16487148.05549  21641957.315    21641962.4474
  23649490.510   -11627087.986 9  -9034455.96349  23649489.689    23649495.9624
  23315425.195   -10553527.354 9  -8206781.38649  23315424.358    23315430.2634
  23833900.284    -8603840.895 9  -6672285.73549  23833899.884    23833906.6974
 99  4 22  3  3 30.0000000  0  9 03 23 29 09 21 17 08 31 01
  21508256.130   -21465732.341 9 -16697345.34449  21508255.575    21508260.4014
  21420632.046   -17281527.384 9 -13139831.30449  21420631.575    21420635.8644
  21638159.531   -18023396.100 9 -13994040.03449  21638159.124    21638163.3754
  23597282.771    -9852281.575 9  -7648710.29249  23597282.841    23597287.1064
  21086595.972   -24626503.482 9 -18592937.67249  21086595.384    21086600.0114
  21653749.247   -21851064.006 9 -16438866.06449  21653748.572    21653753.3804
  23634745.224   -11704574.972 9  -9094835.39949  23634744.907    23634749.8944
  23303487.312   -10616261.154 9  -8255664.83949  23303486.922    23303491.2244
  23813585.657    -8710594.290 9  -6755470.05849  23813584.868    23813592.0374
 99  4 22  3  4  0.0000000  0  9 03 23 29 09 21 17 08 31 01
  21507906.337   -21467570.391 9 -16698777.57949  21507905.987    21507910.4344
  21428174.856   -17241889.635 9 -13108944.74249  21428174.114    21428178.9844
  21623096.830   -18102550.843 9 -14055719.02049  21623096.712    21623100.6994
  23593818.311    -9870487.615 9  -7662896.78749  23593817.870    23593822.5214
  21082229.545   -24649449.308 9 -18610817.52749  21082228.967    21082233.8454
  21665608.739   -21788741.713 9 -16390303.25949  21665608.002    21665613.2414
  23620035.858   -11781873.537 9  -9155067.99949  23620035.740    23620041.1554
  23291641.706   -10678510.026 9  -8304170.41649  23291640.713    23291645.7024
  23793295.318    -8817219.716 9  -6838554.66449  23793294.795    23793301.9634
 99  4 22  3  4 30.0000000  0  9 03 23 29 09 21 17 08 31 01
  21507665.246   -21468837.513 9 -16699764.93849  21507664.803    21507669.3844
  21435740.991   -17202129.034 9 -13077962.45149  21435740.426    21435745.2514
  21608097.147   -18181374.745 9 -14117140.20249  21608096.716    21608101.1964
  23590449.780    -9888189.208 9  -7676690.20149  23590449.192    23590454.5884
  21077896.482   -24672219.775 9 -18628560.73449  21077895.766    21077900.5984
  21677532.382   -21726082.181 9 -16341477.67449  21677531.467    21677537.0544
  23605362.397   -11858982.819 9  -9215153.09949  23605360.959    23605366.6934
  23279886.962   -10740281.328 9  -8352303.87649  23279885.700    23279891.5064
  23773028.678    -8923720.963 9  -6921542.50349  23773027.296    23773034.5494
 99  4 22  3  5  0.0000000  0  9 03 23 29 09 21 17 08 31 01
  21507533.907   -21469527.541 9 -16700302.61349  21507533.434    21507537.9984
  21443331.431   -17162241.136 9 -13046880.96549  21443330.781    21443335.3754
  21593161.337   -18259862.858 9 -14178299.73349  21593161.116    21593165.4124
  23587176.913    -9905388.414 9  -7690092.14949  23587176.088    23587181.2664
  21073600.391   -24694795.740 9 -18646152.38649  21073599.770    21073604.6304
  21689519.438   -21663090.180 9 -16292393.02349  21689518.729    21689523.7644
  23590729.990   -11935875.880 9  -9275069.71549  23590728.868    23590734.9874
  23268219.830   -10801592.266 9  -8400078.60449  23268219.187    23268224.5034
  23752789.508    -9030078.095 9  -7004418.06449  23752788.337    23752795.6604
 99  4 22  3  5 30.0000000  0  9 03 23 29 09 21 17 08 31 01
  21507513.685   -21469633.894 9 -16700385.47649  21507513.288    21507517.8254
  21450948.711   -17122211.967 9 -13015689.40449  21450948.208    21450952.8654
  21578288.931   -18338017.633 9 -14239199.51649  21578288.532    21578293.0894
  23584000.717    -9922078.985 9  -7703097.76149  23584000.776    23584005.7264
  21069342.873   -24717169.192 9 -18663586.23649  21069342.118    21069347.1444
  21701570.480   -21599761.674 9 -16243046.15749  21701569.846    21701575.4414
  23576137.803   -12012557.829 9  -9334821.83749  23576137.160    23576143.2194
  23256640.105   -10862443.913 9  -8447495.43149  23256638.834    23256644.2524
  23732581.540    -9136271.703 9  -7087166.21949  23732580.646    23732587.6614
 99  4 22  3  6  0.0000000  0  9 03 23 29 09 21 17 08 31 01
  21507605.487   -21469151.493 9 -16700009.56749  21507605.025    21507609.6854
  21458597.004   -17082019.986 9 -12984370.96749  21458596.213    21458600.9284
  21563486.277   -18415806.097 9 -14299813.86449  21563486.309    21563490.1794
  23580920.964    -9938263.130 9  -7715708.73649  23580920.708    23580925.9144
  21065125.299   -24739332.672 9 -18680856.46849  21065124.668    21065129.4564
  21713685.326   -21536097.687 9 -16193437.86849  21713684.549    21713689.1394
  23561585.909   -12089028.442 9  -9394409.27249  23561584.544    23561591.4274
  23245149.579   -10922826.654 9  -8494546.88749  23245149.018    23245154.0214
  23712405.828    -9242295.221 9  -7169781.81149  23712404.974    23712411.0684
 99  4 22  3  6 30.0000000  0  9 03 23 29 09 21 17 08 31 01
  21507813.575   -21468057.804 9 -16699157.33249  21507813.231    21507817.7304
  21466275.846   -17041667.313 9 -12952927.31749  21466275.247    21466280.0974
  21548760.653   -18493189.675 9 -14360112.71549  21548760.534    21548764.6934
  23577937.547    -9953940.979 9  -7727925.22049  23577936.634    23577941.6764
  21060948.498   -24761281.957 9 -18697959.79749  21060947.959    21060952.5694
  21725864.624   -21472094.967 9 -16143565.63249  21725863.917    21725869.2154
  23547078.625   -12165264.562 9  -9453813.96949  23547077.707    23547084.0184
  23233749.626   -10982733.182 9  -8541227.26849  23233748.391    23233753.7134
  23692265.961    -9348129.966 9  -7252250.32549  23692266.235    23692272.5424
 99  4 22  3  7  0.0000000  0  9 03 23 29 09 21 17 08 31 01
  21508139.149   -21466346.797 9 -16697824.07149  21508138.865    21508143.4324
  21473982.963   -17001166.152 9 -12921367.96749  21473982.401    21473987.0314
  21534113.653   -18570160.056 9 -14420089.59449  21534113.423    21534117.5184
  23575053.535    -9969096.743 9  -7739734.86849  23575053.020    23575057.9844
  21056811.240   -24783023.246 9 -18714901.05449  21056810.613    21056815.6054
  21738109.673   -21407746.924 9 -16093424.32349  21738108.491    21738114.3624
  23532613.614   -12241278.548 9  -9513045.60349  23532612.571    23532617.3094
  23222444.126   -11042144.091 9  -8587521.45049  23222444.057    23222448.3944
  23672163.569    -9453768.420 9  -7334565.89849  23672162.633    23672168.1364
 99  4 22  3  7 30.0000000  0  9 03 23 29 09 21 17 08 31 01
  21508583.508   -21464011.842 9 -16696004.61349  21508583.218    21508587.8144
  21481717.464   -16960521.277 9 -12889696.62949  21481716.867    21481721.6344
  21519547.662   -18646704.618 9 -14479734.66749  21519547.347    21519551.5784
  23572267.933    -9983734.316 9  -7751140.74249  23572267.139    23572272.3794
  21052710.430   -24804573.033 9 -18731693.08749  21052709.752    21052714.6054
  21750423.030   -21343039.933 9 -16043003.31949  21750422.466    21750427.7664
  23518186.847   -12317091.388 9  -9572120.50949  23518186.169    23518191.3704
  23211234.704   -11101049.917 9  -8633422.04649  23211234.607    23211239.7354
  23652095.645    -9559225.478 9  -7416740.11649  23652095.245    23652101.3924
 99  4 22  3  8  0.0000000  0  9 03 23 29 09 21 17 08 31 01
  21509145.091   -21461060.481 9 -16693704.84249  21509144.759    21509149.3724
  21489477.414   -16919742.267 9 -12857920.77749  21489476.635    21489481.4274
  21505064.281   -18722815.001 9 -14539041.42049  21505064.044    21505068.2964
  23569583.032    -9997843.007 9  -7762134.49749  23569582.977    23569588.4924
  21048646.157   -24825930.805 9 -18748335.50149  21048645.436    21048650.2154
  21762804.987   -21277972.424 9 -15992301.38749  21762804.284    21762809.5624
  23503801.669   -12392685.606 9  -9631025.03949  23503800.448    23503806.9804
  23200121.022   -11159452.543 9  -8678930.54449  23200120.461    23200125.5714
  23632060.929    -9664508.299 9  -7498778.58349  23632059.815    23632066.2204
 99  4 22  3  8 30.0000000  0  9 03 23 29 09 21 17 08 31 01
  21509822.750   -21457499.152 9 -16690929.77049  21509822.320    21509827.1294
  21497261.771   -16878835.201 9 -12826045.13349  21497261.106    21497265.7084
  21490660.849   -18798505.738 9 -14598021.18249  21490660.665    21490664.7034
  23567001.335   -10011410.133 9  -7772706.24849  23567000.115    23567005.3584
  21044619.466   -24847091.091 9 -18764824.02749  21044618.864    21044623.6414
  21775256.081   -21212541.371 9 -15941316.17249  21775255.354    21775260.9994
  23489460.408   -12468049.208 9  -9689749.87349  23489459.516    23489465.2814
  23189104.010   -11217347.188 9  -8724043.21349  23189102.878    23189108.6204
  23612059.694    -9769615.177 9  -7580679.94149  23612057.962    23612064.8824
 99  4 22  3  9  0.0000000  0  9 03 23 29 09 21 17 08 31 01
  21510613.572   -21453343.440 9 -16687691.54549  21510613.232    21510617.9574
  21505071.539   -16837794.594 9 -12794065.43449  21505070.819    21505075.6214
  21476332.754   -18873800.222 9 -14656692.17149  21476332.205    21476336.5604
  23564524.295   -10024426.941 9  -7782849.19249  23564523.590    23564528.5394
  21040630.633   -24868052.755 9 -18781157.78549  21040630.005    21040634.8784
  21787776.501   -21146746.443 9 -15890047.41749  21787775.737    21787780.8714
  23475161.660   -12543189.137 9  -9748300.42049  23475161.604    23475166.6204
  23178184.086   -11274731.311 9  -8768758.07549  23178183.537    23178188.5284
  23592089.240    -9874559.389 9  -7662454.55149  23592088.007    23592094.9124
 99  4 22  3  9 30.0000000  0  9 03 23 29 09 21 17 08 31 01
  21511515.378   -21448604.574 9 -16683998.92149  21511514.918    21511519.6714
  21512908.341   -16796611.569 9 -12761974.76349  21512907.544    21512912.5104
  21462079.127   -18948703.128 9 -14715058.03749  21462078.872    21462083.0334
  23562152.697   -10036889.386 9  -7792560.14649  23562152.591    23562156.8084
  21036679.018   -24888818.392 9 -18797338.79649  21036678.261    21036683.0174
  21800364.179   -21080597.767 9 -15838503.02049  21800363.213    21800368.8874
  23460910.532   -12618079.127 9  -9806656.20549  23460909.290    23460915.8254
  23167359.302   -11331615.620 9  -8813083.46849  23167359.051    23167364.1244
  23572150.836    -9979336.082 9  -7744098.64349  23572149.770    23572156.2564
 99  4 22  3 10  0.0000000  0  9 03 23 29 09 21 17 08 31 01
  21512524.745   -21443300.027 9 -16679865.49949  21512524.469    21512528.9604
  21520771.123   -16755292.273 9 -12729777.90349  21520770.261    21520775.2894
  21447895.999   -19023235.668 9 -14773135.30549  21447895.541    21447899.7454
  23559884.775   -10048807.488 9  -7801846.95749  23559884.661    23559890.3444
  21032765.457   -24909384.160 9 -18813364.06249  21032764.710    21032769.6544
  21813013.959   -21014122.244 9 -15786703.93549  21813013.105    21813019.1434
  23446709.926   -12692703.558 9  -9864805.06749  23446709.051    23446715.1604
  23156629.293   -11388002.157 9  -8857020.98549  23156628.939    23156633.6834
  23552245.961   -10083936.611 9  -7825605.44349  23552244.840    23552251.8234
 99  4 22  3 10 30.0000000  0  9 03 23 29 09 21 17 08 31 01
  21513643.131   -21437422.775 9 -16675285.81849  21513642.785    21513647.2914
  21528660.488   -16713833.364 9 -12697472.24949  21528659.989    21528664.5114
  21433780.388   -19097413.481 9 -14830936.16749  21433780.023    21433784.4004
  23557717.275   -10060197.853 9  -7810722.54349  23557717.342    23557721.8784
  21028889.865   -24929750.297 9 -18829233.77149  21028889.323    21028894.3334
  21825726.257   -20947318.788 9 -15734649.31149  21825725.804    21825730.6494
  23432558.532   -12767069.526 9  -9922752.52849  23432558.128    23432563.3804
  23145994.590   -11443887.986 9  -8900568.34649  23145993.742    23145999.4554
  23532374.844   -10188359.402 9  -7906973.73649  23532373.757    23532380.0904
 99  4 22  3 11  0.0000000  0  9 03 23 29 09 21 17 08 31 01
  21514871.509   -21430967.679 9 -16670255.86849  21514870.885    21514875.8824
  21536575.231   -16672241.036 9 -12665062.63949  21536574.570    21536579.4734
  21419733.164   -19171232.062 9 -14888457.10849  21419732.828    21419737.2064
  23555650.304   -10071059.901 9  -7819186.44649  23555650.453    23555654.7094
  21025051.228   -24949922.547 9 -18844952.40049  21025050.600    21025055.5754
  21838500.246   -20880191.198 9 -15682342.11049  21838499.421    21838504.9034
  23418456.738   -12841174.712 9  -9980496.78249  23418456.250    23418460.9484
  23135454.798   -11499274.575 9  -8943726.68749  23135453.489    23135458.6994
  23512538.871   -10292597.613 9  -7988198.21549  23512538.049    23512544.9484
 99  4 22  3 11 30.0000000  0  9 03 23 29 09 21 17 08 31 01
  21516210.623   -21423930.268 9 -16664772.16449  21516210.088    21516215.0294
  21544512.194   -16630532.213 9 -12632562.25249  21544511.695    21544516.2104
  21405755.768   -19244683.110 9 -14945691.65349  21405755.544    21405759.7324
  23553681.497   -10081405.950 9  -7827248.27849  23553680.996    23553685.8864
  21021246.428   -24969916.847 9 -18860532.36749  21021246.114    21021250.6094
  21851335.586   -20812741.177 9 -15629783.67049  21851335.095    21851339.8894
  23404404.969   -12915017.363 9 -10038036.44449  23404404.138    23404409.5634
  23125008.995   -11554167.396 9  -8986500.26549  23125008.240    23125013.5204
  23492739.420   -10396643.643 9  -8069272.94249  23492737.896    23492745.1404
 99  4 22  3 12  0.0000000  0  9 03 23 29 09 21 17 08 31 01
  21517660.822   -21416309.508 9 -16658833.90649  21517660.334    21517665.2454
  21552470.279   -16588712.114 9 -12599975.16149  21552469.596    21552474.4304
  21391848.795   -19317764.908 9 -15002638.48149  21391848.561    21391852.8074
  23551809.793   -10091241.974 9  -7834912.69749  23551808.912    23551814.5504
  21017473.526   -24989743.642 9 -18875981.81449  21017473.046    21017477.6834
  21864233.265   -20744963.769 9 -15576970.13049  21864232.767    21864238.1034
  23390400.237   -12988612.683 9 -10095383.39749  23390400.113    23390405.1844
  23114657.963   -11608562.050 9  -9028885.67749  23114657.456    23114662.8754
  23472974.197   -10500509.961 9  -8150207.64049  23472972.639    23472979.4894
 99  4 22  3 12 30.0000000  0  9 03 23 29 09 21 17 08 31 01
  21519223.233   -21408098.830 9 -16652435.96849  21519223.062    21519227.4334
  21560447.728   -16546790.614 9 -12567309.04849  21560446.833    21560451.6204
  21378014.934   -19390462.347 9 -15059285.80049  21378014.728    21378019.0544
  23550036.936   -10100558.099 9  -7842171.98749  23550036.929    23550040.5084
  21013730.414   -25009413.663 9 -18891309.09349  21013729.658    21013734.6154
  21877195.940   -20676844.694 9 -15523890.34249  21877194.893    21877200.6234
  23376441.040   -13061968.949 9 -10152544.06749  23376439.378    23376445.2224
  23104401.878   -11662457.948 9  -9070882.43049  23104401.076    23104406.5564
  23453243.149   -10604196.556 9  -8231002.28949  23453242.818    23453248.8224
 99  4 22  3 13  0.0000000  0  9 03 23 29 09 21 17 08 31 01
  21520895.817   -21399309.602 9 -16645587.21549  21520895.364    21520899.8664
  21568440.654   -16504787.508 9 -12534579.35449  21568439.870    21568444.5964
  21364257.624   -19462757.440 9 -15115619.59949  21364257.222    21364261.4924
  23548365.448   -10109341.339 9  -7849016.03549  23548365.016    23548370.5144
  21010013.154   -25028947.990 9 -18906530.64049  21010012.591    21010017.5624
  21890222.987   -20608387.332 9 -15470546.97449  21890222.524    21890227.5084
  23362527.520   -13135085.073 9 -10209517.62049  23362527.239    23362532.7924
  23094239.583   -11715860.749 9  -9112494.96449  23094238.471    23094244.4774
  23433546.458   -10707702.511 9  -8311656.18949  23433545.104    23433552.4834
 99  4 22  3 13 30.0000000  0  9 03 23 29 09 21 17 08 31 01
  21522677.275   -21389947.887 9 -16638292.36849  21522676.641    21522681.2144
  21576450.201   -16462696.953 9 -12501781.51449  21576449.335    21576454.2184
  21350576.004   -19534654.828 9 -15171643.50749  21350576.014    21350579.9894
  23546793.694   -10117600.789 9  -7855451.95649  23546792.994    23546798.2934
  21006322.617   -25048341.931 9 -18921642.79149  21006322.176    21006326.9694
  21903316.419   -20539581.273 9 -15416931.88449  21903315.600    21903320.6704
  23348659.709   -13207959.934 9 -10266303.17449  23348658.420    23348664.3104
  23084171.483   -11768769.048 9  -9153722.18149  23084171.441    23084175.5864
  23413882.042   -10811039.405 9  -8392178.33249  23413881.447    23413887.5814
 99  4 22  3 14  0.0000000  0  9 03 23 29 09 21 17 08 31 01
  21524566.399   -21380020.422 9 -16630556.67649  21524566.233    21524570.9034
  21584478.598   -16420507.352 9 -12468906.49649  21584477.837    21584482.5824
  21336968.622   -19606161.952 9 -15227363.31149  21336968.464    21336972.4514
  23545322.117   -10125333.672 9  -7861477.55849  23545321.883    23545326.8624
  21002663.595   -25067570.372 9 -18936625.98749  21002662.999    21002667.6844
  21916476.439   -20470424.950 9 -15363043.85749  21916475.740    21916481.3634
  23334838.747   -13280588.944 9 -10322897.16149  23334837.838    23334842.7914
  23074198.541   -11821177.282 9  -9194559.72749  23074198.065    23074202.1414
  23394251.013   -10914200.942 9  -8472563.84849  23394250.258    23394257.0624
 99  4 22  3 14 30.0000000  0  9 03 23 29 09 21 17 08 31 01
  21526565.098   -21369517.009 9 -16622372.19949  21526564.769    21526569.2524
  21592526.028   -16378217.576 9 -12435953.41749  21592525.526    21592530.1044
  21323435.655   -19677278.282 9 -15282778.60249  21323435.443    21323439.3514
  23543951.947   -10132533.775 9  -7867088.01449  23543951.502    23543956.5274
  20999040.771   -25086608.481 9 -18951460.86549  20999040.247    20999044.8534
  21929703.281   -20400917.209 9 -15308882.00549  21929702.643    21929707.6634
  23321066.363   -13352963.667 9 -10379293.00949  23321066.152    23321070.7774
  23064320.826   -11873084.827 9  -9235007.14949  23064319.544    23064325.2124
  23374656.550   -11017170.398 9  -8552799.68949  23374655.763    23374661.5474
 99  4 22  3 15  0.0000000  0  9 03 23 29 09 21 17 08 31 01
  21528673.911   -21358435.097 9 -16613736.93549  21528673.629    21528678.2964
  21600596.809   -16335805.328 9 -12402904.91149  21600596.208    21600601.1104
  21309974.825   -19748015.470 9 -15337898.45449  21309974.642    21309978.3864
  23542684.851   -10139192.051 9  -7872276.26049  23542685.118    23542689.5744
  20995457.473   -25105438.876 9 -18966133.88949  20995456.798    20995461.6274
  21942996.367   -20331061.488 9 -15254449.00549  21942995.530    21943001.1264
  23307344.555   -13425072.076 9 -10435481.33049  23307343.602    23307349.6334
  23054539.289   -11924486.853 9  -9275060.63849  23054538.725    23054543.8774
  23355099.074   -11119945.717 9  -8632884.26249  23355098.832    23355104.6374
 99  4 22  3 15 30.0000000  0  9 03 23 29 09 21 17 08 31 01
  21530893.511   -21346771.117 9 -16604648.11849  21530893.143    21530897.5084
  21608695.856   -16293244.745 9 -12369740.81749  21608695.012    21608700.0024
  21296585.228   -19818378.168 9 -15392726.50349  21296584.951    21296588.9094
  23541520.408   -10145310.901 9  -7877044.17249  23541520.994    23541524.9484
  20991920.273   -25124026.742 9 -18980617.93149  20991919.636    20991924.5844
  21956354.929   -20260861.817 9 -15199747.99849  21956354.042    21956359.7694
  23293673.240   -13496915.060 9 -10491462.83349  23293672.316    23293677.9194
  23044855.061   -11975377.428 9  -9314715.61449  23044854.859    23044859.2614
  23335581.122   -11222512.982 9  -8712806.71849  23335580.874    23335586.8534
 99  4 22  3 16  0.0000000  0  9 03 23 29 09 21 17 08 31 01
  21533227.878   -21334503.832 9 -16595089.18949  21533227.387    21533231.8414
  21616826.567   -16250517.425 9 -12336446.79849  21616826.043    21616830.8944
  21283270.552   -19888346.799 9 -15447247.48049  21283270.628    21283274.2604
  23540462.906   -10150867.976 9  -7881374.34249  23540463.266    23540467.6994
  20988432.840   -25142353.222 9 -18994898.29049  20988432.151    20988437.0014
  21969779.626   -20190314.536 9 -15144776.11449  21969778.269    21969784.4534
  23280054.404   -13568482.228 9 -10547229.41149  23280052.745    23280058.9564
  23035270.231   -12025746.215 9  -9353963.98749  23035269.625    23035274.2164
  23316107.460   -11324847.841 9  -8792548.07249  23316106.865    23316112.7154
 99  4 22  3 16 30.0000000  0  9 03 23 29 09 21 17 08 31 01
  21535679.213   -21321621.918 9 -16585051.33349  21535679.000    21535683.5804
  21624988.886   -16207624.174 9 -12303023.47949  21624988.312    21624993.1714
  21270032.493   -19957913.199 9 -15501455.03349  21270032.273    21270036.3374
  23539515.313   -10155847.815 9  -7885254.71249  23539514.453    23539520.4654
  20984991.927   -25160435.221 9 -19008988.14649  20984991.373    20984996.1564
  21983271.484   -20119413.846 9 -15089528.84049  21983270.728    21983275.8534
  23266490.980   -13639757.945 9 -10602768.89149  23266490.074    23266495.4444
  23025786.099   -12075585.960 9  -9392800.13949  23025785.540    23025790.4404
  23296676.840   -11426956.428 9  -8872113.11549  23296676.536    23296682.4644
 99  4 22  3 17  0.0000000  0  9 03 23 29 09 21 17 08 31 01
  21538245.110   -21308138.234 9 -16574544.56349  21538244.773    21538249.5644
  21633182.005   -16164569.106 9 -12269474.07449  21633181.100    21633186.2774
  21256873.509   -20027063.880 9 -15555338.64749  21256873.333    21256877.1504
  23538677.436   -10160250.651 9  -7888685.46649  23538676.773    23538681.5564
  20981594.634   -25178288.183 9 -19022899.52849  20981593.885    20981598.8284
  21996830.856   -20048159.047 9 -15034005.64049  21996829.892    21996835.1484
  23252984.377   -13710735.619 9 -10658076.11649  23252982.895    23252989.7134
  23016404.678   -12124885.606 9  -9431215.42649  23016404.525    23016409.2604
  23277288.708   -11528841.640 9  -8951504.07749  23277287.849    23277293.7284
 99  4 22  3 17 30.0000000  0  9 03 23 29 09 21 17 08 31 01
  21540924.186   -21294059.639 9 -16563574.23049  21540923.809    21540928.6414
  21641400.996   -16121377.753 9 -12235818.47049  21641400.150    21641405.3744
  21243795.793   -20095787.557 9 -15608889.53849  21243795.366    21243799.6564
  23537946.764   -10164089.812 9  -7891677.00649  23537946.749    23537952.0904
  20978236.422   -25195935.497 9 -19036650.66849  20978235.820    20978240.5404
  22010455.014   -19976563.635 9 -14978217.03449  22010454.050    22010459.2734
  23239534.916   -13781412.799 9 -10713149.19349  23239534.475    23239540.2864
  23007126.125   -12173644.609 9  -9469209.44649  23007126.278    23007130.4694
  23257941.257   -11630512.856 9  -9030728.31949  23257941.372    23257947.3404
 99  4 22  3 18  0.0000000  0  9 03 23 29 09 21 17 08 31 01
  21543716.060   -21279388.181 9 -16552141.92449  21543715.596    21543720.1244
  21649642.626   -16078067.312 9 -12202070.06849  21649642.225    21649646.8314
  21230799.551   -20164083.094 9 -15662106.80549  21230799.094    21230803.5174
  23537322.862   -10167368.519 9  -7894231.82649  23537321.621    23537327.1824
  20974908.842   -25213421.817 9 -19050276.35549  20974908.213    20974912.9834
  22024142.895   -19904633.449 9 -14922167.56149  22024142.244    22024147.2934
  23226147.433   -13851764.276 9 -10767968.48149  23226146.373    23226152.2124
  22997951.358   -12221858.689 9  -9506778.84149  22997950.890    22997955.4324
  23238633.334   -11731976.522 9  -9109790.82949  23238632.849    23238638.6004
 99  4 22  3 18 30.0000000  0  9 03 23 29 09 21 17 08 31 01
  21546613.251   -21264163.090 9 -16540278.21949  21546612.760    21546617.5684
  21657900.607   -16034671.251 9 -12168254.95649  21657900.188    21657904.6794
  21217885.418   -20231946.950 9 -15714987.69649  21217885.204    21217889.2374
  23536801.506   -10170108.640 9  -7896366.95949  23536800.672    23536806.7264
  20971606.388   -25230776.155 9 -19063799.19849  20971605.819    20971610.4544
  22037891.219   -19832385.808 9 -14865870.71849  22037890.546    22037895.6674
  23212820.046   -13921799.577 9 -10822541.40449  23212818.920    23212824.8514
  22988877.714   -12269540.940 9  -9543933.82549  22988876.322    22988881.6674
  23219360.561   -11833254.830 9  -9188708.90249  23219359.402    23219365.8214
 99  4 22  3 19  0.0000000  0  9 03 23 29 09 21 17 08 31 01
  21549615.573   -21248385.582 9 -16527984.05249  21549615.212    21549619.8014
  21666175.467   -15991186.531 9 -12134370.75049  21666174.639    21666179.3824
  21205054.673   -20299372.743 9 -15767527.24649  21205054.296    21205058.5844
  23536379.437   -10172326.727 9  -7898095.33149  23536378.834    23536384.4514
  20968330.792   -25247989.407 9 -19077212.10449  20968330.107    20968335.0994
  22051698.423   -19759828.421 9 -14809332.50449  22051698.027    22051703.2034
  23199551.107   -13991528.438 9 -10876875.52649  23199550.256    23199554.9974
  22979903.277   -12316701.663 9  -9580682.42849  22979902.934    22979907.3394
  23200124.649   -11934339.456 9  -9267476.04449  23200124.508    23200130.4444
 99  4 22  3 19 30.0000000  0  9 03 23 29 09 21 17 08 31 01
  21552725.316   -21232043.501 9 -16515249.96349  21552724.869    21552729.6474
  21674469.967   -15947598.523 9 -12100406.06649  21674469.357    21674474.2764
  21192304.912   -20366372.896 9 -15819735.12549  21192304.543    21192308.6894
  23536057.914   -10174016.274 9  -7899411.83349  23536057.277    23536061.7604
  20965082.991   -25265056.642 9 -19090511.23449  20965082.365    20965087.1124
  22065565.076   -19686958.510 9 -14752550.77549  22065564.568    22065569.8914
  23186342.120   -14060942.251 9 -10930964.15449  23186342.029    23186346.4224
  22971026.023   -12363351.873 9  -9617033.22849  22971025.390    22971031.0704
  23180927.466   -12035220.953 9  -9346084.91449  23180926.429    23180932.6684
 99  4 22  3 20  0.0000000  0  9 03 23 29 09 21 17 08 31 01
  21555941.451   -21215142.426 9 -16502080.29749  21555940.983    21555946.0044
  21682784.677   -15903904.441 9 -12066358.72149  21682783.711    21682788.8864
  21179635.997   -20432948.407 9 -15871612.11549  21179636.003    21179639.8644
  23535838.550   -10175169.055 9  -7900310.08649  23535838.038    23535842.5014
  20961867.192   -25281955.716 9 -19103679.32349  20961866.432    20961871.3194
  22079494.566   -19613758.723 9 -14695512.00749  22079493.465    22079499.4684
  23173190.741   -14130053.132 9 -10984816.73649  23173190.254    23173195.7264
  22962246.100   -12409490.788 9  -9652985.61349  22962245.398    22962250.1254
  23161770.549   -12135890.542 9  -9424528.65749  23161770.140    23161775.7284
 99  4 22  3 20 30.0000000  0  9 03 23 29 09 21 17 08 31 01
  21559267.203   -21197665.565 9 -16488461.96949  21559266.940    21559271.7034
  21691120.724   -15860098.205 9 -12032223.98949  21691119.980    21691124.7324
  21167049.152   -20499092.880 9 -15923153.22749  21167048.797    21167052.9024
  23535725.016   -10175765.788 9  -7900775.05349  23535723.757    23535730.0774
  20958692.410   -25298639.363 9 -19116679.54949  20958691.750    20958696.7234
  22093490.178   -19540211.259 9 -14638202.32349  22093489.575    22093494.9624
  23160095.681   -14198868.061 9 -11038438.70349  23160095.020    23160100.3954
  22953565.934   -12455105.285 9  -9688529.35949  22953564.428    22953570.6534
  23142657.505   -12236330.207 9  -9502793.24249  23142656.632    23142661.9844
 99  4 22  3 21  0.0000000  0  9 03 23 29 09 21 17 08 31 01
  21562705.798   -21179595.571 9 -16474381.45649  21562705.380    21562710.2724
  21699481.360   -15816162.570 9 -11997988.42449  21699480.622    21699485.2884
  21154541.575   -20564820.260 9 -15974369.34049  21154541.396    21154545.5244
  23535719.145   -10175796.776 9  -7900799.18249  23535718.691    23535722.4884
  20955559.229   -25315104.265 9 -19129509.32749  20955558.709    20955563.4084
  22107551.584   -19466318.159 9 -14580623.30749  22107550.801    22107556.7074
  23147057.747   -14267382.481 9 -11091826.50849  23147057.076    23147062.2224
  22944987.047   -12500187.308 9  -9723658.18449  22944986.287    22944991.6844
  23123593.120   -12336513.762 9  -9580858.25549  23123591.990    23123598.0974
 99  4 22  3 21 30.0000000  0  9 03 23 29 09 21 17 08 31 01
  21566253.261   -21160953.725 9 -16459855.34849  21566252.854    21566257.4854
  21707864.470   -15772108.761 9 -11963660.77549  21707863.809    21707868.8114
  21142112.569   -20630134.957 9 -16025263.87449  21142112.540    21142116.5394
  23535821.677   -10175257.502 9  -7900378.94049  23535820.770    23535825.2394
  20952465.520   -25331361.690 9 -19142177.43249  20952465.060    20952469.9314
  22121678.525   -19392080.479 9 -14522775.77749  22121678.161    22121683.4124
  23134077.914   -14335591.863 9 -11144976.61749  23134076.722    23134082.2564
  22936511.997   -12544723.837 9  -9758361.95149  22936511.364    22936516.1864
  23104576.602   -12436445.701 9  -9658727.21349  23104575.855    23104581.8154
 99  4 22  3 22  0.0000000  0  9 03 23 29 09 21 17 08 31 01
  21569907.619   -21141749.972 9 -16444891.38249  21569907.534    21569911.8084
  21716266.244   -15727957.151 9 -11929256.91949  21716265.582    21716270.5094
  21129763.390   -20695030.392 9 -16075831.71449  21129763.069    21129767.0704
  23536029.668   -10174164.554 9  -7899527.30449  23536029.366    23536034.6974
  20949411.272   -25347411.861 9 -19154684.04049  20949410.745    20949415.3484
  22135870.589   -19317501.248 9 -14464662.11349  22135869.976    22135875.1394
  23121155.514   -14403499.499 9 -11197891.61049  23121154.888    23121160.1934
  22928143.203   -12588702.032 9  -9792630.65849  22928142.747    22928147.8894
  23085607.627   -12536127.656 9  -9736401.36849  23085606.757    23085612.7424
 99  4 22  3 22 30.0000000  0  9 03 23 29 09 21 17 08 31 01
  21573667.872   -21121989.762 9 -16429493.82549  21573667.831    21573672.3634
  21724687.136   -15683704.799 9 -11894774.56649  21724686.393    21724691.7174
  21117491.521   -20759519.193 9 -16126082.69749  21117491.605    21117495.4984
  23536339.879   -10172534.265 9  -7898256.92449  23536339.111    23536344.3044
  20946393.289   -25363271.442 9 -19167042.13949  20946392.764    20946397.5384
  22150124.118   -19242598.436 9 -14406296.29649  22150123.159    22150129.2804
  23108291.379   -14471100.999 9 -11250568.05949  23108289.774    23108295.5414
  22919878.001   -12632135.871 9  -9826475.17749  22919876.720    22919882.2204
  23066687.482   -12635553.461 9  -9813875.92849  23066685.386    23066692.6374
 99  4 22  3 23  0.0000000  0  9 03 23 29 09 21 17 08 31 01
  21577532.524   -21101680.854 9 -16413668.70149  21577532.185    21577536.7754
  21733127.589   -15639349.831 9 -11860212.23849  21733127.049    21733131.4574
  21105297.022   -20823601.562 9 -16176016.97749  21105296.767    21105301.1884
  23536751.748   -10170369.359 9  -7896569.97349  23536751.596    23536755.7524
  20943408.645   -25378955.903 9 -19179263.78049  20943407.970    20943412.9114
  22164438.859   -19167374.241 9 -14347680.05549  22164438.369    22164443.8324
  23095487.087   -14538387.242 9 -11302998.84149  23095485.608    23095492.1064
  22911716.578   -12675024.363 9  -9859894.75749  22911716.099    22911720.2404
  23047814.237   -12734732.657 9  -9891158.32449  23047813.751    23047819.9674
 99  4 22  3 23 30.0000000  0  9 03 23 29 09 21 17 08 31 01
  21581500.246   -21080830.356 9 -16397421.56849  21581499.789    21581504.3844
  21741585.860   -15594901.445 9 -11825577.13149  21741585.364    21741589.9784
  21093179.746   -20887278.369 9 -16225635.23949  21093179.516    21093183.1834
  23537265.864   -10167667.667 9  -7894464.73649  23537265.920    23537269.7614
  20940459.188   -25394455.234 9 -19191341.16849  20940458.462    20940463.2074
  22178816.436   -19091819.630 9 -14288806.34049  22178815.785    22178821.2154
  23082745.476   -14605345.064 9 -11355173.72849  23082744.758    23082749.5344
  22903658.623   -12717369.140 9  -9892890.65149  22903658.487    22903662.4884
  23028983.217   -12833689.807 9  -9968267.71349  23028982.767    23028988.2674
 99  4 22  3 24  0.0000000  0  9 03 23 29 09 21 17 08 31 01
  21585575.365   -21059415.317 9 -16380734.52549  21585575.167    21585579.8944
  21750063.285   -15550352.349 9 -11790863.54849  21750062.865    21750067.4604
  21081139.449   -20950550.275 9 -16274937.98949  21081139.251    21081143.2474
  23537884.507   -10164416.597 9  -7891931.40849  23537885.261    23537888.1574
  20937545.261   -25409767.992 9 -19203273.17449  20937544.659    20937549.4034
  22193256.307   -19015937.535 9 -14229677.44849  22193255.619    22193261.2694
  23070066.315   -14671974.124 9 -11407092.44749  23070065.126    23070071.3994
  22895702.470   -12759179.289 9  -9925469.95649  22895701.216    22895707.4954
  23010195.467   -12932419.808 9 -10045200.09049  23010194.294    23010200.2294
 99  4 22  3 24 30.0000000  0  9 03 23 29 09 21 17 08 31 01
  21589759.064   -21037429.611 9 -16363602.81349  21589758.591    21589763.4424
  21758562.832   -15505686.683 9 -11756059.12949  21758562.101    21758567.2014
  21069176.963   -21013413.491 9 -16323922.28749  21069176.782    21069180.7634
  23538612.019   -10160593.238 9  -7888952.14049  23538612.018    23538616.5094
  20934665.490   -25424901.286 9 -19215065.33849  20934664.673    20934669.5464
  22207757.002   -18939735.499 9 -14170299.24649  22207756.400    22207761.5394
  23057450.583   -14738270.113 9 -11458751.60749  23057449.590    23057455.1944
  22887845.892   -12800465.444 9  -9957640.94849  22887845.394    22887849.7614
  22991447.742   -13030939.303 9 -10121968.44849  22991446.503    22991452.3694
 99  4 22  3 25  0.0000000  0  9 03 23 29 09 21 17 08 31 01
  21594053.479   -21014862.282 9 -16346017.88049  21594053.058    21594057.7524
  21767085.511   -15460899.606 9 -11721160.10949  21767084.721    21767089.2494
  21057293.879   -21075859.388 9 -16372581.39949  21057293.669    21057297.6364
  23539451.130   -10156183.184 9  -7885515.71449  23539450.897    23539455.2074
  20931819.709   -25439855.782 9 -19226718.18149  20931819.073    20931823.7044
  22222319.672   -18863207.887 9 -14110667.34549  22222318.429    22222324.5304
  23044899.942   -14804223.468 9 -11510143.78949  23044898.958    23044903.8684
  22880090.567   -12841220.003 9  -9989397.71749  22880090.153    22880094.7904
  22972737.644   -13129260.639 9 -10198582.39849  22972737.505    22972742.7014
 99  4 22  3 25 30.0000000  0  9 03 23 29 09 21 17 08 31 01
  21598460.318   -20991704.430 9 -16327972.80749  21598460.007    21598464.5464
  21775632.613   -15415984.269 9 -11686161.14449  21775632.283    21775637.0764
  21045492.245   -21137877.481 9 -16420907.15649  21045492.039    21045495.8494
  23540401.558   -10151188.782 9  -7881623.94749  23540401.959    23540405.6104
  20929007.085   -25454636.308 9 -19238235.45949  20929006.420    20929011.2774
  22236945.045   -18786351.305 9 -14050779.12449  22236944.284    22236949.9504
  23032414.812   -14869832.874 9 -11561267.95949  23032413.472    23032419.3204
  22872435.224   -12881449.169 9 -10020745.08049  22872433.514    22872439.1734
  22954066.318   -13227378.732 9 -10275037.98249  22954065.471    22954071.9474
 99  4 22  3 26  0.0000000  0  9 03 23 29 09 21 17 08 31 01
  21602980.878   -20967948.756 9 -16309461.89249  21602980.548    21602985.1464
  21784203.537   -15370944.019 9 -11651064.84149  21784202.930    21784207.6404
  21033773.412   -21199460.418 9 -16468893.82849  21033773.092    21033777.1874
  23541462.947   -10145611.700 9  -7877278.16849  23541462.385    23541467.1544
  20926226.142   -25469250.109 9 -19249622.82649  20926225.486    20926230.2504
  22251632.627   -18709167.209 9 -13990635.68849  22251631.806    22251637.6294
  23019994.112   -14935103.422 9 -11612128.08749  23019993.220    23019998.4734
  22864880.458   -12921149.504 9 -10051680.37449  22864879.613    22864884.8684
  22935437.695   -13325272.355 9 -10351318.64649  22935437.687    22935442.4544
 99  4 22  3 26 30.0000000  0  9 03 23 29 09 21 17 08 31 01
  21607612.089   -20943611.661 9 -16290497.92849  21607611.712    21607616.1014
  21792796.683   -15325786.940 9 -11615877.50949  21792796.031    21792800.5324
  21022138.848   -21260600.287 9 -16516535.25549  21022138.686    21022142.6214
  23542632.709   -10139464.713 9  -7872488.28949  23542631.935    23542636.3464
  20923477.068   -25483696.325 9 -19260879.60949  20923476.509    20923481.1834
  22266383.891   -18631648.731 9 -13930231.70549  22266383.663    22266389.2694
  23007638.168   -15000034.364 9 -11662723.59249  23007637.274    23007642.2414
  22857428.248   -12960310.877 9 -10082195.69849  22857427.013    22857431.8204
  22916853.557   -13422932.436 9 -10427417.33749  22916853.492    22916858.5624
 99  4 22  3 27  0.0000000  0  9 03 23 29 09 21 17 08 31 01
  21612350.489   -20918711.451 9 -16271095.16749  21612349.842    21612354.9044
  21801409.369   -15280527.170 9 -11580610.15149  21801408.769    21801413.7114
  21010587.415   -21321303.205 9 -16563836.20049  21010587.173    21010590.9504
  23543907.025   -10132768.052 9  -7867270.08049  23543907.012    23543911.5424
  20920758.298   -25497983.648 9 -19272012.57349  20920757.751    20920762.4824
  22281199.450   -18553792.836 9 -13869564.78749  22281199.017    22281204.3464
  22995346.646   -15064626.045 9 -11713054.71949  22995345.334    22995351.2084
  22850080.614   -12998922.741 9 -10112282.82549  22850079.249    22850084.5464
  22898316.538   -13520344.682 9 -10503322.88349  22898315.796    22898322.0704
 99  4 22  3 27 30.0000000  0  9 03 23 29 09 21 17 08 31 01
  21617193.110   -20893263.488 9 -16251265.59149  21617192.659    21617197.4664
  21810038.898   -15235178.579 9 -11545273.58749  21810038.475    21810043.2354
  20999120.068   -21381564.387 9 -16610792.93749  20999119.782    20999123.8794
  23545283.526   -10125534.709 9  -7861633.68349  23545283.120    23545287.1934
  20918070.744   -25512106.707 9 -19283017.54149  20918070.141    20918074.9154
  22296078.120   -18475604.771 9 -13808639.04349  22296077.087    22296083.4894
  22983121.035   -15128872.165 9 -11763116.58849  22983120.787    22983125.2394
  22842837.886   -13036983.386 9 -10141940.44449  22842837.043    22842841.6814
  22879828.306   -13617500.772 9 -10579028.84849  22879827.445    22879833.0844
 99  4 22  3 28  0.0000000  0  9 03 23 29 09 21 17 08 31 01
  21622137.947   -20867277.968 9 -16231017.13449  21622137.376    21622142.4704
  21818685.737   -15189739.068 9 -11509866.17649  21818685.268    21818689.8004
  20987734.899   -21441393.729 9 -16657413.17049  20987734.354    20987738.4934
  23546762.616   -10117761.797 9  -7855576.85549  23546762.595    23546766.9514
  20915415.656   -25526059.271 9 -19293889.65749  20915415.029    20915419.6564
  22311017.595   -18397097.179 9 -13747464.30849  22311017.274    22311022.9344
  22970962.565   -15192765.405 9 -11812903.48449  22970961.684    22970966.5224
  22835700.303   -13074491.521 9 -10171167.51149  22835699.045    22835705.2024
  22861390.058   -13714394.198 9 -10654530.15049  22861389.939    22861394.7494
 99  4 22  3 28 30.0000000  0  9 03 23 29 09 21 17 08 31 01
  21627183.368   -20840764.142 9 -16210357.01549  21627183.183    21627187.8394
  21827353.180   -15144191.348 9 -11474374.44749  21827352.628    21827357.3574
  20976430.931   -21500796.128 9 -16703700.72649  20976430.709    20976434.4744
  23548343.171   -10109455.593 9  -7849104.48449  23548342.292    23548348.2644
  20912793.387   -25539839.345 9 -19304627.36549  20912792.715    20912797.7144
  22326016.968   -18318275.149 9 -13686044.54949  22326017.420    22326021.7434
  22958873.288   -15256295.169 9 -11862407.14949  22958872.134    22958877.3814
  22828668.120   -13111445.809 9 -10199963.03049  22828667.322    22828672.2824
  22843000.185   -13811033.332 9 -10729833.29149  22842999.740    22843005.3074
 99  4 22  3 29  0.0000000  0  9 03 23 29 09 21 17 08 31 01
  21632329.763   -20813719.889 9 -16189283.56849  21632329.420    21632334.1424
  21836041.705   -15098533.063 9 -11438796.56149  21836041.093    21836045.6664
  20965209.738   -21559763.940 9 -16749649.63849  20965209.627    20965213.5384
  23550026.230   -10100611.157 9  -7842212.69849  23550026.436    23550031.1344
  20910205.744   -25553437.264 9 -19315223.13349  20910205.116    20910209.8024
  22341074.462   -18239148.150 9 -13624387.14249  22341073.776    22341079.5204
  22946855.928   -15319446.598 9 -11911616.01449  22946855.253    22946860.3274
  22821741.067   -13147846.818 9 -10228327.41649  22821739.688    22821745.2034
  22824658.436   -13907419.908 9 -10804939.63849  22824657.718    22824664.2614
 99  4 22  3 29 30.0000000  0  9 03 23 29 09 21 17 08 31 01
  21637578.915   -20786135.393 9 -16167789.15949  21637578.816    21637583.2354
  21844752.820   -15052755.777 9 -11403125.94349  21844752.103    21844756.9474
  20954072.416   -21618290.891 9 -16795255.02449  20954072.098    20954076.1734
  23551814.698   -10091213.033 9  -7834889.45049  23551814.008    23551819.1864
  20907657.038   -25566830.768 9 -19325659.61849  20907656.311    20907661.0024
  22356190.946   -18159710.828 9 -13562487.94149  22356190.152    22356195.3804
  22934912.333   -15382210.278 9 -11960522.73149  22934912.211    22934916.8774
  22814919.028   -13183696.766 9 -10256262.40649  22814917.971    22814923.5324
  22806367.002   -14003541.717 9 -10879839.66949  22806366.151    22806371.9144
 99  4 22  3 30  0.0000000  0  9 03 23 29 09 21 17 08 31 01
  21642932.676   -20758000.913 9 -16145866.19349  21642932.180    21642936.9534
  21853486.425   -15006860.218 9 -11367363.17049  21853485.687    21853490.6284
  20943018.527   -21676379.287 9 -16840518.67749  20943018.330    20943022.1664
  23553711.213   -10081246.640 9  -7827123.41049  23553710.795    23553716.1924
  20905145.737   -25580027.592 9 -19335942.84549  20905145.219    20905149.6884
  22371367.882   -18079955.633 9 -13500341.05149  22371367.385    22371372.6524
  22923040.437   -15444597.433 9 -12009136.06149  22923040.459    22923044.3194
  22808204.529   -13218981.527 9 -10283757.00049  22808203.699    22808208.7664
  22788126.864   -14099394.341 9 -10954529.95449  22788126.688    22788131.6914
 99  4 22  3 30 30.0000000  0  9 03 23 29 09 21 17 08 31 01
  21648390.013   -20729322.438 9 -16123519.33049  21648389.842    21648394.3004
  21862239.542   -14960862.360 9 -11331520.67849  21862238.547    21862243.2684
  20932050.256   -21734017.778 9 -16885431.75549  20932049.943    20932053.7214
  23555715.103   -10070715.921 9  -7818917.61749  23555714.548    23555718.4974
  20902671.593   -25593029.538 9 -19346074.21849  20902671.122    20902675.7624
  22386605.872   -17999879.523 9 -13437944.08049  22386604.756    22386610.1294
  22911238.854   -15506614.975 9 -12057461.38349  22911238.560    22911243.3684
  22801597.970   -13253699.373 9 -10310809.83349  22801597.293    22801602.4314
  22769938.220   -14194976.044 9 -11029009.11549  22769937.470    22769943.4324
 99  4 22  3 31  0.0000000  0  9 03 23 29 09 21 17 08 31 01
  21653952.906   -20700089.262 9 -16100740.23649  21653952.251    21653957.1784
  21871010.069   -14914772.749 9 -11295606.69049  21871009.365    21871013.9894
  20921167.569   -21791206.532 9 -16929994.39249  20921167.357    20921171.1244
  23557827.261   -10059616.579 9  -7810268.75849  23557826.766    23557831.5814
  20900234.719   -25605835.323 9 -19356052.73849  20900233.959    20900238.6314
  22401905.828   -17919477.683 9 -13375293.29949  22401905.054    22401910.2554
  22899506.704   -15568268.281 9 -12105502.88049  22899506.122    22899511.9234
  22795098.590   -13287853.560 9 -10337423.45949  22795097.462    22795103.2764
  22751801.579   -14290284.371 9 -11103275.25049  22751800.476    22751805.8604
 99  4 22  3 31 30.0000000  0  9 03 23 29 09 21 17 08 31 01
  21659621.987   -20670297.879 9 -16077526.17549  21659621.686    21659626.2234
  21879799.453   -14868584.037 9 -11259615.48349  21879798.561    21879803.4784
  20910366.723   -21847965.229 9 -16974221.91749  20910366.524    20910370.4934
  23560047.366   -10047949.350 9  -7801177.40249  23560047.029    23560051.1534
  20897833.063   -25618455.909 9 -19365886.94749  20897832.412    20897837.3754
  22417269.489   -17838740.731 9 -13312381.39149  22417268.338    22417273.8024
  22887842.337   -15629564.930 9 -12153266.47649  22887842.217    22887846.1054
  22788706.356   -13321444.856 9 -10363598.46249  22788704.838    22788710.3554
  22733716.707   -14385320.740 9 -11177329.47849  22733715.586    22733721.3574
 99  4 22  3 32  0.0000000  0  9 03 23 29 09 21 17 08 31 01
  21665395.858   -20639955.959 9 -16053883.12549  21665395.419    21665400.0524
  21888607.548   -14822297.227 9 -11223547.83049  21888606.823    21888611.7304
  20899647.567   -21904294.653 9 -17018114.94249  20899647.145    20899651.0804
  23562373.334   -10035726.041 9  -7791652.71749  23562371.799    23562377.6004
  20895464.895   -25630900.766 9 -19375584.22549  20895464.381    20895469.1704
  22432695.435   -17757676.323 9 -13249214.33949  22432694.819    22432699.9274
  22876243.822   -15690515.295 9 -12200760.21549  22876242.617    22876247.5144
  22782419.736   -13354481.297 9 -10389341.10749  22782419.509    22782423.8474
  22715682.342   -14480091.655 9 -11251176.87249  22715681.871    22715687.4054
 99  4 22  3 32 30.0000000  0  9 03 23 29 09 21 17 08 31 01
  21671274.229   -20609064.933 9 -16029812.19749  21671273.689    21671278.6794
  21897436.799   -14775899.158 9 -11187393.48749  21897436.190    21897440.8354
  20889011.702   -21960186.233 9 -17061666.79349  20889011.498    20889015.4774
  23564804.353   -10022950.914 9  -7781698.05249  23564804.555    23564808.4084
  20893134.502   -25643146.977 9 -19385126.71249  20893133.944    20893138.5604
  22448182.569   -17676290.958 9 -13185797.18049  22448181.797    22448188.1064
  22864714.705   -15751100.701 9 -12247969.58049  22864713.438    22864718.8454
  22776236.748   -13386972.897 9 -10414659.21449  22776236.200    22776240.7844
  22697700.079   -14574588.478 9 -11324810.67249  22697699.240    22697704.5494
 99  4 22  3 33  0.0000000  0  9 03 23 29 09 21 17 08 31 01
  21677259.246   -20577613.266 9 -16005304.41149  21677259.106    21677263.3714
  21906290.689   -14729371.760 9 -11151138.36449  21906290.291    21906294.9404
  20878460.707   -22015631.802 9 -17104871.10449  20878460.363    20878464.3054
  23567342.605   -10009612.069 9  -7771304.12649  23567341.849    23567345.7954
  20890844.631   -25655180.252 9 -19394503.27349  20890844.040    20890848.3964
  22463733.583   -17594570.382 9 -13122118.82549  22463732.961    22463738.8424
  22853257.231   -15811309.765 9 -12294885.69549  22853256.570    22853260.9254
  22770160.775   -13418902.212 9 -10439539.15849  22770160.066    22770164.7894
  22679772.074   -14668800.216 9 -11398222.33449  22679771.051    22679776.7544
 99  4 22  3 33 30.0000000  0  9 03 23 29 09 21 17 08 31 01
  21683348.298   -20545615.134 9 -15980370.80649  21683348.011    21683352.4074
  21915167.402   -14682724.610 9 -11114789.92849  21915167.086    21915171.2374
  20867997.146   -22070618.095 9 -17147717.53249  20867996.826    20868000.7224
  23569990.482    -9995697.062 9  -7760461.24849  23569989.496    23569995.0264
  20888593.640   -25667009.367 9 -19403720.74949  20888593.048    20888597.4994
  22479347.314   -17512519.521 9 -13058183.10349  22479346.902    22479352.5024
  22841872.537   -15871136.386 9 -12341503.79049  22841872.521    22841876.4514
  22764192.402   -13450265.945 9 -10463978.41449  22764191.528    22764196.3974
  22661899.277   -14762722.246 9 -11471408.23949  22661898.234    22661903.6314
 99  4 22  3 34  0.0000000  0  9 03 23 29 09 21 17 08 31 01
  21689541.447   -20513070.277 9 -15955011.18849  21689541.213    21689545.9334
  21924065.048   -14635967.032 9 -11078355.44649  21924064.716    21924068.9704
  20857624.017   -22125128.908 9 -17190193.46149  20857623.827    20857627.3874
  23572749.415    -9981198.582 9  -7749163.73049  23572748.216    23572753.8854
  20886382.992   -25678626.371 9 -19412772.94649  20886382.528    20886386.9424
  22495022.344   -17430146.769 9 -12993996.56849  22495021.790    22495027.3174
  22830563.524   -15930564.968 9 -12387811.72449  22830563.150    22830567.3494
  22758332.841   -13481058.104 9 -10487972.26949  22758332.564    22758336.5534
  22644082.845   -14856347.986 9 -11544363.28349  22644081.718    22644086.8314
 99  4 22  3 34 30.0000000  0  9 03 23 29 09 21 17 08 31 01
  21695839.414   -20479974.330 9 -15929222.14049  21695839.043    21695843.7894
  21932981.149   -14589112.360 9 -11041845.29849  21932980.454    21932985.3524
  20847340.784   -22179167.683 9 -17232301.56949  20847340.586    20847344.4224
  23575619.829    -9966113.597 9  -7737409.18049  23575618.609    23575624.8994
  20884209.820   -25690046.424 9 -19421671.67049  20884209.063    20884213.6794
  22510759.359   -17347448.418 9 -12929556.31049  22510758.406    22510764.6794
  22819331.947   -15989587.163 9 -12433802.99249  22819330.826    22819336.2514
  22752583.692   -13511270.342 9 -10511514.24849  22752583.654    22752587.8794
  22626323.209   -14949674.841 9 -11617085.41349  22626322.853    22626327.8994
 99  4 22  3 35  0.0000000  0  9 03 23 29 09 21 17 08 31 01
  21702240.645   -20446335.655 9 -15903010.19849  21702240.062    21702244.6274
  21941913.844   -14542170.656 9 -11005267.33849  21941913.130    21941918.0644
  20837145.388   -22232745.018 9 -17274050.11349  20837145.274    20837148.9614
  23578600.040    -9950452.805 9  -7725205.96149  23578599.655    23578603.8074
  20882066.944   -25701307.183 9 -19430446.27249  20882066.506    20882071.1534
  22526558.209   -17264424.778 9 -12864862.58049  22526557.499    22526563.5654
  22808177.546   -16048203.897 9 -12479478.33649  22808177.347    22808182.3994
  22746942.708   -13540913.542 9 -10534612.82049  22746942.160    22746946.8984
  22608617.594   -15042717.977 9 -11689586.47549  22608616.570    22608621.9514
 99  4 22  3 35 30.0000000  0  9 03 23 29 09 21 17 08 31 01
  21708745.090   -20412154.442 9 -15876375.49649  21708744.569    21708749.5144
  21950861.953   -14495148.145 9 -10968626.41249  21950861.245    21950866.3644
  20827035.366   -22285873.503 9 -17315448.90949  20827035.224    20827038.9734
  23581687.037    -9934230.446 9  -7712565.15649  23581686.768    23581690.7484
  20879952.351   -25712419.464 9 -19439105.17949  20879951.830    20879956.2924
  22542415.079   -17181096.413 9 -12799931.40449  22542414.601    22542419.7174
  22797101.490   -16106409.226 9 -12524833.09449  22797101.005    22797105.4854
  22741405.960   -13570009.129 9 -10557284.68949  22741405.203    22741410.5334
  22590963.871   -15135488.504 9 -11761875.12849  22590963.322    22590968.6664
 99  4 22  3 36  0.0000000  0  9 03 23 29 09 21 17 08 31 01
  21715353.091   -20377428.633 9 -15849316.43249  21715352.774    21715357.3554
  21959825.856   -14448042.590 9 -10931920.77349  21959825.369    21959829.6084
  20817007.602   -22338569.484 9 -17356510.68349  20817007.436    20817011.2534
  23584875.788    -9917473.300 9  -7699507.61849  23584875.121    23584880.2674
  20877866.068   -25723382.756 9 -19447647.98549  20877865.365    20877870.0544
  22558327.711   -17097475.002 9 -12734771.87349  22558327.435    22558332.1084
  22786101.295   -16164215.260 9 -12569876.70749  22786100.841    22786105.4574
  22735972.228   -13598563.693 9 -10579534.97049  22735971.554    22735976.3494
  22573363.173   -15227980.695 9 -11833946.88449  22573362.266    22573367.5194
 99  4 22  3 36 30.0000000  0  9 03 23 29 09 21 17 08 31 01
  21722063.791   -20342163.635 9 -15821837.22849  21722063.868    21722068.4414
  21968808.740   -14400837.162 9 -10895137.31549  21968808.081    21968812.9204
  20807063.010   -22390828.506 9 -17397231.97649  20807062.720    20807066.4694
  23588165.438    -9900185.545 9  -7686036.62949  23588164.683    23588169.4504
  20875808.608   -25734194.677 9 -19456072.84549  20875807.979    20875812.7214
  22574296.195   -17013560.286 9 -12669383.80049  22574295.071    22574301.5644
  22775177.618   -16221619.287 9 -12614607.07249  22775176.643    22775182.0354
  22730642.399   -13626572.315 9 -10601359.83749  22730641.544    22730646.3444
  22555815.501   -15320193.754 9 -11905801.14949  22555814.874    22555820.2914
 99  4 22  3 37  0.0000000  0  9 03 23 29 09 21 17 08 31 01
  21728877.150   -20306359.556 9 -15793937.95949  21728876.832    21728881.6554
  21977813.876   -14353514.770 9 -10858262.70549  21977812.887    21977818.3334
  20797202.718   -22442644.591 9 -17437608.11649  20797202.366    20797206.4984
  23591557.510    -9882360.307 9  -7672146.81449  23591558.544    23591561.2204
  20873784.946   -25744828.929 9 -19464359.25849  20873784.290    20873789.0094
  22590319.481   -16929357.179 9 -12603771.00049  22590318.918    22590324.3614
  22764332.106   -16278612.932 9 -12659017.64549  22764331.981    22764336.6164
  22725417.526   -13654029.101 9 -10622754.70749  22725416.551    22725421.8164
  22538319.931   -15412133.373 9 -11977442.35249  22538319.316    22538324.4734
 99  4 22  3 37 30.0000000  0  9 03 23 29 09 21 17 08 31 01
  21735791.729   -20270023.396 9 -15765624.08149  21735791.335    21735796.2624
  21986841.351   -14306074.919 9 -10821296.58749  21986840.687    21986845.3564
  20787427.444   -22494013.887 9 -17477636.11549  20787427.214    20787430.8484
  23595056.054    -9863975.184 9  -7657820.74149  23595055.563    23595060.6164
  20871797.783   -25755271.504 9 -19472496.31549  20871797.116    20871801.7734
  22606396.657   -16844871.392 9 -12537937.93649  22606396.158    22606401.5084
  22753562.414   -16335207.948 9 -12703117.60349  22753561.427    22753566.7104
  22720302.128   -13680910.218 9 -10643701.01749  22720301.283    22720306.8424
  22520878.753   -15503787.179 9 -12048860.83749  22520877.841    22520884.0394
 99  4 22  3 38  0.0000000  0  9 03 23 29 09 21 17 08 31 01
  21742802.920   -20233179.495 9 -15736914.55849  21742802.431    21742807.0964
  21995891.257   -14258517.419 9 -10784238.77649  21995890.342    21995895.2774
  20777739.678   -22544923.329 9 -17517305.78649  20777739.600    20777743.1414
  23598665.741    -9845005.984 9  -7643039.54349  23598665.484    23598670.2544
  20869846.061   -25765527.683 9 -19480488.12649  20869845.527    20869850.1224
  22622530.232   -16760089.395 9 -12471874.05049  22622529.759    22622534.8804
  22742868.525   -16391403.894 9 -12746906.59949  22742867.980    22742872.7314
  22715299.538   -13707198.841 9 -10664185.63449  22715299.425    22715304.2964
  22503492.348   -15595153.174 9 -12120055.04949  22503491.167    22503496.8744
 99  4 22  3 38 30.0000000  0  9 03 23 29 09 21 17 08 31 01
  21749908.549   -20195839.192 9 -15707818.23549  21749908.232    21749912.6214
  22004961.888   -14210850.803 9 -10747095.95249  22004961.432    22004965.9474
  20768140.375   -22595367.866 9 -17556613.19149  20768140.186    20768143.7984
  23602388.167    -9825444.073 9  -7627796.45649  23602387.677    23602392.6354
  20867928.980   -25775602.183 9 -19488338.37249  20867928.384    20867932.9404
  22638722.672   -16674997.603 9 -12405568.77049  22638721.849    22638726.7994
  22732251.539   -16447196.141 9 -12790381.01849  22732250.381    22732256.2144
  22710409.454   -13732896.726 9 -10684209.93849  22710408.851    22710414.0504
  22486156.426   -15686253.616 9 -12191042.34449  22486155.578    22486161.6404
 99  4 22  3 39  0.0000000  0  9 03 23 29 09 21 17 08 31 01
  21757110.891   -20157990.488 9 -15678325.74949  21757110.416    21757115.2774
  22014051.598   -14163084.228 9 -10709875.23249  22014051.050    22014055.5444
  20758629.897   -22645345.633 9 -17595556.88349  20758629.600    20758633.4164
  23606224.377    -9805284.124 9  -7612087.39249  23606224.181    23606228.6594
  20866047.010   -25785492.007 9 -19496044.71449  20866046.317    20866050.8534
  22654974.834   -16589592.153 9 -12339019.08749  22654974.018    22654979.0984
  22721710.589   -16502589.386 9 -12833544.53449  22721710.277    22721715.0634
  22705632.501   -13757999.609 9 -10703770.61849  22705631.598    22705636.9734
  22468871.016   -15777088.709 9 -12261822.87249  22468870.685    22468875.4674
 99  4 22  3 39 30.0000000  0  9 03 23 29 09 21 17 08 31 01
  21764408.330   -20119642.180 9 -15648443.96149  21764408.024    21764412.7354
  22023158.559   -14115227.243 9 -10672584.06649  22023158.115    22023162.7834
  20749208.408   -22694855.756 9 -17634136.17649  20749208.172    20749211.9444
  23610171.955    -9784539.800 9  -7595922.97449  23610172.478    23610176.4964
  20864198.225   -25795207.237 9 -19503615.00549  20864197.587    20864202.0964
  22671284.689   -16503882.735 9 -12272232.55749  22671283.747    22671289.8314
  22711244.562   -16557588.547 9 -12876400.96849  22711243.893    22711249.4024
  22700968.590   -13782508.328 9 -10722868.30249  22700968.027    22700972.4954
  22451638.874   -15867644.245 9 -12332385.55349  22451638.734    22451643.4614
 99  4 22  3 40  0.0000000  0  9 03 23 29 09 21 17 08 31 01
  21771803.182   -20080782.049 9 -15618163.35749  21771802.825    21771807.8774
  22032282.849   -14067278.664 9 -10635221.53249  22032282.148    22032286.7034
  20739874.926   -22743903.593 9 -17672355.24749  20739874.913    20739878.5954
  23614224.261    -9763244.912 9  -7579329.53949  23614223.933    23614228.8184
  20862385.792   -25804731.427 9 -19511036.44449  20862385.161    20862389.8494
  22687653.376   -16417864.466 9 -12205205.35249  22687652.985    22687658.2194
  22700858.137   -16612169.630 9 -12918931.62949  22700857.284    22700862.3994
  22696416.543   -13806429.456 9 -10741508.12849  22696415.588    22696420.4754
  22434460.274   -15957918.465 9 -12402729.05249  22434459.937    22434464.5904
 99  4 22  3 40 30.0000000  0  9 03 23 29 09 21 17 08 31 01
  21779300.765   -20041382.194 9 -15587462.17849  21779300.634    21779304.8844
  22041426.143   -14019230.248 9 -10597781.19649  22041425.489    22041430.1604
  20730628.141   -22792495.688 9 -17710219.19349  20730627.905    20730631.8644
  23618376.299    -9741425.717 9  -7562327.55649  23618375.909    23618381.9304
  20860613.646   -25814043.966 9 -19518292.95249  20860613.268    20860617.6094
  22704079.116   -16331546.827 9 -12137944.87449  22704078.763    22704083.8944
  22690554.767   -16666313.859 9 -12961121.88349  22690553.687    22690559.2264
  22691976.713   -13829760.953 9 -10759688.50749  22691976.262    22691980.5594
  22417338.925   -16047891.607 9 -12472837.93249  22417337.740    22417343.8644
 99  4 22  3 41  0.0000000  0  9 03 23 29 09 21 17 08 31 01
  21786900.123   -20001447.206 9 -15556344.01449  21786900.013    21786904.3094
  22050591.886   -13971063.659 9 -10560248.78349  22050591.523    22050596.0204
  20721467.222   -22840636.429 9 -17747731.43749  20721466.967    20721470.7124
  23622627.985    -9719082.835 9  -7544917.50949  23622627.805    23622632.2204
  20858882.414   -25823141.606 9 -19525382.01049  20858881.667    20858886.4714
  22720557.713   -16244951.507 9 -12070468.02249  22720556.946    22720562.5324
  22680337.132   -16720007.470 9 -13002961.00349  22680336.160    22680341.3884
  22687648.376   -13852506.504 9 -10777412.29849  22687647.948    22687652.5364
  22400280.000   -16137536.614 9 -12542691.12849  22400279.369    22400284.4874
 99  4 22  3 41 30.0000000  0  9 03 23 29 09 21 17 08 31 01
  21794598.383   -19960992.701 9 -15524821.03049  21794597.844    21794603.0164
  22059782.669   -13922765.979 9 -10522614.21649  22059782.350    22059786.4854
  20712391.492   -22888329.567 9 -17784894.89749  20712391.380    20712394.9714
  23626981.455    -9696205.586 9  -7527091.06749  23626980.372    23626985.6294
  20857190.902   -25832030.459 9 -19532308.37349  20857190.208    20857195.0434
  22737092.015   -16158062.875 9 -12002762.60649  22737091.009    22737097.0934
  22670208.278   -16773234.537 9 -13044436.57849  22670207.162    22670212.4984
  22683430.355   -13874672.717 9 -10794684.66449  22683429.299    22683434.4094
  22383284.932   -16226846.173 9 -12612282.92449  22383284.135    22383289.4174
